<?xml version="1.0" encoding="UTF-8" standalone="yes"?>
<gpx
 xmlns="http://www.topografix.com/GPX/1/1"
 creator="OziExplorer Version 3956f - http://www.oziexplorer.com"
 version="1.1"
 xmlns:xsi="http://www.w3.org/2001/XMLSchema-instance"
 xsi:schemaLocation="http://www.topografix.com/GPX/1/1 http://www.topografix.com/GPX/1/1/gpx.xsd">
<metadata>
 <time>2022-03-02T07:13:56Z</time>
 <bounds minlat="31.331090" minlon="34.839080" maxlat="31.389750" maxlon="34.902550"/>
</metadata>
<trk>
 <name>AlonRimonSansana_Singl,42km</name>
 <desc>AlonRimonSansana_Singl,42km</desc>
<trkseg>
<trkpt lat="31.3846400" lon="34.8596800">
<ele>398.570007</ele>
<time>2022-03-02T09:13:56.202Z</time>
</trkpt>
<trkpt lat="31.3846400" lon="34.8596700">
<ele>398.779999</ele>
<time>2022-03-02T09:13:56.204Z</time>
</trkpt>
<trkpt lat="31.3847900" lon="34.8595900">
<ele>400.360016</ele>
<time>2022-03-02T09:13:56.204Z</time>
</trkpt>
<trkpt lat="31.3849000" lon="34.8594600">
<ele>402.949982</ele>
<time>2022-03-02T09:13:56.204Z</time>
</trkpt>
<trkpt lat="31.3845100" lon="34.8591800">
<ele>408.410004</ele>
<time>2022-03-02T09:13:56.204Z</time>
</trkpt>
<trkpt lat="31.3844100" lon="34.8590800">
<ele>410.630005</ele>
<time>2022-03-02T09:13:56.204Z</time>
</trkpt>
<trkpt lat="31.3841600" lon="34.8587300">
<ele>420.199982</ele>
<time>2022-03-02T09:13:56.204Z</time>
</trkpt>
<trkpt lat="31.3842400" lon="34.8587100">
<ele>421.059998</ele>
<time>2022-03-02T09:13:56.204Z</time>
</trkpt>
<trkpt lat="31.3844300" lon="34.8588600">
<ele>416.880005</ele>
<time>2022-03-02T09:13:56.204Z</time>
</trkpt>
<trkpt lat="31.3845700" lon="34.8589400">
<ele>415.880005</ele>
<time>2022-03-02T09:13:56.204Z</time>
</trkpt>
<trkpt lat="31.3846000" lon="34.8589600">
<ele>415.630005</ele>
<time>2022-03-02T09:13:56.205Z</time>
</trkpt>
<trkpt lat="31.3846000" lon="34.8589500">
<ele>415.919983</ele>
<time>2022-03-02T09:13:56.205Z</time>
</trkpt>
<trkpt lat="31.3846000" lon="34.8589500">
<ele>415.919983</ele>
<time>2022-03-02T09:13:56.205Z</time>
</trkpt>
<trkpt lat="31.3847400" lon="34.8590300">
<ele>414.580017</ele>
<time>2022-03-02T09:13:56.205Z</time>
</trkpt>
<trkpt lat="31.3848600" lon="34.8590100">
<ele>412.820007</ele>
<time>2022-03-02T09:13:56.205Z</time>
</trkpt>
<trkpt lat="31.3852900" lon="34.8588600">
<ele>411.459991</ele>
<time>2022-03-02T09:13:56.205Z</time>
</trkpt>
<trkpt lat="31.3855600" lon="34.8586300">
<ele>414.429993</ele>
<time>2022-03-02T09:13:56.205Z</time>
</trkpt>
<trkpt lat="31.3857900" lon="34.8583300">
<ele>415.130005</ele>
<time>2022-03-02T09:13:56.205Z</time>
</trkpt>
<trkpt lat="31.3858400" lon="34.8582100">
<ele>415.140015</ele>
<time>2022-03-02T09:13:56.205Z</time>
</trkpt>
<trkpt lat="31.3859000" lon="34.8579600">
<ele>416.639984</ele>
<time>2022-03-02T09:13:56.205Z</time>
</trkpt>
<trkpt lat="31.3859000" lon="34.8579600">
<ele>416.639984</ele>
<time>2022-03-02T09:13:56.205Z</time>
</trkpt>
<trkpt lat="31.3859100" lon="34.8579000">
<ele>417.470001</ele>
<time>2022-03-02T09:13:56.205Z</time>
</trkpt>
<trkpt lat="31.3859800" lon="34.8577400">
<ele>417.979980</ele>
<time>2022-03-02T09:13:56.205Z</time>
</trkpt>
<trkpt lat="31.3861200" lon="34.8574600">
<ele>415.029999</ele>
<time>2022-03-02T09:13:56.205Z</time>
</trkpt>
<trkpt lat="31.3861700" lon="34.8567800">
<ele>419.779999</ele>
<time>2022-03-02T09:13:56.205Z</time>
</trkpt>
<trkpt lat="31.3861700" lon="34.8567700">
<ele>419.750000</ele>
<time>2022-03-02T09:13:56.205Z</time>
</trkpt>
<trkpt lat="31.3861400" lon="34.8566400">
<ele>420.190002</ele>
<time>2022-03-02T09:13:56.205Z</time>
</trkpt>
<trkpt lat="31.3858500" lon="34.8563000">
<ele>419.059998</ele>
<time>2022-03-02T09:13:56.206Z</time>
</trkpt>
<trkpt lat="31.3857000" lon="34.8561800">
<ele>423.539978</ele>
<time>2022-03-02T09:13:56.206Z</time>
</trkpt>
<trkpt lat="31.3853500" lon="34.8558100">
<ele>428.960022</ele>
<time>2022-03-02T09:13:56.206Z</time>
</trkpt>
<trkpt lat="31.3849400" lon="34.8555300">
<ele>414.209991</ele>
<time>2022-03-02T09:13:56.206Z</time>
</trkpt>
<trkpt lat="31.3849100" lon="34.8554200">
<ele>411.589996</ele>
<time>2022-03-02T09:13:56.206Z</time>
</trkpt>
<trkpt lat="31.3849200" lon="34.8553500">
<ele>410.059998</ele>
<time>2022-03-02T09:13:56.206Z</time>
</trkpt>
<trkpt lat="31.3849400" lon="34.8552900">
<ele>408.840027</ele>
<time>2022-03-02T09:13:56.206Z</time>
</trkpt>
<trkpt lat="31.3849700" lon="34.8552300">
<ele>409.339996</ele>
<time>2022-03-02T09:13:56.206Z</time>
</trkpt>
<trkpt lat="31.3850300" lon="34.8551900">
<ele>411.619995</ele>
<time>2022-03-02T09:13:56.206Z</time>
</trkpt>
<trkpt lat="31.3850800" lon="34.8551900">
<ele>414.399994</ele>
<time>2022-03-02T09:13:56.206Z</time>
</trkpt>
<trkpt lat="31.3854200" lon="34.8552400">
<ele>425.849976</ele>
<time>2022-03-02T09:13:56.206Z</time>
</trkpt>
<trkpt lat="31.3857900" lon="34.8554100">
<ele>424.429993</ele>
<time>2022-03-02T09:13:56.206Z</time>
</trkpt>
<trkpt lat="31.3859000" lon="34.8554300">
<ele>421.909973</ele>
<time>2022-03-02T09:13:56.206Z</time>
</trkpt>
<trkpt lat="31.3861300" lon="34.8554400">
<ele>416.279999</ele>
<time>2022-03-02T09:13:56.206Z</time>
</trkpt>
<trkpt lat="31.3863000" lon="34.8554200">
<ele>413.200012</ele>
<time>2022-03-02T09:13:56.206Z</time>
</trkpt>
<trkpt lat="31.3863900" lon="34.8553800">
<ele>412.130005</ele>
<time>2022-03-02T09:13:56.206Z</time>
</trkpt>
<trkpt lat="31.3865100" lon="34.8552700">
<ele>410.160004</ele>
<time>2022-03-02T09:13:56.207Z</time>
</trkpt>
<trkpt lat="31.3865300" lon="34.8552200">
<ele>410.059998</ele>
<time>2022-03-02T09:13:56.207Z</time>
</trkpt>
<trkpt lat="31.3866100" lon="34.8549200">
<ele>411.169983</ele>
<time>2022-03-02T09:13:56.207Z</time>
</trkpt>
<trkpt lat="31.3866700" lon="34.8548100">
<ele>411.010010</ele>
<time>2022-03-02T09:13:56.207Z</time>
</trkpt>
<trkpt lat="31.3869400" lon="34.8547000">
<ele>408.149994</ele>
<time>2022-03-02T09:13:56.207Z</time>
</trkpt>
<trkpt lat="31.3870000" lon="34.8546400">
<ele>407.670013</ele>
<time>2022-03-02T09:13:56.207Z</time>
</trkpt>
<trkpt lat="31.3870700" lon="34.8545300">
<ele>407.819977</ele>
<time>2022-03-02T09:13:56.207Z</time>
</trkpt>
<trkpt lat="31.3871300" lon="34.8543300">
<ele>408.330017</ele>
<time>2022-03-02T09:13:56.207Z</time>
</trkpt>
<trkpt lat="31.3871400" lon="34.8542100">
<ele>408.200012</ele>
<time>2022-03-02T09:13:56.207Z</time>
</trkpt>
<trkpt lat="31.3871400" lon="34.8537700">
<ele>408.630005</ele>
<time>2022-03-02T09:13:56.207Z</time>
</trkpt>
<trkpt lat="31.3871800" lon="34.8537200">
<ele>408.130005</ele>
<time>2022-03-02T09:13:56.207Z</time>
</trkpt>
<trkpt lat="31.3872100" lon="34.8537000">
<ele>407.619995</ele>
<time>2022-03-02T09:13:56.207Z</time>
</trkpt>
<trkpt lat="31.3873500" lon="34.8536700">
<ele>405.829987</ele>
<time>2022-03-02T09:13:56.207Z</time>
</trkpt>
<trkpt lat="31.3874200" lon="34.8536300">
<ele>405.059998</ele>
<time>2022-03-02T09:13:56.207Z</time>
</trkpt>
<trkpt lat="31.3875400" lon="34.8535000">
<ele>402.590027</ele>
<time>2022-03-02T09:13:56.207Z</time>
</trkpt>
<trkpt lat="31.3876100" lon="34.8533800">
<ele>400.629974</ele>
<time>2022-03-02T09:13:56.207Z</time>
</trkpt>
<trkpt lat="31.3876400" lon="34.8532900">
<ele>400.049988</ele>
<time>2022-03-02T09:13:56.207Z</time>
</trkpt>
<trkpt lat="31.3876500" lon="34.8531500">
<ele>400.039978</ele>
<time>2022-03-02T09:13:56.208Z</time>
</trkpt>
<trkpt lat="31.3876300" lon="34.8529200">
<ele>399.259979</ele>
<time>2022-03-02T09:13:56.208Z</time>
</trkpt>
<trkpt lat="31.3876000" lon="34.8528300">
<ele>399.040009</ele>
<time>2022-03-02T09:13:56.208Z</time>
</trkpt>
<trkpt lat="31.3875000" lon="34.8526600">
<ele>397.609985</ele>
<time>2022-03-02T09:13:56.208Z</time>
</trkpt>
<trkpt lat="31.3874200" lon="34.8526000">
<ele>397.710022</ele>
<time>2022-03-02T09:13:56.208Z</time>
</trkpt>
<trkpt lat="31.3873000" lon="34.8525200">
<ele>397.950012</ele>
<time>2022-03-02T09:13:56.208Z</time>
</trkpt>
<trkpt lat="31.3871900" lon="34.8524700">
<ele>398.510010</ele>
<time>2022-03-02T09:13:56.208Z</time>
</trkpt>
<trkpt lat="31.3871100" lon="34.8524600">
<ele>399.179993</ele>
<time>2022-03-02T09:13:56.208Z</time>
</trkpt>
<trkpt lat="31.3870100" lon="34.8524900">
<ele>401.059998</ele>
<time>2022-03-02T09:13:56.208Z</time>
</trkpt>
<trkpt lat="31.3868800" lon="34.8525700">
<ele>405.330017</ele>
<time>2022-03-02T09:13:56.208Z</time>
</trkpt>
<trkpt lat="31.3867400" lon="34.8525900">
<ele>407.709991</ele>
<time>2022-03-02T09:13:56.208Z</time>
</trkpt>
<trkpt lat="31.3866500" lon="34.8525600">
<ele>408.119995</ele>
<time>2022-03-02T09:13:56.208Z</time>
</trkpt>
<trkpt lat="31.3865800" lon="34.8524700">
<ele>407.750000</ele>
<time>2022-03-02T09:13:56.208Z</time>
</trkpt>
<trkpt lat="31.3865600" lon="34.8524100">
<ele>407.390015</ele>
<time>2022-03-02T09:13:56.208Z</time>
</trkpt>
<trkpt lat="31.3865600" lon="34.8523100">
<ele>405.949982</ele>
<time>2022-03-02T09:13:56.208Z</time>
</trkpt>
<trkpt lat="31.3866100" lon="34.8520400">
<ele>401.589996</ele>
<time>2022-03-02T09:13:56.208Z</time>
</trkpt>
<trkpt lat="31.3866100" lon="34.8520400">
<ele>401.589996</ele>
<time>2022-03-02T09:13:56.208Z</time>
</trkpt>
<trkpt lat="31.3866800" lon="34.8517200">
<ele>400.279999</ele>
<time>2022-03-02T09:13:56.209Z</time>
</trkpt>
<trkpt lat="31.3868400" lon="34.8512300">
<ele>401.430023</ele>
<time>2022-03-02T09:13:56.209Z</time>
</trkpt>
<trkpt lat="31.3868900" lon="34.8510200">
<ele>401.850006</ele>
<time>2022-03-02T09:13:56.209Z</time>
</trkpt>
<trkpt lat="31.3868900" lon="34.8509300">
<ele>402.110016</ele>
<time>2022-03-02T09:13:56.209Z</time>
</trkpt>
<trkpt lat="31.3868600" lon="34.8508800">
<ele>402.489990</ele>
<time>2022-03-02T09:13:56.209Z</time>
</trkpt>
<trkpt lat="31.3866700" lon="34.8507600">
<ele>403.720001</ele>
<time>2022-03-02T09:13:56.209Z</time>
</trkpt>
<trkpt lat="31.3865200" lon="34.8508200">
<ele>401.209991</ele>
<time>2022-03-02T09:13:56.209Z</time>
</trkpt>
<trkpt lat="31.3864600" lon="34.8508000">
<ele>399.800018</ele>
<time>2022-03-02T09:13:56.209Z</time>
</trkpt>
<trkpt lat="31.3864000" lon="34.8506500">
<ele>396.009979</ele>
<time>2022-03-02T09:13:56.209Z</time>
</trkpt>
<trkpt lat="31.3863600" lon="34.8506100">
<ele>394.839996</ele>
<time>2022-03-02T09:13:56.209Z</time>
</trkpt>
<trkpt lat="31.3862900" lon="34.8506300">
<ele>394.790009</ele>
<time>2022-03-02T09:13:56.209Z</time>
</trkpt>
<trkpt lat="31.3862000" lon="34.8507400">
<ele>395.740021</ele>
<time>2022-03-02T09:13:56.209Z</time>
</trkpt>
<trkpt lat="31.3861000" lon="34.8509300">
<ele>398.050018</ele>
<time>2022-03-02T09:13:56.209Z</time>
</trkpt>
<trkpt lat="31.3860500" lon="34.8509800">
<ele>398.950012</ele>
<time>2022-03-02T09:13:56.209Z</time>
</trkpt>
<trkpt lat="31.3860100" lon="34.8510000">
<ele>399.239990</ele>
<time>2022-03-02T09:13:56.209Z</time>
</trkpt>
<trkpt lat="31.3856800" lon="34.8509400">
<ele>397.089996</ele>
<time>2022-03-02T09:13:56.209Z</time>
</trkpt>
<trkpt lat="31.3856100" lon="34.8509400">
<ele>397.000000</ele>
<time>2022-03-02T09:13:56.209Z</time>
</trkpt>
<trkpt lat="31.3855500" lon="34.8509600">
<ele>397.250000</ele>
<time>2022-03-02T09:13:56.209Z</time>
</trkpt>
<trkpt lat="31.3850200" lon="34.8513600">
<ele>407.940002</ele>
<time>2022-03-02T09:13:56.209Z</time>
</trkpt>
<trkpt lat="31.3849600" lon="34.8513600">
<ele>408.880005</ele>
<time>2022-03-02T09:13:56.209Z</time>
</trkpt>
<trkpt lat="31.3849200" lon="34.8513400">
<ele>409.130005</ele>
<time>2022-03-02T09:13:56.209Z</time>
</trkpt>
<trkpt lat="31.3848900" lon="34.8512700">
<ele>407.229980</ele>
<time>2022-03-02T09:13:56.210Z</time>
</trkpt>
<trkpt lat="31.3848700" lon="34.8512000">
<ele>405.110016</ele>
<time>2022-03-02T09:13:56.210Z</time>
</trkpt>
<trkpt lat="31.3848700" lon="34.8511200">
<ele>402.080017</ele>
<time>2022-03-02T09:13:56.210Z</time>
</trkpt>
<trkpt lat="31.3848900" lon="34.8510700">
<ele>400.459991</ele>
<time>2022-03-02T09:13:56.210Z</time>
</trkpt>
<trkpt lat="31.3849700" lon="34.8509300">
<ele>395.160004</ele>
<time>2022-03-02T09:13:56.210Z</time>
</trkpt>
<trkpt lat="31.3850200" lon="34.8507800">
<ele>392.140015</ele>
<time>2022-03-02T09:13:56.210Z</time>
</trkpt>
<trkpt lat="31.3850500" lon="34.8506100">
<ele>392.230011</ele>
<time>2022-03-02T09:13:56.210Z</time>
</trkpt>
<trkpt lat="31.3850900" lon="34.8501800">
<ele>396.600006</ele>
<time>2022-03-02T09:13:56.210Z</time>
</trkpt>
<trkpt lat="31.3850900" lon="34.8500500">
<ele>398.650024</ele>
<time>2022-03-02T09:13:56.210Z</time>
</trkpt>
<trkpt lat="31.3851100" lon="34.8499000">
<ele>399.800018</ele>
<time>2022-03-02T09:13:56.210Z</time>
</trkpt>
<trkpt lat="31.3853100" lon="34.8496300">
<ele>393.210022</ele>
<time>2022-03-02T09:13:56.211Z</time>
</trkpt>
<trkpt lat="31.3854800" lon="34.8493100">
<ele>390.160004</ele>
<time>2022-03-02T09:13:56.211Z</time>
</trkpt>
<trkpt lat="31.3856100" lon="34.8489000">
<ele>395.360016</ele>
<time>2022-03-02T09:13:56.211Z</time>
</trkpt>
<trkpt lat="31.3857600" lon="34.8485700">
<ele>395.109985</ele>
<time>2022-03-02T09:13:56.211Z</time>
</trkpt>
<trkpt lat="31.3858100" lon="34.8483100">
<ele>396.829987</ele>
<time>2022-03-02T09:13:56.211Z</time>
</trkpt>
<trkpt lat="31.3858100" lon="34.8483100">
<ele>396.829987</ele>
<time>2022-03-02T09:13:56.211Z</time>
</trkpt>
<trkpt lat="31.3858500" lon="34.8481600">
<ele>397.500031</ele>
<time>2022-03-02T09:13:56.211Z</time>
</trkpt>
<trkpt lat="31.3858900" lon="34.8480800">
<ele>397.339996</ele>
<time>2022-03-02T09:13:56.211Z</time>
</trkpt>
<trkpt lat="31.3859600" lon="34.8480300">
<ele>396.130005</ele>
<time>2022-03-02T09:13:56.211Z</time>
</trkpt>
<trkpt lat="31.3864000" lon="34.8478400">
<ele>389.700012</ele>
<time>2022-03-02T09:13:56.211Z</time>
</trkpt>
<trkpt lat="31.3865400" lon="34.8477100">
<ele>389.119995</ele>
<time>2022-03-02T09:13:56.211Z</time>
</trkpt>
<trkpt lat="31.3865800" lon="34.8476500">
<ele>389.079987</ele>
<time>2022-03-02T09:13:56.211Z</time>
</trkpt>
<trkpt lat="31.3866300" lon="34.8474700">
<ele>389.779999</ele>
<time>2022-03-02T09:13:56.211Z</time>
</trkpt>
<trkpt lat="31.3866300" lon="34.8472000">
<ele>389.679993</ele>
<time>2022-03-02T09:13:56.211Z</time>
</trkpt>
<trkpt lat="31.3866700" lon="34.8469300">
<ele>389.119995</ele>
<time>2022-03-02T09:13:56.211Z</time>
</trkpt>
<trkpt lat="31.3866800" lon="34.8467200">
<ele>391.049988</ele>
<time>2022-03-02T09:13:56.212Z</time>
</trkpt>
<trkpt lat="31.3867400" lon="34.8464900">
<ele>390.559998</ele>
<time>2022-03-02T09:13:56.212Z</time>
</trkpt>
<trkpt lat="31.3869400" lon="34.8464300">
<ele>383.169983</ele>
<time>2022-03-02T09:13:56.212Z</time>
</trkpt>
<trkpt lat="31.3870000" lon="34.8463800">
<ele>379.929993</ele>
<time>2022-03-02T09:13:56.212Z</time>
</trkpt>
<trkpt lat="31.3870100" lon="34.8463000">
<ele>378.859985</ele>
<time>2022-03-02T09:13:56.212Z</time>
</trkpt>
<trkpt lat="31.3869800" lon="34.8462400">
<ele>379.550018</ele>
<time>2022-03-02T09:13:56.212Z</time>
</trkpt>
<trkpt lat="31.3869100" lon="34.8461900">
<ele>381.060028</ele>
<time>2022-03-02T09:13:56.212Z</time>
</trkpt>
<trkpt lat="31.3865800" lon="34.8461900">
<ele>390.540009</ele>
<time>2022-03-02T09:13:56.212Z</time>
</trkpt>
<trkpt lat="31.3864800" lon="34.8461700">
<ele>393.589996</ele>
<time>2022-03-02T09:13:56.212Z</time>
</trkpt>
<trkpt lat="31.3864200" lon="34.8461300">
<ele>395.079987</ele>
<time>2022-03-02T09:13:56.212Z</time>
</trkpt>
<trkpt lat="31.3863700" lon="34.8460500">
<ele>395.220001</ele>
<time>2022-03-02T09:13:56.212Z</time>
</trkpt>
<trkpt lat="31.3862200" lon="34.8457000">
<ele>394.209991</ele>
<time>2022-03-02T09:13:56.212Z</time>
</trkpt>
<trkpt lat="31.3861200" lon="34.8453800">
<ele>394.149994</ele>
<time>2022-03-02T09:13:56.212Z</time>
</trkpt>
<trkpt lat="31.3861100" lon="34.8453000">
<ele>393.339996</ele>
<time>2022-03-02T09:13:56.212Z</time>
</trkpt>
<trkpt lat="31.3861200" lon="34.8451900">
<ele>392.060028</ele>
<time>2022-03-02T09:13:56.212Z</time>
</trkpt>
<trkpt lat="31.3861600" lon="34.8450700">
<ele>389.880005</ele>
<time>2022-03-02T09:13:56.212Z</time>
</trkpt>
<trkpt lat="31.3862300" lon="34.8446000">
<ele>384.610016</ele>
<time>2022-03-02T09:13:56.213Z</time>
</trkpt>
<trkpt lat="31.3861900" lon="34.8442300">
<ele>386.230011</ele>
<time>2022-03-02T09:13:56.213Z</time>
</trkpt>
<trkpt lat="31.3861900" lon="34.8441000">
<ele>386.020020</ele>
<time>2022-03-02T09:13:56.213Z</time>
</trkpt>
<trkpt lat="31.3862200" lon="34.8439800">
<ele>385.089996</ele>
<time>2022-03-02T09:13:56.213Z</time>
</trkpt>
<trkpt lat="31.3862600" lon="34.8439200">
<ele>384.440002</ele>
<time>2022-03-02T09:13:56.213Z</time>
</trkpt>
<trkpt lat="31.3863300" lon="34.8438500">
<ele>383.639984</ele>
<time>2022-03-02T09:13:56.213Z</time>
</trkpt>
<trkpt lat="31.3864500" lon="34.8437900">
<ele>383.360016</ele>
<time>2022-03-02T09:13:56.213Z</time>
</trkpt>
<trkpt lat="31.3865200" lon="34.8437900">
<ele>383.779999</ele>
<time>2022-03-02T09:13:56.213Z</time>
</trkpt>
<trkpt lat="31.3865800" lon="34.8438100">
<ele>384.180023</ele>
<time>2022-03-02T09:13:56.213Z</time>
</trkpt>
<trkpt lat="31.3867400" lon="34.8439400">
<ele>383.760010</ele>
<time>2022-03-02T09:13:56.213Z</time>
</trkpt>
<trkpt lat="31.3868900" lon="34.8440300">
<ele>383.010010</ele>
<time>2022-03-02T09:13:56.213Z</time>
</trkpt>
<trkpt lat="31.3870900" lon="34.8441100">
<ele>382.850006</ele>
<time>2022-03-02T09:13:56.213Z</time>
</trkpt>
<trkpt lat="31.3871700" lon="34.8441700">
<ele>383.119995</ele>
<time>2022-03-02T09:13:56.213Z</time>
</trkpt>
<trkpt lat="31.3872500" lon="34.8442800">
<ele>379.820007</ele>
<time>2022-03-02T09:13:56.214Z</time>
</trkpt>
<trkpt lat="31.3873600" lon="34.8443700">
<ele>375.600006</ele>
<time>2022-03-02T09:13:56.214Z</time>
</trkpt>
<trkpt lat="31.3874600" lon="34.8443800">
<ele>373.319977</ele>
<time>2022-03-02T09:13:56.214Z</time>
</trkpt>
<trkpt lat="31.3877800" lon="34.8442600">
<ele>367.309998</ele>
<time>2022-03-02T09:13:56.214Z</time>
</trkpt>
<trkpt lat="31.3878400" lon="34.8442100">
<ele>366.930023</ele>
<time>2022-03-02T09:13:56.214Z</time>
</trkpt>
<trkpt lat="31.3879000" lon="34.8441100">
<ele>365.420013</ele>
<time>2022-03-02T09:13:56.214Z</time>
</trkpt>
<trkpt lat="31.3879300" lon="34.8439900">
<ele>363.259979</ele>
<time>2022-03-02T09:13:56.214Z</time>
</trkpt>
<trkpt lat="31.3879000" lon="34.8438900">
<ele>362.260010</ele>
<time>2022-03-02T09:13:56.214Z</time>
</trkpt>
<trkpt lat="31.3878600" lon="34.8438500">
<ele>362.350006</ele>
<time>2022-03-02T09:13:56.214Z</time>
</trkpt>
<trkpt lat="31.3876700" lon="34.8437300">
<ele>364.559998</ele>
<time>2022-03-02T09:13:56.214Z</time>
</trkpt>
<trkpt lat="31.3874700" lon="34.8436700">
<ele>367.579987</ele>
<time>2022-03-02T09:13:56.214Z</time>
</trkpt>
<trkpt lat="31.3872700" lon="34.8436600">
<ele>370.769989</ele>
<time>2022-03-02T09:13:56.214Z</time>
</trkpt>
<trkpt lat="31.3871300" lon="34.8436300">
<ele>372.540009</ele>
<time>2022-03-02T09:13:56.214Z</time>
</trkpt>
<trkpt lat="31.3870400" lon="34.8435800">
<ele>373.709991</ele>
<time>2022-03-02T09:13:56.214Z</time>
</trkpt>
<trkpt lat="31.3869200" lon="34.8434800">
<ele>376.359985</ele>
<time>2022-03-02T09:13:56.214Z</time>
</trkpt>
<trkpt lat="31.3867700" lon="34.8432600">
<ele>381.209991</ele>
<time>2022-03-02T09:13:56.214Z</time>
</trkpt>
<trkpt lat="31.3865900" lon="34.8430500">
<ele>382.589996</ele>
<time>2022-03-02T09:13:56.214Z</time>
</trkpt>
<trkpt lat="31.3865100" lon="34.8429300">
<ele>379.839996</ele>
<time>2022-03-02T09:13:56.215Z</time>
</trkpt>
<trkpt lat="31.3865000" lon="34.8427800">
<ele>376.839996</ele>
<time>2022-03-02T09:13:56.215Z</time>
</trkpt>
<trkpt lat="31.3865200" lon="34.8427300">
<ele>376.500000</ele>
<time>2022-03-02T09:13:56.215Z</time>
</trkpt>
<trkpt lat="31.3865800" lon="34.8426600">
<ele>375.639984</ele>
<time>2022-03-02T09:13:56.215Z</time>
</trkpt>
<trkpt lat="31.3867100" lon="34.8425900">
<ele>373.650024</ele>
<time>2022-03-02T09:13:56.215Z</time>
</trkpt>
<trkpt lat="31.3868100" lon="34.8425500">
<ele>371.790009</ele>
<time>2022-03-02T09:13:56.215Z</time>
</trkpt>
<trkpt lat="31.3870100" lon="34.8425100">
<ele>368.359985</ele>
<time>2022-03-02T09:13:56.215Z</time>
</trkpt>
<trkpt lat="31.3870900" lon="34.8424700">
<ele>367.329987</ele>
<time>2022-03-02T09:13:56.215Z</time>
</trkpt>
<trkpt lat="31.3871500" lon="34.8424300">
<ele>366.649994</ele>
<time>2022-03-02T09:13:56.215Z</time>
</trkpt>
<trkpt lat="31.3872600" lon="34.8423000">
<ele>365.569977</ele>
<time>2022-03-02T09:13:56.215Z</time>
</trkpt>
<trkpt lat="31.3873500" lon="34.8422400">
<ele>364.250000</ele>
<time>2022-03-02T09:13:56.215Z</time>
</trkpt>
<trkpt lat="31.3876700" lon="34.8422200">
<ele>360.170013</ele>
<time>2022-03-02T09:13:56.215Z</time>
</trkpt>
<trkpt lat="31.3877400" lon="34.8421700">
<ele>359.600006</ele>
<time>2022-03-02T09:13:56.215Z</time>
</trkpt>
<trkpt lat="31.3878900" lon="34.8419500">
<ele>359.130005</ele>
<time>2022-03-02T09:13:56.215Z</time>
</trkpt>
<trkpt lat="31.3879800" lon="34.8419100">
<ele>358.030029</ele>
<time>2022-03-02T09:13:56.215Z</time>
</trkpt>
<trkpt lat="31.3882200" lon="34.8419900">
<ele>352.769989</ele>
<time>2022-03-02T09:13:56.215Z</time>
</trkpt>
<trkpt lat="31.3883000" lon="34.8419700">
<ele>350.809998</ele>
<time>2022-03-02T09:13:56.215Z</time>
</trkpt>
<trkpt lat="31.3884900" lon="34.8418400">
<ele>350.519989</ele>
<time>2022-03-02T09:13:56.215Z</time>
</trkpt>
<trkpt lat="31.3886000" lon="34.8417000">
<ele>350.150024</ele>
<time>2022-03-02T09:13:56.215Z</time>
</trkpt>
<trkpt lat="31.3886500" lon="34.8416900">
<ele>350.639984</ele>
<time>2022-03-02T09:13:56.215Z</time>
</trkpt>
<trkpt lat="31.3887200" lon="34.8417500">
<ele>351.869995</ele>
<time>2022-03-02T09:13:56.215Z</time>
</trkpt>
<trkpt lat="31.3889100" lon="34.8421000">
<ele>353.280029</ele>
<time>2022-03-02T09:13:56.216Z</time>
</trkpt>
<trkpt lat="31.3889600" lon="34.8421600">
<ele>352.110016</ele>
<time>2022-03-02T09:13:56.216Z</time>
</trkpt>
<trkpt lat="31.3890200" lon="34.8422000">
<ele>350.649994</ele>
<time>2022-03-02T09:13:56.216Z</time>
</trkpt>
<trkpt lat="31.3890900" lon="34.8422200">
<ele>349.170013</ele>
<time>2022-03-02T09:13:56.216Z</time>
</trkpt>
<trkpt lat="31.3891700" lon="34.8422000">
<ele>348.839996</ele>
<time>2022-03-02T09:13:56.216Z</time>
</trkpt>
<trkpt lat="31.3893500" lon="34.8421200">
<ele>348.850006</ele>
<time>2022-03-02T09:13:56.216Z</time>
</trkpt>
<trkpt lat="31.3894200" lon="34.8420600">
<ele>349.019989</ele>
<time>2022-03-02T09:13:56.216Z</time>
</trkpt>
<trkpt lat="31.3896100" lon="34.8416800">
<ele>350.580017</ele>
<time>2022-03-02T09:13:56.216Z</time>
</trkpt>
<trkpt lat="31.3897400" lon="34.8412600">
<ele>344.120026</ele>
<time>2022-03-02T09:13:56.216Z</time>
</trkpt>
<trkpt lat="31.3897400" lon="34.8412600">
<ele>344.120026</ele>
<time>2022-03-02T09:13:56.216Z</time>
</trkpt>
<trkpt lat="31.3897500" lon="34.8412200">
<ele>343.210022</ele>
<time>2022-03-02T09:13:56.216Z</time>
</trkpt>
<trkpt lat="31.3897300" lon="34.8411300">
<ele>341.380005</ele>
<time>2022-03-02T09:13:56.216Z</time>
</trkpt>
<trkpt lat="31.3896900" lon="34.8410700">
<ele>341.100006</ele>
<time>2022-03-02T09:13:56.216Z</time>
</trkpt>
<trkpt lat="31.3895900" lon="34.8410200">
<ele>341.779999</ele>
<time>2022-03-02T09:13:56.216Z</time>
</trkpt>
<trkpt lat="31.3894300" lon="34.8410100">
<ele>342.860016</ele>
<time>2022-03-02T09:13:56.216Z</time>
</trkpt>
<trkpt lat="31.3890200" lon="34.8410900">
<ele>342.109985</ele>
<time>2022-03-02T09:13:56.216Z</time>
</trkpt>
<trkpt lat="31.3886800" lon="34.8410400">
<ele>342.799988</ele>
<time>2022-03-02T09:13:56.216Z</time>
</trkpt>
<trkpt lat="31.3884600" lon="34.8410400">
<ele>342.769989</ele>
<time>2022-03-02T09:13:56.216Z</time>
</trkpt>
<trkpt lat="31.3879900" lon="34.8411200">
<ele>344.149994</ele>
<time>2022-03-02T09:13:56.216Z</time>
</trkpt>
<trkpt lat="31.3876900" lon="34.8411000">
<ele>345.500000</ele>
<time>2022-03-02T09:13:56.216Z</time>
</trkpt>
<trkpt lat="31.3875600" lon="34.8411200">
<ele>348.119995</ele>
<time>2022-03-02T09:13:56.216Z</time>
</trkpt>
<trkpt lat="31.3871500" lon="34.8413700">
<ele>354.439972</ele>
<time>2022-03-02T09:13:56.216Z</time>
</trkpt>
<trkpt lat="31.3869700" lon="34.8415200">
<ele>355.809998</ele>
<time>2022-03-02T09:13:56.216Z</time>
</trkpt>
<trkpt lat="31.3868600" lon="34.8415800">
<ele>357.869995</ele>
<time>2022-03-02T09:13:56.216Z</time>
</trkpt>
<trkpt lat="31.3867800" lon="34.8416000">
<ele>359.270020</ele>
<time>2022-03-02T09:13:56.216Z</time>
</trkpt>
<trkpt lat="31.3867100" lon="34.8415900">
<ele>360.040009</ele>
<time>2022-03-02T09:13:56.216Z</time>
</trkpt>
<trkpt lat="31.3865000" lon="34.8415100">
<ele>362.440002</ele>
<time>2022-03-02T09:13:56.216Z</time>
</trkpt>
<trkpt lat="31.3863900" lon="34.8414400">
<ele>363.080017</ele>
<time>2022-03-02T09:13:56.216Z</time>
</trkpt>
<trkpt lat="31.3863400" lon="34.8413900">
<ele>362.369995</ele>
<time>2022-03-02T09:13:56.216Z</time>
</trkpt>
<trkpt lat="31.3863200" lon="34.8413200">
<ele>362.000000</ele>
<time>2022-03-02T09:13:56.216Z</time>
</trkpt>
<trkpt lat="31.3863600" lon="34.8410100">
<ele>361.190002</ele>
<time>2022-03-02T09:13:56.216Z</time>
</trkpt>
<trkpt lat="31.3864000" lon="34.8408400">
<ele>362.570007</ele>
<time>2022-03-02T09:13:56.216Z</time>
</trkpt>
<trkpt lat="31.3865600" lon="34.8406200">
<ele>359.470001</ele>
<time>2022-03-02T09:13:56.216Z</time>
</trkpt>
<trkpt lat="31.3866000" lon="34.8406000">
<ele>358.480011</ele>
<time>2022-03-02T09:13:56.216Z</time>
</trkpt>
<trkpt lat="31.3867500" lon="34.8406000">
<ele>354.820007</ele>
<time>2022-03-02T09:13:56.216Z</time>
</trkpt>
<trkpt lat="31.3869200" lon="34.8405800">
<ele>351.420013</ele>
<time>2022-03-02T09:13:56.216Z</time>
</trkpt>
<trkpt lat="31.3870200" lon="34.8405400">
<ele>350.079987</ele>
<time>2022-03-02T09:13:56.217Z</time>
</trkpt>
<trkpt lat="31.3871900" lon="34.8404200">
<ele>348.929993</ele>
<time>2022-03-02T09:13:56.217Z</time>
</trkpt>
<trkpt lat="31.3873100" lon="34.8403100">
<ele>347.719971</ele>
<time>2022-03-02T09:13:56.217Z</time>
</trkpt>
<trkpt lat="31.3875700" lon="34.8402000">
<ele>343.329987</ele>
<time>2022-03-02T09:13:56.217Z</time>
</trkpt>
<trkpt lat="31.3877900" lon="34.8400500">
<ele>338.080017</ele>
<time>2022-03-02T09:13:56.217Z</time>
</trkpt>
<trkpt lat="31.3878000" lon="34.8400100">
<ele>338.160004</ele>
<time>2022-03-02T09:13:56.217Z</time>
</trkpt>
<trkpt lat="31.3878000" lon="34.8400000">
<ele>338.160004</ele>
<time>2022-03-02T09:13:56.217Z</time>
</trkpt>
<trkpt lat="31.3878000" lon="34.8400000">
<ele>338.160004</ele>
<time>2022-03-02T09:13:56.217Z</time>
</trkpt>
<trkpt lat="31.3877500" lon="34.8399300">
<ele>339.299988</ele>
<time>2022-03-02T09:13:56.217Z</time>
</trkpt>
<trkpt lat="31.3876300" lon="34.8398900">
<ele>344.139984</ele>
<time>2022-03-02T09:13:56.217Z</time>
</trkpt>
<trkpt lat="31.3874700" lon="34.8398700">
<ele>350.150024</ele>
<time>2022-03-02T09:13:56.217Z</time>
</trkpt>
<trkpt lat="31.3872300" lon="34.8397500">
<ele>358.279999</ele>
<time>2022-03-02T09:13:56.217Z</time>
</trkpt>
<trkpt lat="31.3868300" lon="34.8396300">
<ele>363.279999</ele>
<time>2022-03-02T09:13:56.217Z</time>
</trkpt>
<trkpt lat="31.3867600" lon="34.8395900">
<ele>363.349976</ele>
<time>2022-03-02T09:13:56.217Z</time>
</trkpt>
<trkpt lat="31.3867100" lon="34.8395000">
<ele>363.170013</ele>
<time>2022-03-02T09:13:56.217Z</time>
</trkpt>
<trkpt lat="31.3866000" lon="34.8392300">
<ele>359.830017</ele>
<time>2022-03-02T09:13:56.217Z</time>
</trkpt>
<trkpt lat="31.3865400" lon="34.8391700">
<ele>358.220001</ele>
<time>2022-03-02T09:13:56.217Z</time>
</trkpt>
<trkpt lat="31.3864300" lon="34.8390900">
<ele>355.529999</ele>
<time>2022-03-02T09:13:56.217Z</time>
</trkpt>
<trkpt lat="31.3863400" lon="34.8390800">
<ele>353.700012</ele>
<time>2022-03-02T09:13:56.217Z</time>
</trkpt>
<trkpt lat="31.3862900" lon="34.8391200">
<ele>353.190002</ele>
<time>2022-03-02T09:13:56.217Z</time>
</trkpt>
<trkpt lat="31.3860900" lon="34.8394900">
<ele>353.570007</ele>
<time>2022-03-02T09:13:56.217Z</time>
</trkpt>
<trkpt lat="31.3860600" lon="34.8396600">
<ele>356.040009</ele>
<time>2022-03-02T09:13:56.217Z</time>
</trkpt>
<trkpt lat="31.3860600" lon="34.8397100">
<ele>356.879974</ele>
<time>2022-03-02T09:13:56.217Z</time>
</trkpt>
<trkpt lat="31.3860600" lon="34.8397100">
<ele>356.879974</ele>
<time>2022-03-02T09:13:56.217Z</time>
</trkpt>
<trkpt lat="31.3860600" lon="34.8399500">
<ele>358.200012</ele>
<time>2022-03-02T09:13:56.217Z</time>
</trkpt>
<trkpt lat="31.3860900" lon="34.8402100">
<ele>358.830017</ele>
<time>2022-03-02T09:13:56.217Z</time>
</trkpt>
<trkpt lat="31.3860700" lon="34.8403600">
<ele>359.380005</ele>
<time>2022-03-02T09:13:56.218Z</time>
</trkpt>
<trkpt lat="31.3859800" lon="34.8405700">
<ele>361.100006</ele>
<time>2022-03-02T09:13:56.218Z</time>
</trkpt>
<trkpt lat="31.3859300" lon="34.8406300">
<ele>361.620026</ele>
<time>2022-03-02T09:13:56.218Z</time>
</trkpt>
<trkpt lat="31.3858400" lon="34.8406900">
<ele>362.429993</ele>
<time>2022-03-02T09:13:56.218Z</time>
</trkpt>
<trkpt lat="31.3857800" lon="34.8406900">
<ele>362.250000</ele>
<time>2022-03-02T09:13:56.218Z</time>
</trkpt>
<trkpt lat="31.3857200" lon="34.8406600">
<ele>361.620026</ele>
<time>2022-03-02T09:13:56.218Z</time>
</trkpt>
<trkpt lat="31.3854600" lon="34.8404600">
<ele>358.760010</ele>
<time>2022-03-02T09:13:56.218Z</time>
</trkpt>
<trkpt lat="31.3853400" lon="34.8403300">
<ele>357.630005</ele>
<time>2022-03-02T09:13:56.218Z</time>
</trkpt>
<trkpt lat="31.3852800" lon="34.8402400">
<ele>356.449982</ele>
<time>2022-03-02T09:13:56.218Z</time>
</trkpt>
<trkpt lat="31.3852700" lon="34.8401300">
<ele>354.799988</ele>
<time>2022-03-02T09:13:56.218Z</time>
</trkpt>
<trkpt lat="31.3852500" lon="34.8400600">
<ele>353.639984</ele>
<time>2022-03-02T09:13:56.218Z</time>
</trkpt>
<trkpt lat="31.3851700" lon="34.8399700">
<ele>352.009979</ele>
<time>2022-03-02T09:13:56.218Z</time>
</trkpt>
<trkpt lat="31.3850400" lon="34.8397600">
<ele>349.559998</ele>
<time>2022-03-02T09:13:56.218Z</time>
</trkpt>
<trkpt lat="31.3849800" lon="34.8397600">
<ele>348.799988</ele>
<time>2022-03-02T09:13:56.218Z</time>
</trkpt>
<trkpt lat="31.3849400" lon="34.8398200">
<ele>348.419983</ele>
<time>2022-03-02T09:13:56.218Z</time>
</trkpt>
<trkpt lat="31.3848800" lon="34.8400500">
<ele>349.810028</ele>
<time>2022-03-02T09:13:56.218Z</time>
</trkpt>
<trkpt lat="31.3849000" lon="34.8402900">
<ele>352.800018</ele>
<time>2022-03-02T09:13:56.218Z</time>
</trkpt>
<trkpt lat="31.3849700" lon="34.8404700">
<ele>358.110016</ele>
<time>2022-03-02T09:13:56.218Z</time>
</trkpt>
<trkpt lat="31.3850400" lon="34.8405700">
<ele>361.350006</ele>
<time>2022-03-02T09:13:56.218Z</time>
</trkpt>
<trkpt lat="31.3852000" lon="34.8406800">
<ele>363.510010</ele>
<time>2022-03-02T09:13:56.218Z</time>
</trkpt>
<trkpt lat="31.3852500" lon="34.8407800">
<ele>365.130005</ele>
<time>2022-03-02T09:13:56.218Z</time>
</trkpt>
<trkpt lat="31.3852400" lon="34.8408500">
<ele>365.860016</ele>
<time>2022-03-02T09:13:56.218Z</time>
</trkpt>
<trkpt lat="31.3852000" lon="34.8410800">
<ele>365.470001</ele>
<time>2022-03-02T09:13:56.218Z</time>
</trkpt>
<trkpt lat="31.3851700" lon="34.8411400">
<ele>365.099976</ele>
<time>2022-03-02T09:13:56.218Z</time>
</trkpt>
<trkpt lat="31.3851000" lon="34.8411900">
<ele>364.519989</ele>
<time>2022-03-02T09:13:56.219Z</time>
</trkpt>
<trkpt lat="31.3850400" lon="34.8411900">
<ele>364.209991</ele>
<time>2022-03-02T09:13:56.219Z</time>
</trkpt>
<trkpt lat="31.3847900" lon="34.8410700">
<ele>357.760010</ele>
<time>2022-03-02T09:13:56.219Z</time>
</trkpt>
<trkpt lat="31.3846400" lon="34.8410200">
<ele>352.089996</ele>
<time>2022-03-02T09:13:56.219Z</time>
</trkpt>
<trkpt lat="31.3845500" lon="34.8410300">
<ele>348.600006</ele>
<time>2022-03-02T09:13:56.219Z</time>
</trkpt>
<trkpt lat="31.3844200" lon="34.8410800">
<ele>344.769989</ele>
<time>2022-03-02T09:13:56.219Z</time>
</trkpt>
<trkpt lat="31.3844000" lon="34.8411100">
<ele>344.989990</ele>
<time>2022-03-02T09:13:56.219Z</time>
</trkpt>
<trkpt lat="31.3844000" lon="34.8411100">
<ele>344.989990</ele>
<time>2022-03-02T09:13:56.219Z</time>
</trkpt>
<trkpt lat="31.3843600" lon="34.8411500">
<ele>345.799988</ele>
<time>2022-03-02T09:13:56.219Z</time>
</trkpt>
<trkpt lat="31.3843200" lon="34.8412300">
<ele>347.379974</ele>
<time>2022-03-02T09:13:56.219Z</time>
</trkpt>
<trkpt lat="31.3842600" lon="34.8412600">
<ele>347.859985</ele>
<time>2022-03-02T09:13:56.219Z</time>
</trkpt>
<trkpt lat="31.3842100" lon="34.8412100">
<ele>346.839996</ele>
<time>2022-03-02T09:13:56.219Z</time>
</trkpt>
<trkpt lat="31.3841600" lon="34.8410600">
<ele>344.500000</ele>
<time>2022-03-02T09:13:56.219Z</time>
</trkpt>
<trkpt lat="31.3840900" lon="34.8410000">
<ele>344.350006</ele>
<time>2022-03-02T09:13:56.219Z</time>
</trkpt>
<trkpt lat="31.3840400" lon="34.8409900">
<ele>344.599976</ele>
<time>2022-03-02T09:13:56.219Z</time>
</trkpt>
<trkpt lat="31.3839900" lon="34.8410200">
<ele>345.290009</ele>
<time>2022-03-02T09:13:56.219Z</time>
</trkpt>
<trkpt lat="31.3839900" lon="34.8410800">
<ele>345.940002</ele>
<time>2022-03-02T09:13:56.219Z</time>
</trkpt>
<trkpt lat="31.3840300" lon="34.8412700">
<ele>348.279999</ele>
<time>2022-03-02T09:13:56.219Z</time>
</trkpt>
<trkpt lat="31.3840000" lon="34.8414100">
<ele>350.240021</ele>
<time>2022-03-02T09:13:56.219Z</time>
</trkpt>
<trkpt lat="31.3839300" lon="34.8415200">
<ele>351.149994</ele>
<time>2022-03-02T09:13:56.219Z</time>
</trkpt>
<trkpt lat="31.3838000" lon="34.8416700">
<ele>352.320007</ele>
<time>2022-03-02T09:13:56.219Z</time>
</trkpt>
<trkpt lat="31.3837300" lon="34.8417700">
<ele>352.519989</ele>
<time>2022-03-02T09:13:56.219Z</time>
</trkpt>
<trkpt lat="31.3835700" lon="34.8421300">
<ele>350.710022</ele>
<time>2022-03-02T09:13:56.219Z</time>
</trkpt>
<trkpt lat="31.3834100" lon="34.8423500">
<ele>351.310028</ele>
<time>2022-03-02T09:13:56.219Z</time>
</trkpt>
<trkpt lat="31.3833500" lon="34.8424600">
<ele>351.850006</ele>
<time>2022-03-02T09:13:56.219Z</time>
</trkpt>
<trkpt lat="31.3833500" lon="34.8424600">
<ele>351.850006</ele>
<time>2022-03-02T09:13:56.220Z</time>
</trkpt>
<trkpt lat="31.3834100" lon="34.8423500">
<ele>351.310028</ele>
<time>2022-03-02T09:13:56.220Z</time>
</trkpt>
<trkpt lat="31.3834300" lon="34.8425000">
<ele>351.999969</ele>
<time>2022-03-02T09:13:56.220Z</time>
</trkpt>
<trkpt lat="31.3834300" lon="34.8425900">
<ele>352.649994</ele>
<time>2022-03-02T09:13:56.220Z</time>
</trkpt>
<trkpt lat="31.3834700" lon="34.8427800">
<ele>354.019989</ele>
<time>2022-03-02T09:13:56.220Z</time>
</trkpt>
<trkpt lat="31.3835100" lon="34.8428600">
<ele>354.890015</ele>
<time>2022-03-02T09:13:56.220Z</time>
</trkpt>
<trkpt lat="31.3835500" lon="34.8429000">
<ele>355.320007</ele>
<time>2022-03-02T09:13:56.220Z</time>
</trkpt>
<trkpt lat="31.3836600" lon="34.8429400">
<ele>355.470001</ele>
<time>2022-03-02T09:13:56.220Z</time>
</trkpt>
<trkpt lat="31.3838100" lon="34.8430300">
<ele>355.360016</ele>
<time>2022-03-02T09:13:56.220Z</time>
</trkpt>
<trkpt lat="31.3839200" lon="34.8429900">
<ele>355.110016</ele>
<time>2022-03-02T09:13:56.220Z</time>
</trkpt>
<trkpt lat="31.3840100" lon="34.8429200">
<ele>356.419983</ele>
<time>2022-03-02T09:13:56.220Z</time>
</trkpt>
<trkpt lat="31.3841400" lon="34.8427200">
<ele>358.399994</ele>
<time>2022-03-02T09:13:56.220Z</time>
</trkpt>
<trkpt lat="31.3841800" lon="34.8426700">
<ele>359.380005</ele>
<time>2022-03-02T09:13:56.220Z</time>
</trkpt>
<trkpt lat="31.3842400" lon="34.8426700">
<ele>361.110016</ele>
<time>2022-03-02T09:13:56.220Z</time>
</trkpt>
<trkpt lat="31.3842700" lon="34.8426900">
<ele>361.979980</ele>
<time>2022-03-02T09:13:56.220Z</time>
</trkpt>
<trkpt lat="31.3843000" lon="34.8427700">
<ele>362.839996</ele>
<time>2022-03-02T09:13:56.220Z</time>
</trkpt>
<trkpt lat="31.3843000" lon="34.8430300">
<ele>363.309998</ele>
<time>2022-03-02T09:13:56.220Z</time>
</trkpt>
<trkpt lat="31.3843600" lon="34.8430900">
<ele>364.740021</ele>
<time>2022-03-02T09:13:56.220Z</time>
</trkpt>
<trkpt lat="31.3845200" lon="34.8431100">
<ele>366.169983</ele>
<time>2022-03-02T09:13:56.220Z</time>
</trkpt>
<trkpt lat="31.3846900" lon="34.8431700">
<ele>365.139984</ele>
<time>2022-03-02T09:13:56.220Z</time>
</trkpt>
<trkpt lat="31.3849000" lon="34.8431400">
<ele>366.729980</ele>
<time>2022-03-02T09:13:56.220Z</time>
</trkpt>
<trkpt lat="31.3852200" lon="34.8431900">
<ele>370.660004</ele>
<time>2022-03-02T09:13:56.220Z</time>
</trkpt>
<trkpt lat="31.3853000" lon="34.8431400">
<ele>371.489990</ele>
<time>2022-03-02T09:13:56.220Z</time>
</trkpt>
<trkpt lat="31.3853200" lon="34.8430600">
<ele>371.320007</ele>
<time>2022-03-02T09:13:56.220Z</time>
</trkpt>
<trkpt lat="31.3853200" lon="34.8429800">
<ele>371.219971</ele>
<time>2022-03-02T09:13:56.220Z</time>
</trkpt>
<trkpt lat="31.3852600" lon="34.8426000">
<ele>369.820007</ele>
<time>2022-03-02T09:13:56.220Z</time>
</trkpt>
<trkpt lat="31.3852300" lon="34.8425200">
<ele>369.480011</ele>
<time>2022-03-02T09:13:56.221Z</time>
</trkpt>
<trkpt lat="31.3851300" lon="34.8423700">
<ele>368.130005</ele>
<time>2022-03-02T09:13:56.221Z</time>
</trkpt>
<trkpt lat="31.3850900" lon="34.8422800">
<ele>366.630005</ele>
<time>2022-03-02T09:13:56.221Z</time>
</trkpt>
<trkpt lat="31.3851100" lon="34.8421800">
<ele>365.339996</ele>
<time>2022-03-02T09:13:56.221Z</time>
</trkpt>
<trkpt lat="31.3851500" lon="34.8421100">
<ele>364.869995</ele>
<time>2022-03-02T09:13:56.221Z</time>
</trkpt>
<trkpt lat="31.3852000" lon="34.8420600">
<ele>364.690002</ele>
<time>2022-03-02T09:13:56.221Z</time>
</trkpt>
<trkpt lat="31.3853200" lon="34.8420100">
<ele>365.510010</ele>
<time>2022-03-02T09:13:56.221Z</time>
</trkpt>
<trkpt lat="31.3855300" lon="34.8420200">
<ele>369.519989</ele>
<time>2022-03-02T09:13:56.221Z</time>
</trkpt>
<trkpt lat="31.3855900" lon="34.8420300">
<ele>370.239990</ele>
<time>2022-03-02T09:13:56.221Z</time>
</trkpt>
<trkpt lat="31.3856500" lon="34.8420700">
<ele>370.799988</ele>
<time>2022-03-02T09:13:56.221Z</time>
</trkpt>
<trkpt lat="31.3856800" lon="34.8421400">
<ele>371.389984</ele>
<time>2022-03-02T09:13:56.221Z</time>
</trkpt>
<trkpt lat="31.3856700" lon="34.8422500">
<ele>371.730011</ele>
<time>2022-03-02T09:13:56.221Z</time>
</trkpt>
<trkpt lat="31.3855300" lon="34.8424600">
<ele>369.880005</ele>
<time>2022-03-02T09:13:56.222Z</time>
</trkpt>
<trkpt lat="31.3855000" lon="34.8425400">
<ele>369.970001</ele>
<time>2022-03-02T09:13:56.222Z</time>
</trkpt>
<trkpt lat="31.3854800" lon="34.8426900">
<ele>370.600006</ele>
<time>2022-03-02T09:13:56.222Z</time>
</trkpt>
<trkpt lat="31.3854900" lon="34.8428000">
<ele>371.119995</ele>
<time>2022-03-02T09:13:56.222Z</time>
</trkpt>
<trkpt lat="31.3855700" lon="34.8430000">
<ele>372.719971</ele>
<time>2022-03-02T09:13:56.222Z</time>
</trkpt>
<trkpt lat="31.3855900" lon="34.8431300">
<ele>373.850006</ele>
<time>2022-03-02T09:13:56.222Z</time>
</trkpt>
<trkpt lat="31.3855300" lon="34.8433600">
<ele>374.910004</ele>
<time>2022-03-02T09:13:56.222Z</time>
</trkpt>
<trkpt lat="31.3854800" lon="34.8434700">
<ele>375.029968</ele>
<time>2022-03-02T09:13:56.222Z</time>
</trkpt>
<trkpt lat="31.3853200" lon="34.8436100">
<ele>373.600006</ele>
<time>2022-03-02T09:13:56.222Z</time>
</trkpt>
<trkpt lat="31.3851200" lon="34.8438700">
<ele>376.720001</ele>
<time>2022-03-02T09:13:56.222Z</time>
</trkpt>
<trkpt lat="31.3851200" lon="34.8438700">
<ele>376.720001</ele>
<time>2022-03-02T09:13:56.222Z</time>
</trkpt>
<trkpt lat="31.3850700" lon="34.8439300">
<ele>377.220001</ele>
<time>2022-03-02T09:13:56.222Z</time>
</trkpt>
<trkpt lat="31.3848200" lon="34.8444800">
<ele>389.529999</ele>
<time>2022-03-02T09:13:56.222Z</time>
</trkpt>
<trkpt lat="31.3848200" lon="34.8445600">
<ele>389.910004</ele>
<time>2022-03-02T09:13:56.222Z</time>
</trkpt>
<trkpt lat="31.3848400" lon="34.8446900">
<ele>390.679993</ele>
<time>2022-03-02T09:13:56.222Z</time>
</trkpt>
<trkpt lat="31.3848900" lon="34.8448000">
<ele>390.990021</ele>
<time>2022-03-02T09:13:56.222Z</time>
</trkpt>
<trkpt lat="31.3851700" lon="34.8451500">
<ele>395.390015</ele>
<time>2022-03-02T09:13:56.222Z</time>
</trkpt>
<trkpt lat="31.3852400" lon="34.8452200">
<ele>397.000000</ele>
<time>2022-03-02T09:13:56.222Z</time>
</trkpt>
<trkpt lat="31.3854000" lon="34.8452900">
<ele>398.619995</ele>
<time>2022-03-02T09:13:56.222Z</time>
</trkpt>
<trkpt lat="31.3854800" lon="34.8453500">
<ele>399.649994</ele>
<time>2022-03-02T09:13:56.223Z</time>
</trkpt>
<trkpt lat="31.3855900" lon="34.8454500">
<ele>400.739990</ele>
<time>2022-03-02T09:13:56.223Z</time>
</trkpt>
<trkpt lat="31.3857300" lon="34.8456300">
<ele>401.209991</ele>
<time>2022-03-02T09:13:56.223Z</time>
</trkpt>
<trkpt lat="31.3857900" lon="34.8457100">
<ele>401.659973</ele>
<time>2022-03-02T09:13:56.223Z</time>
</trkpt>
<trkpt lat="31.3858500" lon="34.8459300">
<ele>402.739990</ele>
<time>2022-03-02T09:13:56.223Z</time>
</trkpt>
<trkpt lat="31.3858700" lon="34.8460400">
<ele>402.540009</ele>
<time>2022-03-02T09:13:56.223Z</time>
</trkpt>
<trkpt lat="31.3858700" lon="34.8460500">
<ele>402.550018</ele>
<time>2022-03-02T09:13:56.223Z</time>
</trkpt>
<trkpt lat="31.3860400" lon="34.8461900">
<ele>400.480011</ele>
<time>2022-03-02T09:13:56.223Z</time>
</trkpt>
<trkpt lat="31.3862500" lon="34.8465100">
<ele>398.850006</ele>
<time>2022-03-02T09:13:56.223Z</time>
</trkpt>
<trkpt lat="31.3863600" lon="34.8467200">
<ele>397.660004</ele>
<time>2022-03-02T09:13:56.223Z</time>
</trkpt>
<trkpt lat="31.3864000" lon="34.8468200">
<ele>396.630005</ele>
<time>2022-03-02T09:13:56.223Z</time>
</trkpt>
<trkpt lat="31.3864100" lon="34.8469100">
<ele>395.730011</ele>
<time>2022-03-02T09:13:56.223Z</time>
</trkpt>
<trkpt lat="31.3864000" lon="34.8470000">
<ele>395.339996</ele>
<time>2022-03-02T09:13:56.223Z</time>
</trkpt>
<trkpt lat="31.3864000" lon="34.8470000">
<ele>395.339996</ele>
<time>2022-03-02T09:13:56.223Z</time>
</trkpt>
<trkpt lat="31.3864000" lon="34.8470000">
<ele>395.339996</ele>
<time>2022-03-02T09:13:56.223Z</time>
</trkpt>
<trkpt lat="31.3863200" lon="34.8472400">
<ele>395.040009</ele>
<time>2022-03-02T09:13:56.223Z</time>
</trkpt>
<trkpt lat="31.3862600" lon="34.8473600">
<ele>396.119995</ele>
<time>2022-03-02T09:13:56.223Z</time>
</trkpt>
<trkpt lat="31.3862200" lon="34.8474200">
<ele>396.709991</ele>
<time>2022-03-02T09:13:56.223Z</time>
</trkpt>
<trkpt lat="31.3860800" lon="34.8475700">
<ele>398.000000</ele>
<time>2022-03-02T09:13:56.223Z</time>
</trkpt>
<trkpt lat="31.3860000" lon="34.8475900">
<ele>399.210022</ele>
<time>2022-03-02T09:13:56.223Z</time>
</trkpt>
<trkpt lat="31.3860000" lon="34.8475100">
<ele>399.559998</ele>
<time>2022-03-02T09:13:56.223Z</time>
</trkpt>
<trkpt lat="31.3861300" lon="34.8474000">
<ele>397.769989</ele>
<time>2022-03-02T09:13:56.223Z</time>
</trkpt>
<trkpt lat="31.3861300" lon="34.8473000">
<ele>397.750000</ele>
<time>2022-03-02T09:13:56.223Z</time>
</trkpt>
<trkpt lat="31.3861200" lon="34.8472300">
<ele>397.869995</ele>
<time>2022-03-02T09:13:56.223Z</time>
</trkpt>
<trkpt lat="31.3860600" lon="34.8471900">
<ele>398.510010</ele>
<time>2022-03-02T09:13:56.223Z</time>
</trkpt>
<trkpt lat="31.3860000" lon="34.8472200">
<ele>399.190002</ele>
<time>2022-03-02T09:13:56.223Z</time>
</trkpt>
<trkpt lat="31.3858500" lon="34.8475100">
<ele>401.760010</ele>
<time>2022-03-02T09:13:56.224Z</time>
</trkpt>
<trkpt lat="31.3857700" lon="34.8476200">
<ele>402.550018</ele>
<time>2022-03-02T09:13:56.224Z</time>
</trkpt>
<trkpt lat="31.3857000" lon="34.8476500">
<ele>403.220001</ele>
<time>2022-03-02T09:13:56.224Z</time>
</trkpt>
<trkpt lat="31.3856400" lon="34.8476100">
<ele>403.669983</ele>
<time>2022-03-02T09:13:56.224Z</time>
</trkpt>
<trkpt lat="31.3855700" lon="34.8474600">
<ele>403.480011</ele>
<time>2022-03-02T09:13:56.224Z</time>
</trkpt>
<trkpt lat="31.3855500" lon="34.8473800">
<ele>402.800018</ele>
<time>2022-03-02T09:13:56.224Z</time>
</trkpt>
<trkpt lat="31.3855500" lon="34.8473800">
<ele>402.800018</ele>
<time>2022-03-02T09:13:56.224Z</time>
</trkpt>
<trkpt lat="31.3853500" lon="34.8470900">
<ele>405.829987</ele>
<time>2022-03-02T09:13:56.224Z</time>
</trkpt>
<trkpt lat="31.3851500" lon="34.8469000">
<ele>408.070007</ele>
<time>2022-03-02T09:13:56.224Z</time>
</trkpt>
<trkpt lat="31.3850400" lon="34.8467600">
<ele>409.850006</ele>
<time>2022-03-02T09:13:56.224Z</time>
</trkpt>
<trkpt lat="31.3849700" lon="34.8467200">
<ele>410.940002</ele>
<time>2022-03-02T09:13:56.224Z</time>
</trkpt>
<trkpt lat="31.3848300" lon="34.8466800">
<ele>412.270020</ele>
<time>2022-03-02T09:13:56.224Z</time>
</trkpt>
<trkpt lat="31.3847100" lon="34.8466700">
<ele>412.999969</ele>
<time>2022-03-02T09:13:56.224Z</time>
</trkpt>
<trkpt lat="31.3842800" lon="34.8466800">
<ele>409.579987</ele>
<time>2022-03-02T09:13:56.224Z</time>
</trkpt>
<trkpt lat="31.3840500" lon="34.8467400">
<ele>409.109985</ele>
<time>2022-03-02T09:13:56.224Z</time>
</trkpt>
<trkpt lat="31.3839800" lon="34.8468000">
<ele>410.770020</ele>
<time>2022-03-02T09:13:56.224Z</time>
</trkpt>
<trkpt lat="31.3839800" lon="34.8468100">
<ele>411.150024</ele>
<time>2022-03-02T09:13:56.224Z</time>
</trkpt>
<trkpt lat="31.3839800" lon="34.8468100">
<ele>411.150024</ele>
<time>2022-03-02T09:13:56.224Z</time>
</trkpt>
<trkpt lat="31.3839500" lon="34.8468700">
<ele>413.080017</ele>
<time>2022-03-02T09:13:56.224Z</time>
</trkpt>
<trkpt lat="31.3839500" lon="34.8469800">
<ele>417.620026</ele>
<time>2022-03-02T09:13:56.224Z</time>
</trkpt>
<trkpt lat="31.3840300" lon="34.8471200">
<ele>425.240021</ele>
<time>2022-03-02T09:13:56.224Z</time>
</trkpt>
<trkpt lat="31.3841000" lon="34.8472100">
<ele>429.970001</ele>
<time>2022-03-02T09:13:56.225Z</time>
</trkpt>
<trkpt lat="31.3841700" lon="34.8472600">
<ele>430.360016</ele>
<time>2022-03-02T09:13:56.225Z</time>
</trkpt>
<trkpt lat="31.3844000" lon="34.8473900">
<ele>425.079987</ele>
<time>2022-03-02T09:13:56.225Z</time>
</trkpt>
<trkpt lat="31.3845400" lon="34.8474200">
<ele>422.150024</ele>
<time>2022-03-02T09:13:56.225Z</time>
</trkpt>
<trkpt lat="31.3846100" lon="34.8474700">
<ele>420.459991</ele>
<time>2022-03-02T09:13:56.225Z</time>
</trkpt>
<trkpt lat="31.3848300" lon="34.8477500">
<ele>415.290009</ele>
<time>2022-03-02T09:13:56.225Z</time>
</trkpt>
<trkpt lat="31.3849800" lon="34.8479000">
<ele>414.230011</ele>
<time>2022-03-02T09:13:56.225Z</time>
</trkpt>
<trkpt lat="31.3849900" lon="34.8479600">
<ele>414.499969</ele>
<time>2022-03-02T09:13:56.225Z</time>
</trkpt>
<trkpt lat="31.3849200" lon="34.8480500">
<ele>416.680023</ele>
<time>2022-03-02T09:13:56.225Z</time>
</trkpt>
<trkpt lat="31.3849400" lon="34.8482500">
<ele>416.839996</ele>
<time>2022-03-02T09:13:56.225Z</time>
</trkpt>
<trkpt lat="31.3849200" lon="34.8483500">
<ele>417.440002</ele>
<time>2022-03-02T09:13:56.225Z</time>
</trkpt>
<trkpt lat="31.3848900" lon="34.8484200">
<ele>417.979980</ele>
<time>2022-03-02T09:13:56.225Z</time>
</trkpt>
<trkpt lat="31.3848400" lon="34.8484800">
<ele>418.880005</ele>
<time>2022-03-02T09:13:56.225Z</time>
</trkpt>
<trkpt lat="31.3847300" lon="34.8485200">
<ele>420.860016</ele>
<time>2022-03-02T09:13:56.225Z</time>
</trkpt>
<trkpt lat="31.3844600" lon="34.8485400">
<ele>422.399994</ele>
<time>2022-03-02T09:13:56.225Z</time>
</trkpt>
<trkpt lat="31.3840400" lon="34.8486200">
<ele>423.019989</ele>
<time>2022-03-02T09:13:56.225Z</time>
</trkpt>
<trkpt lat="31.3838200" lon="34.8487200">
<ele>421.850006</ele>
<time>2022-03-02T09:13:56.225Z</time>
</trkpt>
<trkpt lat="31.3837300" lon="34.8487700">
<ele>420.960022</ele>
<time>2022-03-02T09:13:56.225Z</time>
</trkpt>
<trkpt lat="31.3837100" lon="34.8488000">
<ele>421.119995</ele>
<time>2022-03-02T09:13:56.225Z</time>
</trkpt>
<trkpt lat="31.3837100" lon="34.8488000">
<ele>421.119995</ele>
<time>2022-03-02T09:13:56.225Z</time>
</trkpt>
<trkpt lat="31.3836700" lon="34.8488400">
<ele>421.380005</ele>
<time>2022-03-02T09:13:56.225Z</time>
</trkpt>
<trkpt lat="31.3836300" lon="34.8489400">
<ele>423.690002</ele>
<time>2022-03-02T09:13:56.225Z</time>
</trkpt>
<trkpt lat="31.3836300" lon="34.8490200">
<ele>426.220001</ele>
<time>2022-03-02T09:13:56.225Z</time>
</trkpt>
<trkpt lat="31.3837300" lon="34.8495100">
<ele>435.909973</ele>
<time>2022-03-02T09:13:56.225Z</time>
</trkpt>
<trkpt lat="31.3837300" lon="34.8495900">
<ele>437.019989</ele>
<time>2022-03-02T09:13:56.225Z</time>
</trkpt>
<trkpt lat="31.3837100" lon="34.8496600">
<ele>437.879974</ele>
<time>2022-03-02T09:13:56.225Z</time>
</trkpt>
<trkpt lat="31.3836500" lon="34.8497300">
<ele>438.420013</ele>
<time>2022-03-02T09:13:56.225Z</time>
</trkpt>
<trkpt lat="31.3835800" lon="34.8497800">
<ele>438.949982</ele>
<time>2022-03-02T09:13:56.225Z</time>
</trkpt>
<trkpt lat="31.3833700" lon="34.8498300">
<ele>439.410004</ele>
<time>2022-03-02T09:13:56.225Z</time>
</trkpt>
<trkpt lat="31.3832900" lon="34.8498100">
<ele>439.410004</ele>
<time>2022-03-02T09:13:56.225Z</time>
</trkpt>
<trkpt lat="31.3829900" lon="34.8495900">
<ele>432.349976</ele>
<time>2022-03-02T09:13:56.225Z</time>
</trkpt>
<trkpt lat="31.3828600" lon="34.8495400">
<ele>429.600006</ele>
<time>2022-03-02T09:13:56.225Z</time>
</trkpt>
<trkpt lat="31.3826900" lon="34.8495200">
<ele>428.059998</ele>
<time>2022-03-02T09:13:56.226Z</time>
</trkpt>
<trkpt lat="31.3824400" lon="34.8495400">
<ele>429.869995</ele>
<time>2022-03-02T09:13:56.226Z</time>
</trkpt>
<trkpt lat="31.3823200" lon="34.8495800">
<ele>434.480011</ele>
<time>2022-03-02T09:13:56.226Z</time>
</trkpt>
<trkpt lat="31.3822400" lon="34.8496300">
<ele>439.700012</ele>
<time>2022-03-02T09:13:56.226Z</time>
</trkpt>
<trkpt lat="31.3821500" lon="34.8497200">
<ele>444.630005</ele>
<time>2022-03-02T09:13:56.226Z</time>
</trkpt>
<trkpt lat="31.3820500" lon="34.8498900">
<ele>450.849976</ele>
<time>2022-03-02T09:13:56.226Z</time>
</trkpt>
<trkpt lat="31.3820200" lon="34.8499900">
<ele>456.549988</ele>
<time>2022-03-02T09:13:56.226Z</time>
</trkpt>
<trkpt lat="31.3820300" lon="34.8501300">
<ele>460.579987</ele>
<time>2022-03-02T09:13:56.226Z</time>
</trkpt>
<trkpt lat="31.3821300" lon="34.8503500">
<ele>464.880005</ele>
<time>2022-03-02T09:13:56.226Z</time>
</trkpt>
<trkpt lat="31.3821700" lon="34.8504600">
<ele>464.979980</ele>
<time>2022-03-02T09:13:56.226Z</time>
</trkpt>
<trkpt lat="31.3821700" lon="34.8505400">
<ele>464.150024</ele>
<time>2022-03-02T09:13:56.226Z</time>
</trkpt>
<trkpt lat="31.3821600" lon="34.8506200">
<ele>461.459991</ele>
<time>2022-03-02T09:13:56.227Z</time>
</trkpt>
<trkpt lat="31.3821200" lon="34.8506700">
<ele>458.049988</ele>
<time>2022-03-02T09:13:56.227Z</time>
</trkpt>
<trkpt lat="31.3819500" lon="34.8508300">
<ele>448.220001</ele>
<time>2022-03-02T09:13:56.227Z</time>
</trkpt>
<trkpt lat="31.3819100" lon="34.8509100">
<ele>443.959991</ele>
<time>2022-03-02T09:13:56.227Z</time>
</trkpt>
<trkpt lat="31.3819000" lon="34.8510000">
<ele>440.659973</ele>
<time>2022-03-02T09:13:56.227Z</time>
</trkpt>
<trkpt lat="31.3819000" lon="34.8510800">
<ele>438.049988</ele>
<time>2022-03-02T09:13:56.227Z</time>
</trkpt>
<trkpt lat="31.3819400" lon="34.8511900">
<ele>438.760010</ele>
<time>2022-03-02T09:13:56.227Z</time>
</trkpt>
<trkpt lat="31.3819900" lon="34.8512500">
<ele>441.880005</ele>
<time>2022-03-02T09:13:56.227Z</time>
</trkpt>
<trkpt lat="31.3821300" lon="34.8514100">
<ele>449.070007</ele>
<time>2022-03-02T09:13:56.227Z</time>
</trkpt>
<trkpt lat="31.3826000" lon="34.8518500">
<ele>458.020020</ele>
<time>2022-03-02T09:13:56.227Z</time>
</trkpt>
<trkpt lat="31.3826500" lon="34.8519500">
<ele>458.670013</ele>
<time>2022-03-02T09:13:56.227Z</time>
</trkpt>
<trkpt lat="31.3826500" lon="34.8520100">
<ele>458.389984</ele>
<time>2022-03-02T09:13:56.227Z</time>
</trkpt>
<trkpt lat="31.3826200" lon="34.8520700">
<ele>457.329987</ele>
<time>2022-03-02T09:13:56.227Z</time>
</trkpt>
<trkpt lat="31.3825700" lon="34.8521200">
<ele>455.529999</ele>
<time>2022-03-02T09:13:56.227Z</time>
</trkpt>
<trkpt lat="31.3824900" lon="34.8521500">
<ele>452.890015</ele>
<time>2022-03-02T09:13:56.227Z</time>
</trkpt>
<trkpt lat="31.3824500" lon="34.8521500">
<ele>452.269989</ele>
<time>2022-03-02T09:13:56.227Z</time>
</trkpt>
<trkpt lat="31.3824500" lon="34.8521500">
<ele>452.269989</ele>
<time>2022-03-02T09:13:56.227Z</time>
</trkpt>
<trkpt lat="31.3816300" lon="34.8522800">
<ele>450.159973</ele>
<time>2022-03-02T09:13:56.227Z</time>
</trkpt>
<trkpt lat="31.3815200" lon="34.8523200">
<ele>450.220001</ele>
<time>2022-03-02T09:13:56.227Z</time>
</trkpt>
<trkpt lat="31.3814400" lon="34.8523800">
<ele>450.880005</ele>
<time>2022-03-02T09:13:56.227Z</time>
</trkpt>
<trkpt lat="31.3813900" lon="34.8524200">
<ele>451.279999</ele>
<time>2022-03-02T09:13:56.227Z</time>
</trkpt>
<trkpt lat="31.3812400" lon="34.8526800">
<ele>452.479980</ele>
<time>2022-03-02T09:13:56.227Z</time>
</trkpt>
<trkpt lat="31.3810300" lon="34.8531600">
<ele>454.699982</ele>
<time>2022-03-02T09:13:56.227Z</time>
</trkpt>
<trkpt lat="31.3809500" lon="34.8535100">
<ele>453.679993</ele>
<time>2022-03-02T09:13:56.227Z</time>
</trkpt>
<trkpt lat="31.3808900" lon="34.8539600">
<ele>454.160004</ele>
<time>2022-03-02T09:13:56.227Z</time>
</trkpt>
<trkpt lat="31.3808100" lon="34.8542400">
<ele>455.959991</ele>
<time>2022-03-02T09:13:56.227Z</time>
</trkpt>
<trkpt lat="31.3807400" lon="34.8544200">
<ele>456.270020</ele>
<time>2022-03-02T09:13:56.227Z</time>
</trkpt>
<trkpt lat="31.3806700" lon="34.8545600">
<ele>457.109985</ele>
<time>2022-03-02T09:13:56.227Z</time>
</trkpt>
<trkpt lat="31.3806200" lon="34.8546100">
<ele>457.239990</ele>
<time>2022-03-02T09:13:56.227Z</time>
</trkpt>
<trkpt lat="31.3805200" lon="34.8546400">
<ele>458.350006</ele>
<time>2022-03-02T09:13:56.228Z</time>
</trkpt>
<trkpt lat="31.3803200" lon="34.8546000">
<ele>464.979980</ele>
<time>2022-03-02T09:13:56.228Z</time>
</trkpt>
<trkpt lat="31.3802400" lon="34.8545700">
<ele>467.230011</ele>
<time>2022-03-02T09:13:56.228Z</time>
</trkpt>
<trkpt lat="31.3801400" lon="34.8544900">
<ele>469.010010</ele>
<time>2022-03-02T09:13:56.228Z</time>
</trkpt>
<trkpt lat="31.3800600" lon="34.8543800">
<ele>469.420013</ele>
<time>2022-03-02T09:13:56.228Z</time>
</trkpt>
<trkpt lat="31.3800500" lon="34.8543600">
<ele>469.370026</ele>
<time>2022-03-02T09:13:56.228Z</time>
</trkpt>
<trkpt lat="31.3800500" lon="34.8543600">
<ele>469.370026</ele>
<time>2022-03-02T09:13:56.228Z</time>
</trkpt>
<trkpt lat="31.3799200" lon="34.8540000">
<ele>468.390015</ele>
<time>2022-03-02T09:13:56.228Z</time>
</trkpt>
<trkpt lat="31.3796700" lon="34.8535200">
<ele>470.179993</ele>
<time>2022-03-02T09:13:56.228Z</time>
</trkpt>
<trkpt lat="31.3795600" lon="34.8532200">
<ele>468.319977</ele>
<time>2022-03-02T09:13:56.228Z</time>
</trkpt>
<trkpt lat="31.3794700" lon="34.8530600">
<ele>471.369995</ele>
<time>2022-03-02T09:13:56.228Z</time>
</trkpt>
<trkpt lat="31.3793400" lon="34.8529100">
<ele>474.369995</ele>
<time>2022-03-02T09:13:56.228Z</time>
</trkpt>
<trkpt lat="31.3792900" lon="34.8528100">
<ele>475.490021</ele>
<time>2022-03-02T09:13:56.228Z</time>
</trkpt>
<trkpt lat="31.3792700" lon="34.8526300">
<ele>475.159973</ele>
<time>2022-03-02T09:13:56.228Z</time>
</trkpt>
<trkpt lat="31.3792900" lon="34.8525300">
<ele>473.740021</ele>
<time>2022-03-02T09:13:56.228Z</time>
</trkpt>
<trkpt lat="31.3794100" lon="34.8522600">
<ele>472.269989</ele>
<time>2022-03-02T09:13:56.228Z</time>
</trkpt>
<trkpt lat="31.3794500" lon="34.8521200">
<ele>469.850006</ele>
<time>2022-03-02T09:13:56.228Z</time>
</trkpt>
<trkpt lat="31.3794700" lon="34.8519400">
<ele>465.679993</ele>
<time>2022-03-02T09:13:56.228Z</time>
</trkpt>
<trkpt lat="31.3794600" lon="34.8518100">
<ele>465.220001</ele>
<time>2022-03-02T09:13:56.228Z</time>
</trkpt>
<trkpt lat="31.3794000" lon="34.8516900">
<ele>467.369995</ele>
<time>2022-03-02T09:13:56.228Z</time>
</trkpt>
<trkpt lat="31.3793300" lon="34.8516100">
<ele>470.600006</ele>
<time>2022-03-02T09:13:56.229Z</time>
</trkpt>
<trkpt lat="31.3791400" lon="34.8514400">
<ele>478.199982</ele>
<time>2022-03-02T09:13:56.229Z</time>
</trkpt>
<trkpt lat="31.3790500" lon="34.8513400">
<ele>478.889984</ele>
<time>2022-03-02T09:13:56.229Z</time>
</trkpt>
<trkpt lat="31.3790100" lon="34.8512400">
<ele>476.549988</ele>
<time>2022-03-02T09:13:56.229Z</time>
</trkpt>
<trkpt lat="31.3789800" lon="34.8510500">
<ele>471.160004</ele>
<time>2022-03-02T09:13:56.229Z</time>
</trkpt>
<trkpt lat="31.3789700" lon="34.8508700">
<ele>465.940002</ele>
<time>2022-03-02T09:13:56.229Z</time>
</trkpt>
<trkpt lat="31.3789800" lon="34.8505900">
<ele>456.799988</ele>
<time>2022-03-02T09:13:56.229Z</time>
</trkpt>
<trkpt lat="31.3789600" lon="34.8503000">
<ele>453.889984</ele>
<time>2022-03-02T09:13:56.229Z</time>
</trkpt>
<trkpt lat="31.3789200" lon="34.8501300">
<ele>455.250031</ele>
<time>2022-03-02T09:13:56.229Z</time>
</trkpt>
<trkpt lat="31.3787600" lon="34.8496300">
<ele>462.549988</ele>
<time>2022-03-02T09:13:56.229Z</time>
</trkpt>
<trkpt lat="31.3787200" lon="34.8493400">
<ele>462.140015</ele>
<time>2022-03-02T09:13:56.229Z</time>
</trkpt>
<trkpt lat="31.3787400" lon="34.8490800">
<ele>460.309998</ele>
<time>2022-03-02T09:13:56.229Z</time>
</trkpt>
<trkpt lat="31.3788200" lon="34.8487700">
<ele>457.369995</ele>
<time>2022-03-02T09:13:56.229Z</time>
</trkpt>
<trkpt lat="31.3788200" lon="34.8487700">
<ele>457.369995</ele>
<time>2022-03-02T09:13:56.229Z</time>
</trkpt>
<trkpt lat="31.3788300" lon="34.8487200">
<ele>457.290009</ele>
<time>2022-03-02T09:13:56.229Z</time>
</trkpt>
<trkpt lat="31.3789400" lon="34.8484300">
<ele>455.580017</ele>
<time>2022-03-02T09:13:56.229Z</time>
</trkpt>
<trkpt lat="31.3790400" lon="34.8482700">
<ele>453.580017</ele>
<time>2022-03-02T09:13:56.229Z</time>
</trkpt>
<trkpt lat="31.3791000" lon="34.8482200">
<ele>452.190002</ele>
<time>2022-03-02T09:13:56.229Z</time>
</trkpt>
<trkpt lat="31.3791300" lon="34.8481400">
<ele>452.089996</ele>
<time>2022-03-02T09:13:56.229Z</time>
</trkpt>
<trkpt lat="31.3790800" lon="34.8481100">
<ele>453.720001</ele>
<time>2022-03-02T09:13:56.229Z</time>
</trkpt>
<trkpt lat="31.3789800" lon="34.8481600">
<ele>456.079987</ele>
<time>2022-03-02T09:13:56.229Z</time>
</trkpt>
<trkpt lat="31.3788900" lon="34.8482300">
<ele>458.339996</ele>
<time>2022-03-02T09:13:56.229Z</time>
</trkpt>
<trkpt lat="31.3788500" lon="34.8481100">
<ele>459.140015</ele>
<time>2022-03-02T09:13:56.229Z</time>
</trkpt>
<trkpt lat="31.3787800" lon="34.8479900">
<ele>459.640015</ele>
<time>2022-03-02T09:13:56.229Z</time>
</trkpt>
<trkpt lat="31.3787100" lon="34.8479100">
<ele>460.099976</ele>
<time>2022-03-02T09:13:56.230Z</time>
</trkpt>
<trkpt lat="31.3786300" lon="34.8478900">
<ele>460.819977</ele>
<time>2022-03-02T09:13:56.230Z</time>
</trkpt>
<trkpt lat="31.3782200" lon="34.8479200">
<ele>464.840027</ele>
<time>2022-03-02T09:13:56.230Z</time>
</trkpt>
<trkpt lat="31.3778200" lon="34.8480300">
<ele>469.209991</ele>
<time>2022-03-02T09:13:56.230Z</time>
</trkpt>
<trkpt lat="31.3775200" lon="34.8480900">
<ele>471.099976</ele>
<time>2022-03-02T09:13:56.230Z</time>
</trkpt>
<trkpt lat="31.3774100" lon="34.8481300">
<ele>470.079987</ele>
<time>2022-03-02T09:13:56.230Z</time>
</trkpt>
<trkpt lat="31.3773200" lon="34.8481800">
<ele>469.720032</ele>
<time>2022-03-02T09:13:56.230Z</time>
</trkpt>
<trkpt lat="31.3772600" lon="34.8482600">
<ele>471.619995</ele>
<time>2022-03-02T09:13:56.230Z</time>
</trkpt>
<trkpt lat="31.3773300" lon="34.8482900">
<ele>474.250000</ele>
<time>2022-03-02T09:13:56.230Z</time>
</trkpt>
<trkpt lat="31.3779600" lon="34.8481500">
<ele>470.839996</ele>
<time>2022-03-02T09:13:56.230Z</time>
</trkpt>
<trkpt lat="31.3780300" lon="34.8481600">
<ele>470.470001</ele>
<time>2022-03-02T09:13:56.230Z</time>
</trkpt>
<trkpt lat="31.3782600" lon="34.8482300">
<ele>467.629974</ele>
<time>2022-03-02T09:13:56.230Z</time>
</trkpt>
<trkpt lat="31.3783100" lon="34.8482800">
<ele>467.529999</ele>
<time>2022-03-02T09:13:56.230Z</time>
</trkpt>
<trkpt lat="31.3783600" lon="34.8483600">
<ele>467.709991</ele>
<time>2022-03-02T09:13:56.230Z</time>
</trkpt>
<trkpt lat="31.3783600" lon="34.8484100">
<ele>468.250000</ele>
<time>2022-03-02T09:13:56.230Z</time>
</trkpt>
<trkpt lat="31.3783500" lon="34.8485000">
<ele>469.440002</ele>
<time>2022-03-02T09:13:56.230Z</time>
</trkpt>
<trkpt lat="31.3783000" lon="34.8486400">
<ele>472.820007</ele>
<time>2022-03-02T09:13:56.230Z</time>
</trkpt>
<trkpt lat="31.3782400" lon="34.8490000">
<ele>481.360016</ele>
<time>2022-03-02T09:13:56.230Z</time>
</trkpt>
<trkpt lat="31.3782300" lon="34.8492900">
<ele>481.390015</ele>
<time>2022-03-02T09:13:56.230Z</time>
</trkpt>
<trkpt lat="31.3782300" lon="34.8492900">
<ele>481.390015</ele>
<time>2022-03-02T09:13:56.230Z</time>
</trkpt>
<trkpt lat="31.3782300" lon="34.8493500">
<ele>481.179993</ele>
<time>2022-03-02T09:13:56.230Z</time>
</trkpt>
<trkpt lat="31.3782400" lon="34.8494700">
<ele>480.429993</ele>
<time>2022-03-02T09:13:56.230Z</time>
</trkpt>
<trkpt lat="31.3783400" lon="34.8497800">
<ele>478.429993</ele>
<time>2022-03-02T09:13:56.230Z</time>
</trkpt>
<trkpt lat="31.3784800" lon="34.8503500">
<ele>477.389984</ele>
<time>2022-03-02T09:13:56.230Z</time>
</trkpt>
<trkpt lat="31.3785100" lon="34.8505100">
<ele>476.809998</ele>
<time>2022-03-02T09:13:56.230Z</time>
</trkpt>
<trkpt lat="31.3784400" lon="34.8505900">
<ele>479.350006</ele>
<time>2022-03-02T09:13:56.231Z</time>
</trkpt>
<trkpt lat="31.3783600" lon="34.8506300">
<ele>482.059998</ele>
<time>2022-03-02T09:13:56.231Z</time>
</trkpt>
<trkpt lat="31.3782300" lon="34.8506500">
<ele>485.130005</ele>
<time>2022-03-02T09:13:56.231Z</time>
</trkpt>
<trkpt lat="31.3782000" lon="34.8506700">
<ele>485.919983</ele>
<time>2022-03-02T09:13:56.231Z</time>
</trkpt>
<trkpt lat="31.3781000" lon="34.8507900">
<ele>488.859985</ele>
<time>2022-03-02T09:13:56.231Z</time>
</trkpt>
<trkpt lat="31.3780300" lon="34.8511200">
<ele>492.750031</ele>
<time>2022-03-02T09:13:56.231Z</time>
</trkpt>
<trkpt lat="31.3779800" lon="34.8512300">
<ele>493.390015</ele>
<time>2022-03-02T09:13:56.231Z</time>
</trkpt>
<trkpt lat="31.3778800" lon="34.8513800">
<ele>493.119995</ele>
<time>2022-03-02T09:13:56.231Z</time>
</trkpt>
<trkpt lat="31.3777800" lon="34.8515000">
<ele>492.250000</ele>
<time>2022-03-02T09:13:56.231Z</time>
</trkpt>
<trkpt lat="31.3776800" lon="34.8515900">
<ele>488.980011</ele>
<time>2022-03-02T09:13:56.231Z</time>
</trkpt>
<trkpt lat="31.3774100" lon="34.8517500">
<ele>479.809998</ele>
<time>2022-03-02T09:13:56.231Z</time>
</trkpt>
<trkpt lat="31.3771800" lon="34.8518100">
<ele>475.150024</ele>
<time>2022-03-02T09:13:56.231Z</time>
</trkpt>
<trkpt lat="31.3767300" lon="34.8518300">
<ele>473.660004</ele>
<time>2022-03-02T09:13:56.231Z</time>
</trkpt>
<trkpt lat="31.3764200" lon="34.8519300">
<ele>474.739990</ele>
<time>2022-03-02T09:13:56.231Z</time>
</trkpt>
<trkpt lat="31.3762800" lon="34.8519500">
<ele>476.310028</ele>
<time>2022-03-02T09:13:56.231Z</time>
</trkpt>
<trkpt lat="31.3761700" lon="34.8519300">
<ele>477.190002</ele>
<time>2022-03-02T09:13:56.231Z</time>
</trkpt>
<trkpt lat="31.3757700" lon="34.8517900">
<ele>484.660004</ele>
<time>2022-03-02T09:13:56.231Z</time>
</trkpt>
<trkpt lat="31.3756000" lon="34.8516700">
<ele>485.699982</ele>
<time>2022-03-02T09:13:56.231Z</time>
</trkpt>
<trkpt lat="31.3755300" lon="34.8516500">
<ele>485.619995</ele>
<time>2022-03-02T09:13:56.231Z</time>
</trkpt>
<trkpt lat="31.3754200" lon="34.8516600">
<ele>484.520020</ele>
<time>2022-03-02T09:13:56.231Z</time>
</trkpt>
<trkpt lat="31.3753100" lon="34.8517700">
<ele>483.429993</ele>
<time>2022-03-02T09:13:56.231Z</time>
</trkpt>
<trkpt lat="31.3752400" lon="34.8518300">
<ele>482.300018</ele>
<time>2022-03-02T09:13:56.231Z</time>
</trkpt>
<trkpt lat="31.3751600" lon="34.8519300">
<ele>480.500000</ele>
<time>2022-03-02T09:13:56.231Z</time>
</trkpt>
<trkpt lat="31.3750300" lon="34.8520600">
<ele>475.419983</ele>
<time>2022-03-02T09:13:56.231Z</time>
</trkpt>
<trkpt lat="31.3747600" lon="34.8522200">
<ele>472.719971</ele>
<time>2022-03-02T09:13:56.231Z</time>
</trkpt>
<trkpt lat="31.3745600" lon="34.8523000">
<ele>472.840027</ele>
<time>2022-03-02T09:13:56.231Z</time>
</trkpt>
<trkpt lat="31.3744300" lon="34.8523800">
<ele>472.379974</ele>
<time>2022-03-02T09:13:56.231Z</time>
</trkpt>
<trkpt lat="31.3741300" lon="34.8524700">
<ele>470.820007</ele>
<time>2022-03-02T09:13:56.231Z</time>
</trkpt>
<trkpt lat="31.3737000" lon="34.8525100">
<ele>461.950012</ele>
<time>2022-03-02T09:13:56.231Z</time>
</trkpt>
<trkpt lat="31.3732000" lon="34.8526500">
<ele>453.169983</ele>
<time>2022-03-02T09:13:56.232Z</time>
</trkpt>
<trkpt lat="31.3728700" lon="34.8526500">
<ele>463.120026</ele>
<time>2022-03-02T09:13:56.232Z</time>
</trkpt>
<trkpt lat="31.3727500" lon="34.8526000">
<ele>468.560028</ele>
<time>2022-03-02T09:13:56.232Z</time>
</trkpt>
<trkpt lat="31.3726900" lon="34.8525300">
<ele>472.259979</ele>
<time>2022-03-02T09:13:56.232Z</time>
</trkpt>
<trkpt lat="31.3725900" lon="34.8523700">
<ele>478.429993</ele>
<time>2022-03-02T09:13:56.232Z</time>
</trkpt>
<trkpt lat="31.3725100" lon="34.8521800">
<ele>484.960022</ele>
<time>2022-03-02T09:13:56.232Z</time>
</trkpt>
<trkpt lat="31.3723700" lon="34.8519000">
<ele>483.100006</ele>
<time>2022-03-02T09:13:56.232Z</time>
</trkpt>
<trkpt lat="31.3723400" lon="34.8518800">
<ele>482.640015</ele>
<time>2022-03-02T09:13:56.232Z</time>
</trkpt>
<trkpt lat="31.3723000" lon="34.8518500">
<ele>482.179993</ele>
<time>2022-03-02T09:13:56.232Z</time>
</trkpt>
<trkpt lat="31.3721500" lon="34.8518000">
<ele>479.799988</ele>
<time>2022-03-02T09:13:56.232Z</time>
</trkpt>
<trkpt lat="31.3720600" lon="34.8518100">
<ele>477.290009</ele>
<time>2022-03-02T09:13:56.232Z</time>
</trkpt>
<trkpt lat="31.3718500" lon="34.8519200">
<ele>470.980011</ele>
<time>2022-03-02T09:13:56.232Z</time>
</trkpt>
<trkpt lat="31.3715900" lon="34.8521500">
<ele>469.200012</ele>
<time>2022-03-02T09:13:56.232Z</time>
</trkpt>
<trkpt lat="31.3714800" lon="34.8522800">
<ele>469.800018</ele>
<time>2022-03-02T09:13:56.232Z</time>
</trkpt>
<trkpt lat="31.3714400" lon="34.8523300">
<ele>469.989990</ele>
<time>2022-03-02T09:13:56.232Z</time>
</trkpt>
<trkpt lat="31.3714400" lon="34.8523300">
<ele>469.989990</ele>
<time>2022-03-02T09:13:56.232Z</time>
</trkpt>
<trkpt lat="31.3711900" lon="34.8526800">
<ele>469.269989</ele>
<time>2022-03-02T09:13:56.232Z</time>
</trkpt>
<trkpt lat="31.3710700" lon="34.8528700">
<ele>466.949982</ele>
<time>2022-03-02T09:13:56.232Z</time>
</trkpt>
<trkpt lat="31.3710000" lon="34.8529500">
<ele>464.600006</ele>
<time>2022-03-02T09:13:56.232Z</time>
</trkpt>
<trkpt lat="31.3709900" lon="34.8529500">
<ele>464.490021</ele>
<time>2022-03-02T09:13:56.232Z</time>
</trkpt>
<trkpt lat="31.3709200" lon="34.8529900">
<ele>462.750000</ele>
<time>2022-03-02T09:13:56.232Z</time>
</trkpt>
<trkpt lat="31.3704600" lon="34.8531700">
<ele>467.169983</ele>
<time>2022-03-02T09:13:56.232Z</time>
</trkpt>
<trkpt lat="31.3701700" lon="34.8533300">
<ele>464.499969</ele>
<time>2022-03-02T09:13:56.232Z</time>
</trkpt>
<trkpt lat="31.3699400" lon="34.8534800">
<ele>457.839996</ele>
<time>2022-03-02T09:13:56.232Z</time>
</trkpt>
<trkpt lat="31.3697100" lon="34.8535700">
<ele>451.239990</ele>
<time>2022-03-02T09:13:56.232Z</time>
</trkpt>
<trkpt lat="31.3694700" lon="34.8535800">
<ele>449.389984</ele>
<time>2022-03-02T09:13:56.232Z</time>
</trkpt>
<trkpt lat="31.3690500" lon="34.8536800">
<ele>454.579987</ele>
<time>2022-03-02T09:13:56.232Z</time>
</trkpt>
<trkpt lat="31.3689300" lon="34.8536800">
<ele>454.900024</ele>
<time>2022-03-02T09:13:56.232Z</time>
</trkpt>
<trkpt lat="31.3687800" lon="34.8536600">
<ele>453.119995</ele>
<time>2022-03-02T09:13:56.232Z</time>
</trkpt>
<trkpt lat="31.3686500" lon="34.8536700">
<ele>450.010010</ele>
<time>2022-03-02T09:13:56.233Z</time>
</trkpt>
<trkpt lat="31.3684700" lon="34.8537100">
<ele>447.490021</ele>
<time>2022-03-02T09:13:56.233Z</time>
</trkpt>
<trkpt lat="31.3681800" lon="34.8538400">
<ele>441.570007</ele>
<time>2022-03-02T09:13:56.233Z</time>
</trkpt>
<trkpt lat="31.3679700" lon="34.8539100">
<ele>440.489990</ele>
<time>2022-03-02T09:13:56.233Z</time>
</trkpt>
<trkpt lat="31.3679700" lon="34.8539100">
<ele>440.489990</ele>
<time>2022-03-02T09:13:56.233Z</time>
</trkpt>
<trkpt lat="31.3675500" lon="34.8540500">
<ele>445.860016</ele>
<time>2022-03-02T09:13:56.233Z</time>
</trkpt>
<trkpt lat="31.3674700" lon="34.8540600">
<ele>446.739990</ele>
<time>2022-03-02T09:13:56.233Z</time>
</trkpt>
<trkpt lat="31.3672600" lon="34.8540300">
<ele>446.970001</ele>
<time>2022-03-02T09:13:56.233Z</time>
</trkpt>
<trkpt lat="31.3671700" lon="34.8540600">
<ele>445.879974</ele>
<time>2022-03-02T09:13:56.233Z</time>
</trkpt>
<trkpt lat="31.3670300" lon="34.8541800">
<ele>441.540009</ele>
<time>2022-03-02T09:13:56.233Z</time>
</trkpt>
<trkpt lat="31.3669100" lon="34.8542400">
<ele>440.449982</ele>
<time>2022-03-02T09:13:56.233Z</time>
</trkpt>
<trkpt lat="31.3667500" lon="34.8543000">
<ele>439.679993</ele>
<time>2022-03-02T09:13:56.233Z</time>
</trkpt>
<trkpt lat="31.3666800" lon="34.8543500">
<ele>439.750000</ele>
<time>2022-03-02T09:13:56.233Z</time>
</trkpt>
<trkpt lat="31.3666700" lon="34.8544000">
<ele>440.390015</ele>
<time>2022-03-02T09:13:56.233Z</time>
</trkpt>
<trkpt lat="31.3666300" lon="34.8545200">
<ele>439.230011</ele>
<time>2022-03-02T09:13:56.233Z</time>
</trkpt>
<trkpt lat="31.3666400" lon="34.8549000">
<ele>440.430023</ele>
<time>2022-03-02T09:13:56.233Z</time>
</trkpt>
<trkpt lat="31.3666900" lon="34.8550800">
<ele>445.109985</ele>
<time>2022-03-02T09:13:56.233Z</time>
</trkpt>
<trkpt lat="31.3667300" lon="34.8551300">
<ele>446.929993</ele>
<time>2022-03-02T09:13:56.233Z</time>
</trkpt>
<trkpt lat="31.3668000" lon="34.8551900">
<ele>449.680023</ele>
<time>2022-03-02T09:13:56.233Z</time>
</trkpt>
<trkpt lat="31.3668300" lon="34.8552000">
<ele>450.519989</ele>
<time>2022-03-02T09:13:56.233Z</time>
</trkpt>
<trkpt lat="31.3669000" lon="34.8552200">
<ele>452.440002</ele>
<time>2022-03-02T09:13:56.233Z</time>
</trkpt>
<trkpt lat="31.3671500" lon="34.8552700">
<ele>452.660004</ele>
<time>2022-03-02T09:13:56.233Z</time>
</trkpt>
<trkpt lat="31.3673100" lon="34.8552400">
<ele>450.559998</ele>
<time>2022-03-02T09:13:56.233Z</time>
</trkpt>
<trkpt lat="31.3677400" lon="34.8552500">
<ele>447.289978</ele>
<time>2022-03-02T09:13:56.233Z</time>
</trkpt>
<trkpt lat="31.3679600" lon="34.8552500">
<ele>446.579987</ele>
<time>2022-03-02T09:13:56.233Z</time>
</trkpt>
<trkpt lat="31.3680800" lon="34.8552500">
<ele>446.500000</ele>
<time>2022-03-02T09:13:56.233Z</time>
</trkpt>
<trkpt lat="31.3681100" lon="34.8552500">
<ele>446.750000</ele>
<time>2022-03-02T09:13:56.233Z</time>
</trkpt>
<trkpt lat="31.3683100" lon="34.8552100">
<ele>447.790009</ele>
<time>2022-03-02T09:13:56.233Z</time>
</trkpt>
<trkpt lat="31.3684500" lon="34.8552200">
<ele>448.589996</ele>
<time>2022-03-02T09:13:56.233Z</time>
</trkpt>
<trkpt lat="31.3684900" lon="34.8553100">
<ele>449.959991</ele>
<time>2022-03-02T09:13:56.234Z</time>
</trkpt>
<trkpt lat="31.3685800" lon="34.8554300">
<ele>451.589996</ele>
<time>2022-03-02T09:13:56.234Z</time>
</trkpt>
<trkpt lat="31.3686400" lon="34.8554700">
<ele>452.479980</ele>
<time>2022-03-02T09:13:56.234Z</time>
</trkpt>
<trkpt lat="31.3688600" lon="34.8555300">
<ele>455.660004</ele>
<time>2022-03-02T09:13:56.234Z</time>
</trkpt>
<trkpt lat="31.3690000" lon="34.8555900">
<ele>456.750031</ele>
<time>2022-03-02T09:13:56.234Z</time>
</trkpt>
<trkpt lat="31.3691700" lon="34.8557100">
<ele>457.430023</ele>
<time>2022-03-02T09:13:56.234Z</time>
</trkpt>
<trkpt lat="31.3690800" lon="34.8557600">
<ele>456.870026</ele>
<time>2022-03-02T09:13:56.234Z</time>
</trkpt>
<trkpt lat="31.3689200" lon="34.8557100">
<ele>456.160004</ele>
<time>2022-03-02T09:13:56.234Z</time>
</trkpt>
<trkpt lat="31.3687600" lon="34.8557900">
<ele>455.779999</ele>
<time>2022-03-02T09:13:56.234Z</time>
</trkpt>
<trkpt lat="31.3688200" lon="34.8558600">
<ele>456.020020</ele>
<time>2022-03-02T09:13:56.234Z</time>
</trkpt>
<trkpt lat="31.3689300" lon="34.8558400">
<ele>456.150024</ele>
<time>2022-03-02T09:13:56.234Z</time>
</trkpt>
<trkpt lat="31.3689800" lon="34.8559000">
<ele>456.329987</ele>
<time>2022-03-02T09:13:56.234Z</time>
</trkpt>
<trkpt lat="31.3689700" lon="34.8559400">
<ele>456.289978</ele>
<time>2022-03-02T09:13:56.234Z</time>
</trkpt>
<trkpt lat="31.3688700" lon="34.8560500">
<ele>456.050018</ele>
<time>2022-03-02T09:13:56.234Z</time>
</trkpt>
<trkpt lat="31.3688600" lon="34.8561300">
<ele>456.299988</ele>
<time>2022-03-02T09:13:56.234Z</time>
</trkpt>
<trkpt lat="31.3688900" lon="34.8562100">
<ele>457.070007</ele>
<time>2022-03-02T09:13:56.234Z</time>
</trkpt>
<trkpt lat="31.3689700" lon="34.8563200">
<ele>458.110016</ele>
<time>2022-03-02T09:13:56.234Z</time>
</trkpt>
<trkpt lat="31.3690100" lon="34.8564100">
<ele>458.710022</ele>
<time>2022-03-02T09:13:56.234Z</time>
</trkpt>
<trkpt lat="31.3689900" lon="34.8564900">
<ele>459.260010</ele>
<time>2022-03-02T09:13:56.234Z</time>
</trkpt>
<trkpt lat="31.3689200" lon="34.8566000">
<ele>459.820007</ele>
<time>2022-03-02T09:13:56.234Z</time>
</trkpt>
<trkpt lat="31.3688600" lon="34.8566800">
<ele>460.359985</ele>
<time>2022-03-02T09:13:56.234Z</time>
</trkpt>
<trkpt lat="31.3689700" lon="34.8568000">
<ele>461.729980</ele>
<time>2022-03-02T09:13:56.234Z</time>
</trkpt>
<trkpt lat="31.3689800" lon="34.8568900">
<ele>462.740021</ele>
<time>2022-03-02T09:13:56.234Z</time>
</trkpt>
<trkpt lat="31.3689400" lon="34.8570100">
<ele>463.810028</ele>
<time>2022-03-02T09:13:56.234Z</time>
</trkpt>
<trkpt lat="31.3689800" lon="34.8570100">
<ele>463.880005</ele>
<time>2022-03-02T09:13:56.234Z</time>
</trkpt>
<trkpt lat="31.3690200" lon="34.8570800">
<ele>464.480011</ele>
<time>2022-03-02T09:13:56.234Z</time>
</trkpt>
<trkpt lat="31.3691400" lon="34.8574600">
<ele>466.200012</ele>
<time>2022-03-02T09:13:56.235Z</time>
</trkpt>
<trkpt lat="31.3691800" lon="34.8578400">
<ele>468.119995</ele>
<time>2022-03-02T09:13:56.235Z</time>
</trkpt>
<trkpt lat="31.3691600" lon="34.8582100">
<ele>473.740021</ele>
<time>2022-03-02T09:13:56.235Z</time>
</trkpt>
<trkpt lat="31.3691700" lon="34.8583200">
<ele>474.850006</ele>
<time>2022-03-02T09:13:56.235Z</time>
</trkpt>
<trkpt lat="31.3692900" lon="34.8585700">
<ele>479.160004</ele>
<time>2022-03-02T09:13:56.235Z</time>
</trkpt>
<trkpt lat="31.3693000" lon="34.8586300">
<ele>480.160004</ele>
<time>2022-03-02T09:13:56.235Z</time>
</trkpt>
<trkpt lat="31.3693100" lon="34.8586500">
<ele>480.450012</ele>
<time>2022-03-02T09:13:56.235Z</time>
</trkpt>
<trkpt lat="31.3695800" lon="34.8587700">
<ele>480.000000</ele>
<time>2022-03-02T09:13:56.235Z</time>
</trkpt>
<trkpt lat="31.3697700" lon="34.8589900">
<ele>477.200012</ele>
<time>2022-03-02T09:13:56.235Z</time>
</trkpt>
<trkpt lat="31.3699800" lon="34.8591600">
<ele>474.269989</ele>
<time>2022-03-02T09:13:56.235Z</time>
</trkpt>
<trkpt lat="31.3700700" lon="34.8592900">
<ele>473.270020</ele>
<time>2022-03-02T09:13:56.235Z</time>
</trkpt>
<trkpt lat="31.3701300" lon="34.8594100">
<ele>472.240021</ele>
<time>2022-03-02T09:13:56.235Z</time>
</trkpt>
<trkpt lat="31.3701600" lon="34.8594900">
<ele>471.510010</ele>
<time>2022-03-02T09:13:56.235Z</time>
</trkpt>
<trkpt lat="31.3701800" lon="34.8596900">
<ele>470.260010</ele>
<time>2022-03-02T09:13:56.235Z</time>
</trkpt>
<trkpt lat="31.3702600" lon="34.8598000">
<ele>468.420013</ele>
<time>2022-03-02T09:13:56.235Z</time>
</trkpt>
<trkpt lat="31.3703000" lon="34.8598400">
<ele>467.740021</ele>
<time>2022-03-02T09:13:56.235Z</time>
</trkpt>
<trkpt lat="31.3705100" lon="34.8599100">
<ele>466.080017</ele>
<time>2022-03-02T09:13:56.235Z</time>
</trkpt>
<trkpt lat="31.3706500" lon="34.8599300">
<ele>465.140015</ele>
<time>2022-03-02T09:13:56.235Z</time>
</trkpt>
<trkpt lat="31.3707900" lon="34.8599100">
<ele>463.720001</ele>
<time>2022-03-02T09:13:56.235Z</time>
</trkpt>
<trkpt lat="31.3708400" lon="34.8598900">
<ele>463.160004</ele>
<time>2022-03-02T09:13:56.235Z</time>
</trkpt>
<trkpt lat="31.3709800" lon="34.8597900">
<ele>462.100006</ele>
<time>2022-03-02T09:13:56.235Z</time>
</trkpt>
<trkpt lat="31.3711200" lon="34.8597500">
<ele>461.930023</ele>
<time>2022-03-02T09:13:56.235Z</time>
</trkpt>
<trkpt lat="31.3711400" lon="34.8598300">
<ele>461.679993</ele>
<time>2022-03-02T09:13:56.235Z</time>
</trkpt>
<trkpt lat="31.3711700" lon="34.8598700">
<ele>461.570007</ele>
<time>2022-03-02T09:13:56.235Z</time>
</trkpt>
<trkpt lat="31.3711700" lon="34.8598800">
<ele>461.519989</ele>
<time>2022-03-02T09:13:56.235Z</time>
</trkpt>
<trkpt lat="31.3711900" lon="34.8599000">
<ele>461.459991</ele>
<time>2022-03-02T09:13:56.235Z</time>
</trkpt>
<trkpt lat="31.3709800" lon="34.8598900">
<ele>462.250000</ele>
<time>2022-03-02T09:13:56.236Z</time>
</trkpt>
<trkpt lat="31.3709000" lon="34.8599100">
<ele>462.870026</ele>
<time>2022-03-02T09:13:56.236Z</time>
</trkpt>
<trkpt lat="31.3707600" lon="34.8599400">
<ele>464.250000</ele>
<time>2022-03-02T09:13:56.236Z</time>
</trkpt>
<trkpt lat="31.3705500" lon="34.8599600">
<ele>466.460022</ele>
<time>2022-03-02T09:13:56.236Z</time>
</trkpt>
<trkpt lat="31.3702900" lon="34.8598700">
<ele>467.869995</ele>
<time>2022-03-02T09:13:56.236Z</time>
</trkpt>
<trkpt lat="31.3702300" lon="34.8598200">
<ele>469.149994</ele>
<time>2022-03-02T09:13:56.236Z</time>
</trkpt>
<trkpt lat="31.3701500" lon="34.8597100">
<ele>470.809998</ele>
<time>2022-03-02T09:13:56.236Z</time>
</trkpt>
<trkpt lat="31.3701100" lon="34.8595800">
<ele>472.030029</ele>
<time>2022-03-02T09:13:56.236Z</time>
</trkpt>
<trkpt lat="31.3698500" lon="34.8592600">
<ele>476.160004</ele>
<time>2022-03-02T09:13:56.236Z</time>
</trkpt>
<trkpt lat="31.3696800" lon="34.8591000">
<ele>478.910004</ele>
<time>2022-03-02T09:13:56.236Z</time>
</trkpt>
<trkpt lat="31.3696100" lon="34.8590600">
<ele>480.420013</ele>
<time>2022-03-02T09:13:56.236Z</time>
</trkpt>
<trkpt lat="31.3695500" lon="34.8590600">
<ele>481.720001</ele>
<time>2022-03-02T09:13:56.236Z</time>
</trkpt>
<trkpt lat="31.3695000" lon="34.8590900">
<ele>482.799988</ele>
<time>2022-03-02T09:13:56.236Z</time>
</trkpt>
<trkpt lat="31.3694600" lon="34.8591800">
<ele>483.529999</ele>
<time>2022-03-02T09:13:56.236Z</time>
</trkpt>
<trkpt lat="31.3694600" lon="34.8592500">
<ele>482.809998</ele>
<time>2022-03-02T09:13:56.236Z</time>
</trkpt>
<trkpt lat="31.3698100" lon="34.8599000">
<ele>473.530029</ele>
<time>2022-03-02T09:13:56.236Z</time>
</trkpt>
<trkpt lat="31.3698800" lon="34.8602000">
<ele>475.209991</ele>
<time>2022-03-02T09:13:56.236Z</time>
</trkpt>
<trkpt lat="31.3699600" lon="34.8603900">
<ele>473.779999</ele>
<time>2022-03-02T09:13:56.236Z</time>
</trkpt>
<trkpt lat="31.3700000" lon="34.8605900">
<ele>470.119995</ele>
<time>2022-03-02T09:13:56.236Z</time>
</trkpt>
<trkpt lat="31.3700000" lon="34.8605900">
<ele>470.119995</ele>
<time>2022-03-02T09:13:56.236Z</time>
</trkpt>
<trkpt lat="31.3700000" lon="34.8605900">
<ele>470.119995</ele>
<time>2022-03-02T09:13:56.236Z</time>
</trkpt>
<trkpt lat="31.3700100" lon="34.8606500">
<ele>470.320007</ele>
<time>2022-03-02T09:13:56.236Z</time>
</trkpt>
<trkpt lat="31.3700100" lon="34.8608000">
<ele>470.879974</ele>
<time>2022-03-02T09:13:56.236Z</time>
</trkpt>
<trkpt lat="31.3700000" lon="34.8608600">
<ele>471.000000</ele>
<time>2022-03-02T09:13:56.236Z</time>
</trkpt>
<trkpt lat="31.3699600" lon="34.8611200">
<ele>471.090027</ele>
<time>2022-03-02T09:13:56.236Z</time>
</trkpt>
<trkpt lat="31.3698600" lon="34.8613200">
<ele>472.880005</ele>
<time>2022-03-02T09:13:56.236Z</time>
</trkpt>
<trkpt lat="31.3697400" lon="34.8614000">
<ele>472.989990</ele>
<time>2022-03-02T09:13:56.236Z</time>
</trkpt>
<trkpt lat="31.3696300" lon="34.8614300">
<ele>473.369995</ele>
<time>2022-03-02T09:13:56.236Z</time>
</trkpt>
<trkpt lat="31.3692600" lon="34.8614500">
<ele>480.680023</ele>
<time>2022-03-02T09:13:56.236Z</time>
</trkpt>
<trkpt lat="31.3686800" lon="34.8613500">
<ele>484.749969</ele>
<time>2022-03-02T09:13:56.237Z</time>
</trkpt>
<trkpt lat="31.3686100" lon="34.8613300">
<ele>484.190002</ele>
<time>2022-03-02T09:13:56.237Z</time>
</trkpt>
<trkpt lat="31.3685400" lon="34.8612800">
<ele>483.410004</ele>
<time>2022-03-02T09:13:56.237Z</time>
</trkpt>
<trkpt lat="31.3683500" lon="34.8610500">
<ele>484.140015</ele>
<time>2022-03-02T09:13:56.237Z</time>
</trkpt>
<trkpt lat="31.3679400" lon="34.8606700">
<ele>491.500000</ele>
<time>2022-03-02T09:13:56.237Z</time>
</trkpt>
<trkpt lat="31.3678600" lon="34.8606300">
<ele>492.899994</ele>
<time>2022-03-02T09:13:56.237Z</time>
</trkpt>
<trkpt lat="31.3675100" lon="34.8605300">
<ele>492.199982</ele>
<time>2022-03-02T09:13:56.237Z</time>
</trkpt>
<trkpt lat="31.3673200" lon="34.8604000">
<ele>488.589996</ele>
<time>2022-03-02T09:13:56.237Z</time>
</trkpt>
<trkpt lat="31.3672300" lon="34.8603000">
<ele>486.269989</ele>
<time>2022-03-02T09:13:56.237Z</time>
</trkpt>
<trkpt lat="31.3671700" lon="34.8601800">
<ele>485.929993</ele>
<time>2022-03-02T09:13:56.237Z</time>
</trkpt>
<trkpt lat="31.3670100" lon="34.8597600">
<ele>487.669983</ele>
<time>2022-03-02T09:13:56.237Z</time>
</trkpt>
<trkpt lat="31.3667700" lon="34.8594200">
<ele>488.349976</ele>
<time>2022-03-02T09:13:56.237Z</time>
</trkpt>
<trkpt lat="31.3666700" lon="34.8593700">
<ele>486.429993</ele>
<time>2022-03-02T09:13:56.237Z</time>
</trkpt>
<trkpt lat="31.3662900" lon="34.8592700">
<ele>474.970001</ele>
<time>2022-03-02T09:13:56.237Z</time>
</trkpt>
<trkpt lat="31.3659300" lon="34.8590600">
<ele>470.409973</ele>
<time>2022-03-02T09:13:56.237Z</time>
</trkpt>
<trkpt lat="31.3658600" lon="34.8590400">
<ele>469.420013</ele>
<time>2022-03-02T09:13:56.237Z</time>
</trkpt>
<trkpt lat="31.3656200" lon="34.8590300">
<ele>467.869995</ele>
<time>2022-03-02T09:13:56.237Z</time>
</trkpt>
<trkpt lat="31.3654300" lon="34.8589300">
<ele>468.439972</ele>
<time>2022-03-02T09:13:56.237Z</time>
</trkpt>
<trkpt lat="31.3653100" lon="34.8588800">
<ele>470.299988</ele>
<time>2022-03-02T09:13:56.237Z</time>
</trkpt>
<trkpt lat="31.3649600" lon="34.8589500">
<ele>471.760010</ele>
<time>2022-03-02T09:13:56.237Z</time>
</trkpt>
<trkpt lat="31.3648900" lon="34.8589800">
<ele>470.230011</ele>
<time>2022-03-02T09:13:56.237Z</time>
</trkpt>
<trkpt lat="31.3648300" lon="34.8590300">
<ele>468.929993</ele>
<time>2022-03-02T09:13:56.237Z</time>
</trkpt>
<trkpt lat="31.3648000" lon="34.8591000">
<ele>468.250000</ele>
<time>2022-03-02T09:13:56.237Z</time>
</trkpt>
<trkpt lat="31.3647900" lon="34.8591800">
<ele>468.040009</ele>
<time>2022-03-02T09:13:56.237Z</time>
</trkpt>
<trkpt lat="31.3648700" lon="34.8593600">
<ele>469.410004</ele>
<time>2022-03-02T09:13:56.237Z</time>
</trkpt>
<trkpt lat="31.3648900" lon="34.8594600">
<ele>469.609985</ele>
<time>2022-03-02T09:13:56.237Z</time>
</trkpt>
<trkpt lat="31.3648000" lon="34.8594400">
<ele>469.259979</ele>
<time>2022-03-02T09:13:56.238Z</time>
</trkpt>
<trkpt lat="31.3647200" lon="34.8593600">
<ele>468.369995</ele>
<time>2022-03-02T09:13:56.238Z</time>
</trkpt>
<trkpt lat="31.3646700" lon="34.8592900">
<ele>467.429993</ele>
<time>2022-03-02T09:13:56.238Z</time>
</trkpt>
<trkpt lat="31.3645000" lon="34.8589900">
<ele>462.350006</ele>
<time>2022-03-02T09:13:56.238Z</time>
</trkpt>
<trkpt lat="31.3644800" lon="34.8588600">
<ele>459.369995</ele>
<time>2022-03-02T09:13:56.238Z</time>
</trkpt>
<trkpt lat="31.3645900" lon="34.8585900">
<ele>455.500000</ele>
<time>2022-03-02T09:13:56.238Z</time>
</trkpt>
<trkpt lat="31.3645200" lon="34.8585400">
<ele>452.510010</ele>
<time>2022-03-02T09:13:56.238Z</time>
</trkpt>
<trkpt lat="31.3644000" lon="34.8586800">
<ele>452.970001</ele>
<time>2022-03-02T09:13:56.238Z</time>
</trkpt>
<trkpt lat="31.3643000" lon="34.8588500">
<ele>452.590027</ele>
<time>2022-03-02T09:13:56.238Z</time>
</trkpt>
<trkpt lat="31.3642300" lon="34.8591100">
<ele>455.279999</ele>
<time>2022-03-02T09:13:56.238Z</time>
</trkpt>
<trkpt lat="31.3642200" lon="34.8592700">
<ele>457.990021</ele>
<time>2022-03-02T09:13:56.238Z</time>
</trkpt>
<trkpt lat="31.3643200" lon="34.8595600">
<ele>464.790009</ele>
<time>2022-03-02T09:13:56.238Z</time>
</trkpt>
<trkpt lat="31.3643200" lon="34.8596300">
<ele>465.679993</ele>
<time>2022-03-02T09:13:56.238Z</time>
</trkpt>
<trkpt lat="31.3642900" lon="34.8596800">
<ele>465.579987</ele>
<time>2022-03-02T09:13:56.238Z</time>
</trkpt>
<trkpt lat="31.3642200" lon="34.8597100">
<ele>464.199982</ele>
<time>2022-03-02T09:13:56.238Z</time>
</trkpt>
<trkpt lat="31.3641500" lon="34.8597000">
<ele>462.640015</ele>
<time>2022-03-02T09:13:56.238Z</time>
</trkpt>
<trkpt lat="31.3639600" lon="34.8596100">
<ele>460.000000</ele>
<time>2022-03-02T09:13:56.238Z</time>
</trkpt>
<trkpt lat="31.3638700" lon="34.8595800">
<ele>458.989990</ele>
<time>2022-03-02T09:13:56.238Z</time>
</trkpt>
<trkpt lat="31.3636800" lon="34.8596400">
<ele>460.349976</ele>
<time>2022-03-02T09:13:56.238Z</time>
</trkpt>
<trkpt lat="31.3635900" lon="34.8596500">
<ele>460.959991</ele>
<time>2022-03-02T09:13:56.238Z</time>
</trkpt>
<trkpt lat="31.3634000" lon="34.8595500">
<ele>461.000000</ele>
<time>2022-03-02T09:13:56.238Z</time>
</trkpt>
<trkpt lat="31.3633300" lon="34.8595400">
<ele>461.470001</ele>
<time>2022-03-02T09:13:56.238Z</time>
</trkpt>
<trkpt lat="31.3632800" lon="34.8595700">
<ele>463.059998</ele>
<time>2022-03-02T09:13:56.238Z</time>
</trkpt>
<trkpt lat="31.3632700" lon="34.8596400">
<ele>464.809998</ele>
<time>2022-03-02T09:13:56.238Z</time>
</trkpt>
<trkpt lat="31.3633000" lon="34.8597200">
<ele>466.309998</ele>
<time>2022-03-02T09:13:56.238Z</time>
</trkpt>
<trkpt lat="31.3633800" lon="34.8598100">
<ele>466.590027</ele>
<time>2022-03-02T09:13:56.238Z</time>
</trkpt>
<trkpt lat="31.3636800" lon="34.8598900">
<ele>464.020020</ele>
<time>2022-03-02T09:13:56.238Z</time>
</trkpt>
<trkpt lat="31.3637900" lon="34.8599700">
<ele>464.350006</ele>
<time>2022-03-02T09:13:56.239Z</time>
</trkpt>
<trkpt lat="31.3638700" lon="34.8600600">
<ele>465.420013</ele>
<time>2022-03-02T09:13:56.239Z</time>
</trkpt>
<trkpt lat="31.3638700" lon="34.8600600">
<ele>465.420013</ele>
<time>2022-03-02T09:13:56.239Z</time>
</trkpt>
<trkpt lat="31.3644700" lon="34.8607800">
<ele>470.610016</ele>
<time>2022-03-02T09:13:56.239Z</time>
</trkpt>
<trkpt lat="31.3647000" lon="34.8611300">
<ele>462.050018</ele>
<time>2022-03-02T09:13:56.239Z</time>
</trkpt>
<trkpt lat="31.3648100" lon="34.8612500">
<ele>461.759979</ele>
<time>2022-03-02T09:13:56.239Z</time>
</trkpt>
<trkpt lat="31.3652800" lon="34.8616300">
<ele>461.179993</ele>
<time>2022-03-02T09:13:56.239Z</time>
</trkpt>
<trkpt lat="31.3654100" lon="34.8617100">
<ele>460.250000</ele>
<time>2022-03-02T09:13:56.239Z</time>
</trkpt>
<trkpt lat="31.3653800" lon="34.8617800">
<ele>460.940002</ele>
<time>2022-03-02T09:13:56.239Z</time>
</trkpt>
<trkpt lat="31.3652900" lon="34.8617700">
<ele>462.199982</ele>
<time>2022-03-02T09:13:56.239Z</time>
</trkpt>
<trkpt lat="31.3650400" lon="34.8616800">
<ele>464.660004</ele>
<time>2022-03-02T09:13:56.239Z</time>
</trkpt>
<trkpt lat="31.3646800" lon="34.8616500">
<ele>467.639984</ele>
<time>2022-03-02T09:13:56.239Z</time>
</trkpt>
<trkpt lat="31.3642400" lon="34.8615100">
<ele>482.479980</ele>
<time>2022-03-02T09:13:56.239Z</time>
</trkpt>
<trkpt lat="31.3641700" lon="34.8615300">
<ele>485.440002</ele>
<time>2022-03-02T09:13:56.239Z</time>
</trkpt>
<trkpt lat="31.3641500" lon="34.8615700">
<ele>486.470001</ele>
<time>2022-03-02T09:13:56.239Z</time>
</trkpt>
<trkpt lat="31.3642400" lon="34.8617800">
<ele>481.879974</ele>
<time>2022-03-02T09:13:56.239Z</time>
</trkpt>
<trkpt lat="31.3642200" lon="34.8618000">
<ele>481.879974</ele>
<time>2022-03-02T09:13:56.239Z</time>
</trkpt>
<trkpt lat="31.3642100" lon="34.8618800">
<ele>479.279999</ele>
<time>2022-03-02T09:13:56.239Z</time>
</trkpt>
<trkpt lat="31.3641600" lon="34.8619400">
<ele>478.320007</ele>
<time>2022-03-02T09:13:56.239Z</time>
</trkpt>
<trkpt lat="31.3640700" lon="34.8619800">
<ele>478.199982</ele>
<time>2022-03-02T09:13:56.239Z</time>
</trkpt>
<trkpt lat="31.3639900" lon="34.8619700">
<ele>480.330017</ele>
<time>2022-03-02T09:13:56.239Z</time>
</trkpt>
<trkpt lat="31.3634100" lon="34.8618000">
<ele>479.959991</ele>
<time>2022-03-02T09:13:56.239Z</time>
</trkpt>
<trkpt lat="31.3631700" lon="34.8616500">
<ele>477.940033</ele>
<time>2022-03-02T09:13:56.239Z</time>
</trkpt>
<trkpt lat="31.3630700" lon="34.8616300">
<ele>476.750000</ele>
<time>2022-03-02T09:13:56.239Z</time>
</trkpt>
<trkpt lat="31.3629400" lon="34.8616600">
<ele>474.440002</ele>
<time>2022-03-02T09:13:56.239Z</time>
</trkpt>
<trkpt lat="31.3627000" lon="34.8617600">
<ele>469.160004</ele>
<time>2022-03-02T09:13:56.239Z</time>
</trkpt>
<trkpt lat="31.3624300" lon="34.8618000">
<ele>464.750000</ele>
<time>2022-03-02T09:13:56.239Z</time>
</trkpt>
<trkpt lat="31.3623600" lon="34.8617800">
<ele>465.440033</ele>
<time>2022-03-02T09:13:56.239Z</time>
</trkpt>
<trkpt lat="31.3622900" lon="34.8617300">
<ele>467.270020</ele>
<time>2022-03-02T09:13:56.239Z</time>
</trkpt>
<trkpt lat="31.3621900" lon="34.8616200">
<ele>470.549988</ele>
<time>2022-03-02T09:13:56.239Z</time>
</trkpt>
<trkpt lat="31.3621400" lon="34.8615900">
<ele>470.539978</ele>
<time>2022-03-02T09:13:56.240Z</time>
</trkpt>
<trkpt lat="31.3620800" lon="34.8616200">
<ele>469.559998</ele>
<time>2022-03-02T09:13:56.240Z</time>
</trkpt>
<trkpt lat="31.3620300" lon="34.8617000">
<ele>468.000000</ele>
<time>2022-03-02T09:13:56.240Z</time>
</trkpt>
<trkpt lat="31.3619800" lon="34.8618500">
<ele>465.679993</ele>
<time>2022-03-02T09:13:56.240Z</time>
</trkpt>
<trkpt lat="31.3618200" lon="34.8620100">
<ele>462.189972</ele>
<time>2022-03-02T09:13:56.240Z</time>
</trkpt>
<trkpt lat="31.3618000" lon="34.8621100">
<ele>460.609985</ele>
<time>2022-03-02T09:13:56.240Z</time>
</trkpt>
<trkpt lat="31.3618400" lon="34.8622700">
<ele>457.809998</ele>
<time>2022-03-02T09:13:56.240Z</time>
</trkpt>
<trkpt lat="31.3619100" lon="34.8624000">
<ele>454.090027</ele>
<time>2022-03-02T09:13:56.240Z</time>
</trkpt>
<trkpt lat="31.3620000" lon="34.8624900">
<ele>451.220001</ele>
<time>2022-03-02T09:13:56.240Z</time>
</trkpt>
<trkpt lat="31.3621100" lon="34.8625000">
<ele>451.000000</ele>
<time>2022-03-02T09:13:56.240Z</time>
</trkpt>
<trkpt lat="31.3623900" lon="34.8623800">
<ele>452.910004</ele>
<time>2022-03-02T09:13:56.240Z</time>
</trkpt>
<trkpt lat="31.3624700" lon="34.8623900">
<ele>453.199982</ele>
<time>2022-03-02T09:13:56.240Z</time>
</trkpt>
<trkpt lat="31.3627000" lon="34.8624900">
<ele>457.670013</ele>
<time>2022-03-02T09:13:56.240Z</time>
</trkpt>
<trkpt lat="31.3627700" lon="34.8625000">
<ele>459.749969</ele>
<time>2022-03-02T09:13:56.240Z</time>
</trkpt>
<trkpt lat="31.3628900" lon="34.8624600">
<ele>462.050018</ele>
<time>2022-03-02T09:13:56.240Z</time>
</trkpt>
<trkpt lat="31.3630500" lon="34.8623400">
<ele>466.949982</ele>
<time>2022-03-02T09:13:56.240Z</time>
</trkpt>
<trkpt lat="31.3631100" lon="34.8623300">
<ele>467.329987</ele>
<time>2022-03-02T09:13:56.240Z</time>
</trkpt>
<trkpt lat="31.3631800" lon="34.8623600">
<ele>466.529999</ele>
<time>2022-03-02T09:13:56.240Z</time>
</trkpt>
<trkpt lat="31.3632100" lon="34.8624000">
<ele>465.359985</ele>
<time>2022-03-02T09:13:56.240Z</time>
</trkpt>
<trkpt lat="31.3632300" lon="34.8624900">
<ele>462.669983</ele>
<time>2022-03-02T09:13:56.240Z</time>
</trkpt>
<trkpt lat="31.3632200" lon="34.8627600">
<ele>453.639984</ele>
<time>2022-03-02T09:13:56.240Z</time>
</trkpt>
<trkpt lat="31.3632500" lon="34.8628900">
<ele>450.320007</ele>
<time>2022-03-02T09:13:56.240Z</time>
</trkpt>
<trkpt lat="31.3632500" lon="34.8630000">
<ele>448.180023</ele>
<time>2022-03-02T09:13:56.240Z</time>
</trkpt>
<trkpt lat="31.3632400" lon="34.8630600">
<ele>447.330017</ele>
<time>2022-03-02T09:13:56.240Z</time>
</trkpt>
<trkpt lat="31.3632100" lon="34.8631500">
<ele>447.389984</ele>
<time>2022-03-02T09:13:56.240Z</time>
</trkpt>
<trkpt lat="31.3630900" lon="34.8634600">
<ele>445.539978</ele>
<time>2022-03-02T09:13:56.240Z</time>
</trkpt>
<trkpt lat="31.3629300" lon="34.8641100">
<ele>445.109985</ele>
<time>2022-03-02T09:13:56.240Z</time>
</trkpt>
<trkpt lat="31.3630000" lon="34.8641900">
<ele>448.019989</ele>
<time>2022-03-02T09:13:56.240Z</time>
</trkpt>
<trkpt lat="31.3631100" lon="34.8642700">
<ele>450.570007</ele>
<time>2022-03-02T09:13:56.240Z</time>
</trkpt>
<trkpt lat="31.3634700" lon="34.8644800">
<ele>448.230011</ele>
<time>2022-03-02T09:13:56.241Z</time>
</trkpt>
<trkpt lat="31.3636700" lon="34.8645300">
<ele>445.899994</ele>
<time>2022-03-02T09:13:56.241Z</time>
</trkpt>
<trkpt lat="31.3638500" lon="34.8645500">
<ele>444.540009</ele>
<time>2022-03-02T09:13:56.241Z</time>
</trkpt>
<trkpt lat="31.3639100" lon="34.8645700">
<ele>444.139984</ele>
<time>2022-03-02T09:13:56.241Z</time>
</trkpt>
<trkpt lat="31.3639600" lon="34.8646400">
<ele>443.669983</ele>
<time>2022-03-02T09:13:56.241Z</time>
</trkpt>
<trkpt lat="31.3639500" lon="34.8647300">
<ele>442.839996</ele>
<time>2022-03-02T09:13:56.241Z</time>
</trkpt>
<trkpt lat="31.3639100" lon="34.8648100">
<ele>441.129974</ele>
<time>2022-03-02T09:13:56.241Z</time>
</trkpt>
<trkpt lat="31.3637700" lon="34.8649800">
<ele>439.940002</ele>
<time>2022-03-02T09:13:56.241Z</time>
</trkpt>
<trkpt lat="31.3637000" lon="34.8650400">
<ele>440.410004</ele>
<time>2022-03-02T09:13:56.241Z</time>
</trkpt>
<trkpt lat="31.3634900" lon="34.8651600">
<ele>444.039978</ele>
<time>2022-03-02T09:13:56.241Z</time>
</trkpt>
<trkpt lat="31.3632400" lon="34.8652700">
<ele>448.160004</ele>
<time>2022-03-02T09:13:56.241Z</time>
</trkpt>
<trkpt lat="31.3631000" lon="34.8652900">
<ele>449.309998</ele>
<time>2022-03-02T09:13:56.241Z</time>
</trkpt>
<trkpt lat="31.3628200" lon="34.8652100">
<ele>449.349976</ele>
<time>2022-03-02T09:13:56.241Z</time>
</trkpt>
<trkpt lat="31.3625900" lon="34.8651300">
<ele>449.410004</ele>
<time>2022-03-02T09:13:56.241Z</time>
</trkpt>
<trkpt lat="31.3624400" lon="34.8651200">
<ele>449.420013</ele>
<time>2022-03-02T09:13:56.241Z</time>
</trkpt>
<trkpt lat="31.3620300" lon="34.8651400">
<ele>452.230011</ele>
<time>2022-03-02T09:13:56.241Z</time>
</trkpt>
<trkpt lat="31.3616600" lon="34.8651200">
<ele>451.690002</ele>
<time>2022-03-02T09:13:56.241Z</time>
</trkpt>
<trkpt lat="31.3614400" lon="34.8651600">
<ele>450.800018</ele>
<time>2022-03-02T09:13:56.241Z</time>
</trkpt>
<trkpt lat="31.3614400" lon="34.8651600">
<ele>450.800018</ele>
<time>2022-03-02T09:13:56.241Z</time>
</trkpt>
<trkpt lat="31.3613500" lon="34.8651800">
<ele>450.220001</ele>
<time>2022-03-02T09:13:56.241Z</time>
</trkpt>
<trkpt lat="31.3608400" lon="34.8651300">
<ele>447.710022</ele>
<time>2022-03-02T09:13:56.241Z</time>
</trkpt>
<trkpt lat="31.3602200" lon="34.8651600">
<ele>446.470001</ele>
<time>2022-03-02T09:13:56.241Z</time>
</trkpt>
<trkpt lat="31.3601400" lon="34.8651200">
<ele>445.649994</ele>
<time>2022-03-02T09:13:56.241Z</time>
</trkpt>
<trkpt lat="31.3598600" lon="34.8648400">
<ele>442.419983</ele>
<time>2022-03-02T09:13:56.241Z</time>
</trkpt>
<trkpt lat="31.3597200" lon="34.8647300">
<ele>440.860016</ele>
<time>2022-03-02T09:13:56.241Z</time>
</trkpt>
<trkpt lat="31.3595600" lon="34.8646500">
<ele>438.450012</ele>
<time>2022-03-02T09:13:56.241Z</time>
</trkpt>
<trkpt lat="31.3595100" lon="34.8646000">
<ele>438.649994</ele>
<time>2022-03-02T09:13:56.241Z</time>
</trkpt>
<trkpt lat="31.3594500" lon="34.8644700">
<ele>441.309998</ele>
<time>2022-03-02T09:13:56.241Z</time>
</trkpt>
<trkpt lat="31.3594100" lon="34.8644400">
<ele>442.020020</ele>
<time>2022-03-02T09:13:56.241Z</time>
</trkpt>
<trkpt lat="31.3593500" lon="34.8644700">
<ele>441.330017</ele>
<time>2022-03-02T09:13:56.242Z</time>
</trkpt>
<trkpt lat="31.3592800" lon="34.8645600">
<ele>439.159973</ele>
<time>2022-03-02T09:13:56.242Z</time>
</trkpt>
<trkpt lat="31.3592000" lon="34.8646300">
<ele>437.829987</ele>
<time>2022-03-02T09:13:56.242Z</time>
</trkpt>
<trkpt lat="31.3590600" lon="34.8646400">
<ele>438.269989</ele>
<time>2022-03-02T09:13:56.242Z</time>
</trkpt>
<trkpt lat="31.3589200" lon="34.8646000">
<ele>439.920013</ele>
<time>2022-03-02T09:13:56.242Z</time>
</trkpt>
<trkpt lat="31.3584600" lon="34.8643200">
<ele>446.709991</ele>
<time>2022-03-02T09:13:56.242Z</time>
</trkpt>
<trkpt lat="31.3584100" lon="34.8642500">
<ele>446.600006</ele>
<time>2022-03-02T09:13:56.242Z</time>
</trkpt>
<trkpt lat="31.3583600" lon="34.8641400">
<ele>446.290009</ele>
<time>2022-03-02T09:13:56.242Z</time>
</trkpt>
<trkpt lat="31.3581500" lon="34.8636000">
<ele>448.119995</ele>
<time>2022-03-02T09:13:56.242Z</time>
</trkpt>
<trkpt lat="31.3579400" lon="34.8632300">
<ele>454.250000</ele>
<time>2022-03-02T09:13:56.242Z</time>
</trkpt>
<trkpt lat="31.3579000" lon="34.8631600">
<ele>454.679993</ele>
<time>2022-03-02T09:13:56.242Z</time>
</trkpt>
<trkpt lat="31.3576600" lon="34.8630100">
<ele>449.300018</ele>
<time>2022-03-02T09:13:56.242Z</time>
</trkpt>
<trkpt lat="31.3574800" lon="34.8628100">
<ele>444.849976</ele>
<time>2022-03-02T09:13:56.243Z</time>
</trkpt>
<trkpt lat="31.3572500" lon="34.8626600">
<ele>444.540009</ele>
<time>2022-03-02T09:13:56.243Z</time>
</trkpt>
<trkpt lat="31.3570400" lon="34.8624300">
<ele>439.020020</ele>
<time>2022-03-02T09:13:56.243Z</time>
</trkpt>
<trkpt lat="31.3569800" lon="34.8623800">
<ele>437.019989</ele>
<time>2022-03-02T09:13:56.243Z</time>
</trkpt>
<trkpt lat="31.3568200" lon="34.8623600">
<ele>436.639984</ele>
<time>2022-03-02T09:13:56.243Z</time>
</trkpt>
<trkpt lat="31.3566700" lon="34.8623800">
<ele>437.959991</ele>
<time>2022-03-02T09:13:56.243Z</time>
</trkpt>
<trkpt lat="31.3565300" lon="34.8624300">
<ele>438.989990</ele>
<time>2022-03-02T09:13:56.243Z</time>
</trkpt>
<trkpt lat="31.3562700" lon="34.8625600">
<ele>437.100006</ele>
<time>2022-03-02T09:13:56.243Z</time>
</trkpt>
<trkpt lat="31.3561600" lon="34.8625900">
<ele>435.040009</ele>
<time>2022-03-02T09:13:56.243Z</time>
</trkpt>
<trkpt lat="31.3560700" lon="34.8625900">
<ele>434.170013</ele>
<time>2022-03-02T09:13:56.243Z</time>
</trkpt>
<trkpt lat="31.3559900" lon="34.8625500">
<ele>433.809998</ele>
<time>2022-03-02T09:13:56.243Z</time>
</trkpt>
<trkpt lat="31.3559400" lon="34.8624900">
<ele>433.399994</ele>
<time>2022-03-02T09:13:56.243Z</time>
</trkpt>
<trkpt lat="31.3559000" lon="34.8624100">
<ele>433.299988</ele>
<time>2022-03-02T09:13:56.243Z</time>
</trkpt>
<trkpt lat="31.3558400" lon="34.8622600">
<ele>432.369995</ele>
<time>2022-03-02T09:13:56.243Z</time>
</trkpt>
<trkpt lat="31.3557900" lon="34.8617500">
<ele>426.010010</ele>
<time>2022-03-02T09:13:56.243Z</time>
</trkpt>
<trkpt lat="31.3557100" lon="34.8615500">
<ele>427.369995</ele>
<time>2022-03-02T09:13:56.243Z</time>
</trkpt>
<trkpt lat="31.3555600" lon="34.8612900">
<ele>429.839996</ele>
<time>2022-03-02T09:13:56.244Z</time>
</trkpt>
<trkpt lat="31.3554900" lon="34.8612600">
<ele>431.130005</ele>
<time>2022-03-02T09:13:56.244Z</time>
</trkpt>
<trkpt lat="31.3554600" lon="34.8612600">
<ele>431.830017</ele>
<time>2022-03-02T09:13:56.244Z</time>
</trkpt>
<trkpt lat="31.3554300" lon="34.8613200">
<ele>433.079987</ele>
<time>2022-03-02T09:13:56.244Z</time>
</trkpt>
<trkpt lat="31.3554200" lon="34.8614100">
<ele>434.079987</ele>
<time>2022-03-02T09:13:56.244Z</time>
</trkpt>
<trkpt lat="31.3554300" lon="34.8616700">
<ele>435.630005</ele>
<time>2022-03-02T09:13:56.244Z</time>
</trkpt>
<trkpt lat="31.3554300" lon="34.8617500">
<ele>436.020020</ele>
<time>2022-03-02T09:13:56.244Z</time>
</trkpt>
<trkpt lat="31.3553900" lon="34.8618300">
<ele>437.820007</ele>
<time>2022-03-02T09:13:56.244Z</time>
</trkpt>
<trkpt lat="31.3553200" lon="34.8618600">
<ele>440.549988</ele>
<time>2022-03-02T09:13:56.244Z</time>
</trkpt>
<trkpt lat="31.3552600" lon="34.8618300">
<ele>442.239990</ele>
<time>2022-03-02T09:13:56.244Z</time>
</trkpt>
<trkpt lat="31.3550400" lon="34.8616000">
<ele>445.510010</ele>
<time>2022-03-02T09:13:56.244Z</time>
</trkpt>
<trkpt lat="31.3549300" lon="34.8615600">
<ele>446.430023</ele>
<time>2022-03-02T09:13:56.244Z</time>
</trkpt>
<trkpt lat="31.3548100" lon="34.8615600">
<ele>447.690002</ele>
<time>2022-03-02T09:13:56.244Z</time>
</trkpt>
<trkpt lat="31.3546300" lon="34.8616100">
<ele>450.059998</ele>
<time>2022-03-02T09:13:56.244Z</time>
</trkpt>
<trkpt lat="31.3545600" lon="34.8616100">
<ele>451.010010</ele>
<time>2022-03-02T09:13:56.244Z</time>
</trkpt>
<trkpt lat="31.3541000" lon="34.8615500">
<ele>442.500000</ele>
<time>2022-03-02T09:13:56.244Z</time>
</trkpt>
<trkpt lat="31.3537700" lon="34.8614500">
<ele>430.479980</ele>
<time>2022-03-02T09:13:56.244Z</time>
</trkpt>
<trkpt lat="31.3536700" lon="34.8614000">
<ele>426.809998</ele>
<time>2022-03-02T09:13:56.244Z</time>
</trkpt>
<trkpt lat="31.3536000" lon="34.8613300">
<ele>423.050018</ele>
<time>2022-03-02T09:13:56.244Z</time>
</trkpt>
<trkpt lat="31.3534900" lon="34.8610300">
<ele>414.399994</ele>
<time>2022-03-02T09:13:56.244Z</time>
</trkpt>
<trkpt lat="31.3534800" lon="34.8609100">
<ele>412.630005</ele>
<time>2022-03-02T09:13:56.244Z</time>
</trkpt>
<trkpt lat="31.3535000" lon="34.8608300">
<ele>411.610016</ele>
<time>2022-03-02T09:13:56.244Z</time>
</trkpt>
<trkpt lat="31.3535500" lon="34.8607400">
<ele>411.929993</ele>
<time>2022-03-02T09:13:56.245Z</time>
</trkpt>
<trkpt lat="31.3534900" lon="34.8607500">
<ele>411.830017</ele>
<time>2022-03-02T09:13:56.245Z</time>
</trkpt>
<trkpt lat="31.3532400" lon="34.8607400">
<ele>411.339996</ele>
<time>2022-03-02T09:13:56.245Z</time>
</trkpt>
<trkpt lat="31.3531800" lon="34.8607500">
<ele>411.049988</ele>
<time>2022-03-02T09:13:56.245Z</time>
</trkpt>
<trkpt lat="31.3530600" lon="34.8608100">
<ele>410.179993</ele>
<time>2022-03-02T09:13:56.245Z</time>
</trkpt>
<trkpt lat="31.3529700" lon="34.8608800">
<ele>410.119995</ele>
<time>2022-03-02T09:13:56.245Z</time>
</trkpt>
<trkpt lat="31.3525800" lon="34.8612700">
<ele>412.209991</ele>
<time>2022-03-02T09:13:56.245Z</time>
</trkpt>
<trkpt lat="31.3522800" lon="34.8611400">
<ele>410.059998</ele>
<time>2022-03-02T09:13:56.245Z</time>
</trkpt>
<trkpt lat="31.3515000" lon="34.8608300">
<ele>410.170013</ele>
<time>2022-03-02T09:13:56.245Z</time>
</trkpt>
<trkpt lat="31.3515000" lon="34.8608300">
<ele>410.170013</ele>
<time>2022-03-02T09:13:56.245Z</time>
</trkpt>
<trkpt lat="31.3514200" lon="34.8608000">
<ele>409.000000</ele>
<time>2022-03-02T09:13:56.245Z</time>
</trkpt>
<trkpt lat="31.3509100" lon="34.8606800">
<ele>415.780029</ele>
<time>2022-03-02T09:13:56.245Z</time>
</trkpt>
<trkpt lat="31.3509200" lon="34.8606500">
<ele>415.350006</ele>
<time>2022-03-02T09:13:56.245Z</time>
</trkpt>
<trkpt lat="31.3507100" lon="34.8603400">
<ele>414.660004</ele>
<time>2022-03-02T09:13:56.245Z</time>
</trkpt>
<trkpt lat="31.3502800" lon="34.8608700">
<ele>418.390015</ele>
<time>2022-03-02T09:13:56.245Z</time>
</trkpt>
<trkpt lat="31.3498500" lon="34.8614000">
<ele>425.039978</ele>
<time>2022-03-02T09:13:56.245Z</time>
</trkpt>
<trkpt lat="31.3495400" lon="34.8618100">
<ele>430.200012</ele>
<time>2022-03-02T09:13:56.245Z</time>
</trkpt>
<trkpt lat="31.3492200" lon="34.8622200">
<ele>434.350006</ele>
<time>2022-03-02T09:13:56.245Z</time>
</trkpt>
<trkpt lat="31.3489100" lon="34.8626300">
<ele>430.080017</ele>
<time>2022-03-02T09:13:56.245Z</time>
</trkpt>
<trkpt lat="31.3485900" lon="34.8630400">
<ele>420.919983</ele>
<time>2022-03-02T09:13:56.245Z</time>
</trkpt>
<trkpt lat="31.3482800" lon="34.8634500">
<ele>415.990021</ele>
<time>2022-03-02T09:13:56.245Z</time>
</trkpt>
<trkpt lat="31.3479600" lon="34.8638600">
<ele>413.619995</ele>
<time>2022-03-02T09:13:56.245Z</time>
</trkpt>
<trkpt lat="31.3475100" lon="34.8641500">
<ele>414.079987</ele>
<time>2022-03-02T09:13:56.245Z</time>
</trkpt>
<trkpt lat="31.3470500" lon="34.8644400">
<ele>408.149994</ele>
<time>2022-03-02T09:13:56.245Z</time>
</trkpt>
<trkpt lat="31.3464300" lon="34.8651800">
<ele>405.240021</ele>
<time>2022-03-02T09:13:56.245Z</time>
</trkpt>
<trkpt lat="31.3463700" lon="34.8652700">
<ele>404.860016</ele>
<time>2022-03-02T09:13:56.245Z</time>
</trkpt>
<trkpt lat="31.3460300" lon="34.8657100">
<ele>405.839996</ele>
<time>2022-03-02T09:13:56.246Z</time>
</trkpt>
<trkpt lat="31.3456900" lon="34.8661500">
<ele>406.520020</ele>
<time>2022-03-02T09:13:56.246Z</time>
</trkpt>
<trkpt lat="31.3459800" lon="34.8665700">
<ele>412.290009</ele>
<time>2022-03-02T09:13:56.246Z</time>
</trkpt>
<trkpt lat="31.3461000" lon="34.8668000">
<ele>412.860016</ele>
<time>2022-03-02T09:13:56.246Z</time>
</trkpt>
<trkpt lat="31.3461200" lon="34.8671300">
<ele>410.450012</ele>
<time>2022-03-02T09:13:56.246Z</time>
</trkpt>
<trkpt lat="31.3459700" lon="34.8676000">
<ele>407.269989</ele>
<time>2022-03-02T09:13:56.246Z</time>
</trkpt>
<trkpt lat="31.3460000" lon="34.8683500">
<ele>423.769989</ele>
<time>2022-03-02T09:13:56.246Z</time>
</trkpt>
<trkpt lat="31.3464700" lon="34.8686200">
<ele>420.360016</ele>
<time>2022-03-02T09:13:56.246Z</time>
</trkpt>
<trkpt lat="31.3469400" lon="34.8688800">
<ele>403.380005</ele>
<time>2022-03-02T09:13:56.246Z</time>
</trkpt>
<trkpt lat="31.3474400" lon="34.8688700">
<ele>399.859985</ele>
<time>2022-03-02T09:13:56.246Z</time>
</trkpt>
<trkpt lat="31.3479400" lon="34.8688600">
<ele>400.929993</ele>
<time>2022-03-02T09:13:56.246Z</time>
</trkpt>
<trkpt lat="31.3484200" lon="34.8688500">
<ele>392.160004</ele>
<time>2022-03-02T09:13:56.246Z</time>
</trkpt>
<trkpt lat="31.3497100" lon="34.8685700">
<ele>386.190002</ele>
<time>2022-03-02T09:13:56.246Z</time>
</trkpt>
<trkpt lat="31.3500600" lon="34.8682500">
<ele>398.400024</ele>
<time>2022-03-02T09:13:56.246Z</time>
</trkpt>
<trkpt lat="31.3502400" lon="34.8685400">
<ele>393.909973</ele>
<time>2022-03-02T09:13:56.246Z</time>
</trkpt>
<trkpt lat="31.3503000" lon="34.8687000">
<ele>392.459991</ele>
<time>2022-03-02T09:13:56.246Z</time>
</trkpt>
<trkpt lat="31.3504100" lon="34.8689500">
<ele>394.120026</ele>
<time>2022-03-02T09:13:56.246Z</time>
</trkpt>
<trkpt lat="31.3505000" lon="34.8692100">
<ele>400.119995</ele>
<time>2022-03-02T09:13:56.246Z</time>
</trkpt>
<trkpt lat="31.3505300" lon="34.8693800">
<ele>403.010010</ele>
<time>2022-03-02T09:13:56.246Z</time>
</trkpt>
<trkpt lat="31.3505800" lon="34.8705400">
<ele>398.709991</ele>
<time>2022-03-02T09:13:56.246Z</time>
</trkpt>
<trkpt lat="31.3505900" lon="34.8712000">
<ele>396.440002</ele>
<time>2022-03-02T09:13:56.246Z</time>
</trkpt>
<trkpt lat="31.3505900" lon="34.8719000">
<ele>399.070007</ele>
<time>2022-03-02T09:13:56.246Z</time>
</trkpt>
<trkpt lat="31.3505700" lon="34.8725400">
<ele>400.049988</ele>
<time>2022-03-02T09:13:56.246Z</time>
</trkpt>
<trkpt lat="31.3506000" lon="34.8729500">
<ele>399.640015</ele>
<time>2022-03-02T09:13:56.247Z</time>
</trkpt>
<trkpt lat="31.3507500" lon="34.8731600">
<ele>400.020020</ele>
<time>2022-03-02T09:13:56.247Z</time>
</trkpt>
<trkpt lat="31.3509200" lon="34.8733600">
<ele>400.660004</ele>
<time>2022-03-02T09:13:56.247Z</time>
</trkpt>
<trkpt lat="31.3508700" lon="34.8735700">
<ele>400.889984</ele>
<time>2022-03-02T09:13:56.247Z</time>
</trkpt>
<trkpt lat="31.3508700" lon="34.8737100">
<ele>400.950012</ele>
<time>2022-03-02T09:13:56.247Z</time>
</trkpt>
<trkpt lat="31.3507500" lon="34.8738500">
<ele>400.360016</ele>
<time>2022-03-02T09:13:56.247Z</time>
</trkpt>
<trkpt lat="31.3505700" lon="34.8741600">
<ele>400.950012</ele>
<time>2022-03-02T09:13:56.247Z</time>
</trkpt>
<trkpt lat="31.3507300" lon="34.8747200">
<ele>402.120026</ele>
<time>2022-03-02T09:13:56.247Z</time>
</trkpt>
<trkpt lat="31.3507900" lon="34.8754100">
<ele>398.610016</ele>
<time>2022-03-02T09:13:56.247Z</time>
</trkpt>
<trkpt lat="31.3504600" lon="34.8761200">
<ele>395.950012</ele>
<time>2022-03-02T09:13:56.247Z</time>
</trkpt>
<trkpt lat="31.3503100" lon="34.8763400">
<ele>395.079987</ele>
<time>2022-03-02T09:13:56.247Z</time>
</trkpt>
<trkpt lat="31.3501800" lon="34.8763800">
<ele>395.400024</ele>
<time>2022-03-02T09:13:56.247Z</time>
</trkpt>
<trkpt lat="31.3501000" lon="34.8765000">
<ele>395.380005</ele>
<time>2022-03-02T09:13:56.247Z</time>
</trkpt>
<trkpt lat="31.3500700" lon="34.8765900">
<ele>395.209991</ele>
<time>2022-03-02T09:13:56.247Z</time>
</trkpt>
<trkpt lat="31.3500600" lon="34.8767500">
<ele>395.299988</ele>
<time>2022-03-02T09:13:56.247Z</time>
</trkpt>
<trkpt lat="31.3500700" lon="34.8768900">
<ele>395.799988</ele>
<time>2022-03-02T09:13:56.247Z</time>
</trkpt>
<trkpt lat="31.3501100" lon="34.8770400">
<ele>396.070007</ele>
<time>2022-03-02T09:13:56.247Z</time>
</trkpt>
<trkpt lat="31.3501100" lon="34.8770400">
<ele>396.070007</ele>
<time>2022-03-02T09:13:56.247Z</time>
</trkpt>
<trkpt lat="31.3501100" lon="34.8770400">
<ele>396.070007</ele>
<time>2022-03-02T09:13:56.247Z</time>
</trkpt>
<trkpt lat="31.3501800" lon="34.8773100">
<ele>395.390015</ele>
<time>2022-03-02T09:13:56.247Z</time>
</trkpt>
<trkpt lat="31.3502100" lon="34.8774900">
<ele>394.519989</ele>
<time>2022-03-02T09:13:56.247Z</time>
</trkpt>
<trkpt lat="31.3502400" lon="34.8778700">
<ele>392.559998</ele>
<time>2022-03-02T09:13:56.247Z</time>
</trkpt>
<trkpt lat="31.3502400" lon="34.8782800">
<ele>394.529999</ele>
<time>2022-03-02T09:13:56.247Z</time>
</trkpt>
<trkpt lat="31.3501700" lon="34.8792100">
<ele>392.779999</ele>
<time>2022-03-02T09:13:56.247Z</time>
</trkpt>
<trkpt lat="31.3500700" lon="34.8800800">
<ele>392.280029</ele>
<time>2022-03-02T09:13:56.247Z</time>
</trkpt>
<trkpt lat="31.3500500" lon="34.8803000">
<ele>391.809967</ele>
<time>2022-03-02T09:13:56.247Z</time>
</trkpt>
<trkpt lat="31.3499600" lon="34.8808600">
<ele>390.550018</ele>
<time>2022-03-02T09:13:56.247Z</time>
</trkpt>
<trkpt lat="31.3498300" lon="34.8817100">
<ele>388.940002</ele>
<time>2022-03-02T09:13:56.247Z</time>
</trkpt>
<trkpt lat="31.3497400" lon="34.8819700">
<ele>387.000000</ele>
<time>2022-03-02T09:13:56.248Z</time>
</trkpt>
<trkpt lat="31.3497400" lon="34.8819700">
<ele>387.000000</ele>
<time>2022-03-02T09:13:56.248Z</time>
</trkpt>
<trkpt lat="31.3497400" lon="34.8819700">
<ele>387.000000</ele>
<time>2022-03-02T09:13:56.248Z</time>
</trkpt>
<trkpt lat="31.3496200" lon="34.8821700">
<ele>385.589996</ele>
<time>2022-03-02T09:13:56.248Z</time>
</trkpt>
<trkpt lat="31.3495100" lon="34.8822700">
<ele>384.899994</ele>
<time>2022-03-02T09:13:56.248Z</time>
</trkpt>
<trkpt lat="31.3492800" lon="34.8824000">
<ele>385.660004</ele>
<time>2022-03-02T09:13:56.248Z</time>
</trkpt>
<trkpt lat="31.3487200" lon="34.8826000">
<ele>387.750000</ele>
<time>2022-03-02T09:13:56.248Z</time>
</trkpt>
<trkpt lat="31.3490800" lon="34.8828100">
<ele>395.170013</ele>
<time>2022-03-02T09:13:56.248Z</time>
</trkpt>
<trkpt lat="31.3494200" lon="34.8837800">
<ele>401.789978</ele>
<time>2022-03-02T09:13:56.248Z</time>
</trkpt>
<trkpt lat="31.3495800" lon="34.8838700">
<ele>400.540009</ele>
<time>2022-03-02T09:13:56.248Z</time>
</trkpt>
<trkpt lat="31.3493000" lon="34.8839200">
<ele>400.790009</ele>
<time>2022-03-02T09:13:56.248Z</time>
</trkpt>
<trkpt lat="31.3492500" lon="34.8839600">
<ele>400.159973</ele>
<time>2022-03-02T09:13:56.248Z</time>
</trkpt>
<trkpt lat="31.3491600" lon="34.8840900">
<ele>398.459991</ele>
<time>2022-03-02T09:13:56.248Z</time>
</trkpt>
<trkpt lat="31.3491100" lon="34.8841400">
<ele>397.399994</ele>
<time>2022-03-02T09:13:56.248Z</time>
</trkpt>
<trkpt lat="31.3490500" lon="34.8841500">
<ele>396.470001</ele>
<time>2022-03-02T09:13:56.248Z</time>
</trkpt>
<trkpt lat="31.3489500" lon="34.8841200">
<ele>395.350006</ele>
<time>2022-03-02T09:13:56.248Z</time>
</trkpt>
<trkpt lat="31.3489500" lon="34.8841200">
<ele>395.350006</ele>
<time>2022-03-02T09:13:56.248Z</time>
</trkpt>
<trkpt lat="31.3486900" lon="34.8840200">
<ele>396.300018</ele>
<time>2022-03-02T09:13:56.248Z</time>
</trkpt>
<trkpt lat="31.3481500" lon="34.8838700">
<ele>400.769989</ele>
<time>2022-03-02T09:13:56.248Z</time>
</trkpt>
<trkpt lat="31.3475800" lon="34.8836500">
<ele>394.800018</ele>
<time>2022-03-02T09:13:56.248Z</time>
</trkpt>
<trkpt lat="31.3472300" lon="34.8835700">
<ele>391.160004</ele>
<time>2022-03-02T09:13:56.248Z</time>
</trkpt>
<trkpt lat="31.3467400" lon="34.8834200">
<ele>387.100006</ele>
<time>2022-03-02T09:13:56.248Z</time>
</trkpt>
<trkpt lat="31.3465700" lon="34.8833300">
<ele>387.709991</ele>
<time>2022-03-02T09:13:56.248Z</time>
</trkpt>
<trkpt lat="31.3464400" lon="34.8832900">
<ele>389.639984</ele>
<time>2022-03-02T09:13:56.248Z</time>
</trkpt>
<trkpt lat="31.3462700" lon="34.8832400">
<ele>390.420013</ele>
<time>2022-03-02T09:13:56.248Z</time>
</trkpt>
<trkpt lat="31.3460700" lon="34.8831400">
<ele>390.990021</ele>
<time>2022-03-02T09:13:56.248Z</time>
</trkpt>
<trkpt lat="31.3460100" lon="34.8831300">
<ele>390.929993</ele>
<time>2022-03-02T09:13:56.248Z</time>
</trkpt>
<trkpt lat="31.3457600" lon="34.8831500">
<ele>390.919983</ele>
<time>2022-03-02T09:13:56.248Z</time>
</trkpt>
<trkpt lat="31.3456400" lon="34.8831400">
<ele>390.760010</ele>
<time>2022-03-02T09:13:56.249Z</time>
</trkpt>
<trkpt lat="31.3453100" lon="34.8830100">
<ele>393.369995</ele>
<time>2022-03-02T09:13:56.249Z</time>
</trkpt>
<trkpt lat="31.3451500" lon="34.8829900">
<ele>393.479980</ele>
<time>2022-03-02T09:13:56.249Z</time>
</trkpt>
<trkpt lat="31.3446300" lon="34.8830500">
<ele>384.369995</ele>
<time>2022-03-02T09:13:56.249Z</time>
</trkpt>
<trkpt lat="31.3440400" lon="34.8831300">
<ele>382.900024</ele>
<time>2022-03-02T09:13:56.249Z</time>
</trkpt>
<trkpt lat="31.3437900" lon="34.8832000">
<ele>384.270020</ele>
<time>2022-03-02T09:13:56.249Z</time>
</trkpt>
<trkpt lat="31.3436100" lon="34.8832300">
<ele>384.640015</ele>
<time>2022-03-02T09:13:56.249Z</time>
</trkpt>
<trkpt lat="31.3435300" lon="34.8832600">
<ele>384.470001</ele>
<time>2022-03-02T09:13:56.249Z</time>
</trkpt>
<trkpt lat="31.3433200" lon="34.8834200">
<ele>385.559967</ele>
<time>2022-03-02T09:13:56.249Z</time>
</trkpt>
<trkpt lat="31.3431000" lon="34.8834300">
<ele>386.880005</ele>
<time>2022-03-02T09:13:56.249Z</time>
</trkpt>
<trkpt lat="31.3428100" lon="34.8835700">
<ele>387.850006</ele>
<time>2022-03-02T09:13:56.249Z</time>
</trkpt>
<trkpt lat="31.3425700" lon="34.8836200">
<ele>386.540009</ele>
<time>2022-03-02T09:13:56.249Z</time>
</trkpt>
<trkpt lat="31.3423600" lon="34.8836900">
<ele>384.769989</ele>
<time>2022-03-02T09:13:56.249Z</time>
</trkpt>
<trkpt lat="31.3423600" lon="34.8836900">
<ele>384.769989</ele>
<time>2022-03-02T09:13:56.249Z</time>
</trkpt>
<trkpt lat="31.3422200" lon="34.8837300">
<ele>383.419983</ele>
<time>2022-03-02T09:13:56.249Z</time>
</trkpt>
<trkpt lat="31.3416400" lon="34.8837900">
<ele>381.209991</ele>
<time>2022-03-02T09:13:56.249Z</time>
</trkpt>
<trkpt lat="31.3409900" lon="34.8838200">
<ele>374.819977</ele>
<time>2022-03-02T09:13:56.249Z</time>
</trkpt>
<trkpt lat="31.3406000" lon="34.8839400">
<ele>375.419983</ele>
<time>2022-03-02T09:13:56.249Z</time>
</trkpt>
<trkpt lat="31.3404700" lon="34.8839600">
<ele>378.069977</ele>
<time>2022-03-02T09:13:56.249Z</time>
</trkpt>
<trkpt lat="31.3403400" lon="34.8839300">
<ele>381.419983</ele>
<time>2022-03-02T09:13:56.249Z</time>
</trkpt>
<trkpt lat="31.3400600" lon="34.8838300">
<ele>391.599976</ele>
<time>2022-03-02T09:13:56.249Z</time>
</trkpt>
<trkpt lat="31.3395600" lon="34.8834800">
<ele>390.839996</ele>
<time>2022-03-02T09:13:56.249Z</time>
</trkpt>
<trkpt lat="31.3394800" lon="34.8834100">
<ele>390.709991</ele>
<time>2022-03-02T09:13:56.249Z</time>
</trkpt>
<trkpt lat="31.3393200" lon="34.8832300">
<ele>390.569977</ele>
<time>2022-03-02T09:13:56.249Z</time>
</trkpt>
<trkpt lat="31.3392600" lon="34.8831900">
<ele>389.410004</ele>
<time>2022-03-02T09:13:56.249Z</time>
</trkpt>
<trkpt lat="31.3392100" lon="34.8831900">
<ele>387.860016</ele>
<time>2022-03-02T09:13:56.250Z</time>
</trkpt>
<trkpt lat="31.3390600" lon="34.8832200">
<ele>386.020020</ele>
<time>2022-03-02T09:13:56.250Z</time>
</trkpt>
<trkpt lat="31.3389700" lon="34.8832200">
<ele>385.699982</ele>
<time>2022-03-02T09:13:56.250Z</time>
</trkpt>
<trkpt lat="31.3389000" lon="34.8832000">
<ele>385.519989</ele>
<time>2022-03-02T09:13:56.250Z</time>
</trkpt>
<trkpt lat="31.3383100" lon="34.8828800">
<ele>390.869995</ele>
<time>2022-03-02T09:13:56.250Z</time>
</trkpt>
<trkpt lat="31.3380900" lon="34.8827300">
<ele>394.420013</ele>
<time>2022-03-02T09:13:56.250Z</time>
</trkpt>
<trkpt lat="31.3378800" lon="34.8825500">
<ele>386.309998</ele>
<time>2022-03-02T09:13:56.250Z</time>
</trkpt>
<trkpt lat="31.3367900" lon="34.8816800">
<ele>394.509979</ele>
<time>2022-03-02T09:13:56.250Z</time>
</trkpt>
<trkpt lat="31.3364200" lon="34.8814200">
<ele>387.319977</ele>
<time>2022-03-02T09:13:56.250Z</time>
</trkpt>
<trkpt lat="31.3360300" lon="34.8812500">
<ele>378.830017</ele>
<time>2022-03-02T09:13:56.250Z</time>
</trkpt>
<trkpt lat="31.3359500" lon="34.8812600">
<ele>377.599976</ele>
<time>2022-03-02T09:13:56.250Z</time>
</trkpt>
<trkpt lat="31.3359800" lon="34.8816200">
<ele>375.549988</ele>
<time>2022-03-02T09:13:56.250Z</time>
</trkpt>
<trkpt lat="31.3359900" lon="34.8817000">
<ele>375.840027</ele>
<time>2022-03-02T09:13:56.250Z</time>
</trkpt>
<trkpt lat="31.3360400" lon="34.8819300">
<ele>380.019989</ele>
<time>2022-03-02T09:13:56.250Z</time>
</trkpt>
<trkpt lat="31.3360500" lon="34.8821600">
<ele>384.290009</ele>
<time>2022-03-02T09:13:56.250Z</time>
</trkpt>
<trkpt lat="31.3360700" lon="34.8822800">
<ele>387.029999</ele>
<time>2022-03-02T09:13:56.250Z</time>
</trkpt>
<trkpt lat="31.3361400" lon="34.8824100">
<ele>390.730011</ele>
<time>2022-03-02T09:13:56.250Z</time>
</trkpt>
<trkpt lat="31.3360200" lon="34.8825300">
<ele>387.950012</ele>
<time>2022-03-02T09:13:56.250Z</time>
</trkpt>
<trkpt lat="31.3358300" lon="34.8826800">
<ele>381.480011</ele>
<time>2022-03-02T09:13:56.250Z</time>
</trkpt>
<trkpt lat="31.3357600" lon="34.8827200">
<ele>379.789978</ele>
<time>2022-03-02T09:13:56.250Z</time>
</trkpt>
<trkpt lat="31.3357600" lon="34.8827200">
<ele>379.789978</ele>
<time>2022-03-02T09:13:56.250Z</time>
</trkpt>
<trkpt lat="31.3356400" lon="34.8827900">
<ele>376.869995</ele>
<time>2022-03-02T09:13:56.250Z</time>
</trkpt>
<trkpt lat="31.3352900" lon="34.8829200">
<ele>375.509979</ele>
<time>2022-03-02T09:13:56.250Z</time>
</trkpt>
<trkpt lat="31.3352300" lon="34.8830000">
<ele>375.250000</ele>
<time>2022-03-02T09:13:56.250Z</time>
</trkpt>
<trkpt lat="31.3351600" lon="34.8834400">
<ele>376.250000</ele>
<time>2022-03-02T09:13:56.250Z</time>
</trkpt>
<trkpt lat="31.3351200" lon="34.8835100">
<ele>375.809998</ele>
<time>2022-03-02T09:13:56.250Z</time>
</trkpt>
<trkpt lat="31.3350500" lon="34.8835400">
<ele>375.199982</ele>
<time>2022-03-02T09:13:56.250Z</time>
</trkpt>
<trkpt lat="31.3350800" lon="34.8839100">
<ele>379.339996</ele>
<time>2022-03-02T09:13:56.250Z</time>
</trkpt>
<trkpt lat="31.3350500" lon="34.8842000">
<ele>379.739990</ele>
<time>2022-03-02T09:13:56.251Z</time>
</trkpt>
<trkpt lat="31.3350600" lon="34.8843700">
<ele>378.380005</ele>
<time>2022-03-02T09:13:56.251Z</time>
</trkpt>
<trkpt lat="31.3352600" lon="34.8851900">
<ele>376.820007</ele>
<time>2022-03-02T09:13:56.251Z</time>
</trkpt>
<trkpt lat="31.3352800" lon="34.8853100">
<ele>379.500000</ele>
<time>2022-03-02T09:13:56.251Z</time>
</trkpt>
<trkpt lat="31.3352900" lon="34.8854500">
<ele>381.649994</ele>
<time>2022-03-02T09:13:56.251Z</time>
</trkpt>
<trkpt lat="31.3352400" lon="34.8855200">
<ele>381.060028</ele>
<time>2022-03-02T09:13:56.251Z</time>
</trkpt>
<trkpt lat="31.3352000" lon="34.8855700">
<ele>379.809998</ele>
<time>2022-03-02T09:13:56.251Z</time>
</trkpt>
<trkpt lat="31.3350400" lon="34.8855900">
<ele>373.829987</ele>
<time>2022-03-02T09:13:56.251Z</time>
</trkpt>
<trkpt lat="31.3349800" lon="34.8856300">
<ele>372.570007</ele>
<time>2022-03-02T09:13:56.251Z</time>
</trkpt>
<trkpt lat="31.3349100" lon="34.8856500">
<ele>371.940002</ele>
<time>2022-03-02T09:13:56.251Z</time>
</trkpt>
<trkpt lat="31.3347900" lon="34.8857500">
<ele>371.300018</ele>
<time>2022-03-02T09:13:56.251Z</time>
</trkpt>
<trkpt lat="31.3347200" lon="34.8858500">
<ele>371.410004</ele>
<time>2022-03-02T09:13:56.251Z</time>
</trkpt>
<trkpt lat="31.3346400" lon="34.8859700">
<ele>374.149994</ele>
<time>2022-03-02T09:13:56.251Z</time>
</trkpt>
<trkpt lat="31.3346400" lon="34.8859700">
<ele>374.149994</ele>
<time>2022-03-02T09:13:56.251Z</time>
</trkpt>
<trkpt lat="31.3345500" lon="34.8861200">
<ele>377.489990</ele>
<time>2022-03-02T09:13:56.251Z</time>
</trkpt>
<trkpt lat="31.3344700" lon="34.8863100">
<ele>380.930023</ele>
<time>2022-03-02T09:13:56.251Z</time>
</trkpt>
<trkpt lat="31.3344500" lon="34.8863400">
<ele>381.850006</ele>
<time>2022-03-02T09:13:56.251Z</time>
</trkpt>
<trkpt lat="31.3341800" lon="34.8865600">
<ele>377.200012</ele>
<time>2022-03-02T09:13:56.251Z</time>
</trkpt>
<trkpt lat="31.3340500" lon="34.8866100">
<ele>375.399994</ele>
<time>2022-03-02T09:13:56.251Z</time>
</trkpt>
<trkpt lat="31.3339500" lon="34.8866400">
<ele>374.359985</ele>
<time>2022-03-02T09:13:56.251Z</time>
</trkpt>
<trkpt lat="31.3336900" lon="34.8867800">
<ele>372.299988</ele>
<time>2022-03-02T09:13:56.251Z</time>
</trkpt>
<trkpt lat="31.3334900" lon="34.8868800">
<ele>372.399994</ele>
<time>2022-03-02T09:13:56.251Z</time>
</trkpt>
<trkpt lat="31.3333200" lon="34.8869100">
<ele>371.750000</ele>
<time>2022-03-02T09:13:56.251Z</time>
</trkpt>
<trkpt lat="31.3322800" lon="34.8863100">
<ele>371.080017</ele>
<time>2022-03-02T09:13:56.251Z</time>
</trkpt>
<trkpt lat="31.3321100" lon="34.8862400">
<ele>370.019989</ele>
<time>2022-03-02T09:13:56.251Z</time>
</trkpt>
<trkpt lat="31.3317500" lon="34.8862000">
<ele>363.320007</ele>
<time>2022-03-02T09:13:56.251Z</time>
</trkpt>
<trkpt lat="31.3314900" lon="34.8862600">
<ele>361.629974</ele>
<time>2022-03-02T09:13:56.252Z</time>
</trkpt>
<trkpt lat="31.3312500" lon="34.8863800">
<ele>362.899994</ele>
<time>2022-03-02T09:13:56.252Z</time>
</trkpt>
<trkpt lat="31.3310900" lon="34.8864800">
<ele>364.220001</ele>
<time>2022-03-02T09:13:56.252Z</time>
</trkpt>
<trkpt lat="31.3311800" lon="34.8865400">
<ele>365.220001</ele>
<time>2022-03-02T09:13:56.252Z</time>
</trkpt>
<trkpt lat="31.3312400" lon="34.8866200">
<ele>366.380005</ele>
<time>2022-03-02T09:13:56.252Z</time>
</trkpt>
<trkpt lat="31.3315500" lon="34.8868700">
<ele>367.500000</ele>
<time>2022-03-02T09:13:56.252Z</time>
</trkpt>
<trkpt lat="31.3318400" lon="34.8872000">
<ele>375.610016</ele>
<time>2022-03-02T09:13:56.252Z</time>
</trkpt>
<trkpt lat="31.3319400" lon="34.8872600">
<ele>377.510010</ele>
<time>2022-03-02T09:13:56.252Z</time>
</trkpt>
<trkpt lat="31.3324700" lon="34.8875400">
<ele>377.059998</ele>
<time>2022-03-02T09:13:56.252Z</time>
</trkpt>
<trkpt lat="31.3330300" lon="34.8877600">
<ele>383.269989</ele>
<time>2022-03-02T09:13:56.252Z</time>
</trkpt>
<trkpt lat="31.3333000" lon="34.8878900">
<ele>389.020020</ele>
<time>2022-03-02T09:13:56.252Z</time>
</trkpt>
<trkpt lat="31.3337600" lon="34.8880500">
<ele>392.510010</ele>
<time>2022-03-02T09:13:56.252Z</time>
</trkpt>
<trkpt lat="31.3339300" lon="34.8881500">
<ele>393.139984</ele>
<time>2022-03-02T09:13:56.252Z</time>
</trkpt>
<trkpt lat="31.3341000" lon="34.8882100">
<ele>391.489990</ele>
<time>2022-03-02T09:13:56.252Z</time>
</trkpt>
<trkpt lat="31.3341000" lon="34.8882100">
<ele>391.489990</ele>
<time>2022-03-02T09:13:56.252Z</time>
</trkpt>
<trkpt lat="31.3341400" lon="34.8882300">
<ele>391.209991</ele>
<time>2022-03-02T09:13:56.252Z</time>
</trkpt>
<trkpt lat="31.3343500" lon="34.8883700">
<ele>387.160004</ele>
<time>2022-03-02T09:13:56.252Z</time>
</trkpt>
<trkpt lat="31.3344500" lon="34.8884900">
<ele>385.540009</ele>
<time>2022-03-02T09:13:56.252Z</time>
</trkpt>
<trkpt lat="31.3345000" lon="34.8886000">
<ele>385.100006</ele>
<time>2022-03-02T09:13:56.252Z</time>
</trkpt>
<trkpt lat="31.3345600" lon="34.8888200">
<ele>384.630005</ele>
<time>2022-03-02T09:13:56.252Z</time>
</trkpt>
<trkpt lat="31.3345600" lon="34.8889000">
<ele>385.089996</ele>
<time>2022-03-02T09:13:56.252Z</time>
</trkpt>
<trkpt lat="31.3345800" lon="34.8893400">
<ele>385.510010</ele>
<time>2022-03-02T09:13:56.252Z</time>
</trkpt>
<trkpt lat="31.3346400" lon="34.8896900">
<ele>385.660004</ele>
<time>2022-03-02T09:13:56.252Z</time>
</trkpt>
<trkpt lat="31.3347200" lon="34.8899600">
<ele>386.600006</ele>
<time>2022-03-02T09:13:56.252Z</time>
</trkpt>
<trkpt lat="31.3347900" lon="34.8901200">
<ele>388.019989</ele>
<time>2022-03-02T09:13:56.252Z</time>
</trkpt>
<trkpt lat="31.3349500" lon="34.8903900">
<ele>391.209991</ele>
<time>2022-03-02T09:13:56.252Z</time>
</trkpt>
<trkpt lat="31.3351000" lon="34.8905800">
<ele>393.670013</ele>
<time>2022-03-02T09:13:56.253Z</time>
</trkpt>
<trkpt lat="31.3352900" lon="34.8907300">
<ele>394.839996</ele>
<time>2022-03-02T09:13:56.253Z</time>
</trkpt>
<trkpt lat="31.3355100" lon="34.8909700">
<ele>401.730011</ele>
<time>2022-03-02T09:13:56.253Z</time>
</trkpt>
<trkpt lat="31.3361300" lon="34.8913900">
<ele>415.010010</ele>
<time>2022-03-02T09:13:56.253Z</time>
</trkpt>
<trkpt lat="31.3364000" lon="34.8916500">
<ele>417.960022</ele>
<time>2022-03-02T09:13:56.253Z</time>
</trkpt>
<trkpt lat="31.3365200" lon="34.8917600">
<ele>419.910004</ele>
<time>2022-03-02T09:13:56.253Z</time>
</trkpt>
<trkpt lat="31.3367700" lon="34.8921000">
<ele>421.699982</ele>
<time>2022-03-02T09:13:56.253Z</time>
</trkpt>
<trkpt lat="31.3368300" lon="34.8921400">
<ele>421.940002</ele>
<time>2022-03-02T09:13:56.253Z</time>
</trkpt>
<trkpt lat="31.3372700" lon="34.8924700">
<ele>423.059967</ele>
<time>2022-03-02T09:13:56.253Z</time>
</trkpt>
<trkpt lat="31.3373900" lon="34.8926000">
<ele>420.449982</ele>
<time>2022-03-02T09:13:56.253Z</time>
</trkpt>
<trkpt lat="31.3375900" lon="34.8928800">
<ele>414.499969</ele>
<time>2022-03-02T09:13:56.253Z</time>
</trkpt>
<trkpt lat="31.3377000" lon="34.8929600">
<ele>413.040009</ele>
<time>2022-03-02T09:13:56.253Z</time>
</trkpt>
<trkpt lat="31.3378300" lon="34.8930200">
<ele>413.059998</ele>
<time>2022-03-02T09:13:56.253Z</time>
</trkpt>
<trkpt lat="31.3380000" lon="34.8930100">
<ele>415.300018</ele>
<time>2022-03-02T09:13:56.253Z</time>
</trkpt>
<trkpt lat="31.3384300" lon="34.8929500">
<ele>416.779999</ele>
<time>2022-03-02T09:13:56.253Z</time>
</trkpt>
<trkpt lat="31.3387900" lon="34.8928500">
<ele>416.899994</ele>
<time>2022-03-02T09:13:56.253Z</time>
</trkpt>
<trkpt lat="31.3394300" lon="34.8924600">
<ele>427.320007</ele>
<time>2022-03-02T09:13:56.253Z</time>
</trkpt>
<trkpt lat="31.3394300" lon="34.8924600">
<ele>427.320007</ele>
<time>2022-03-02T09:13:56.253Z</time>
</trkpt>
<trkpt lat="31.3394600" lon="34.8924400">
<ele>427.869995</ele>
<time>2022-03-02T09:13:56.253Z</time>
</trkpt>
<trkpt lat="31.3398100" lon="34.8922900">
<ele>426.630005</ele>
<time>2022-03-02T09:13:56.253Z</time>
</trkpt>
<trkpt lat="31.3399900" lon="34.8922300">
<ele>424.139984</ele>
<time>2022-03-02T09:13:56.253Z</time>
</trkpt>
<trkpt lat="31.3403400" lon="34.8922200">
<ele>428.839996</ele>
<time>2022-03-02T09:13:56.253Z</time>
</trkpt>
<trkpt lat="31.3404400" lon="34.8922400">
<ele>430.639984</ele>
<time>2022-03-02T09:13:56.253Z</time>
</trkpt>
<trkpt lat="31.3406100" lon="34.8923400">
<ele>434.429993</ele>
<time>2022-03-02T09:13:56.253Z</time>
</trkpt>
<trkpt lat="31.3407100" lon="34.8924200">
<ele>436.110016</ele>
<time>2022-03-02T09:13:56.253Z</time>
</trkpt>
<trkpt lat="31.3411800" lon="34.8929200">
<ele>436.470001</ele>
<time>2022-03-02T09:13:56.254Z</time>
</trkpt>
<trkpt lat="31.3415000" lon="34.8932200">
<ele>431.299988</ele>
<time>2022-03-02T09:13:56.254Z</time>
</trkpt>
<trkpt lat="31.3417600" lon="34.8933800">
<ele>430.660004</ele>
<time>2022-03-02T09:13:56.254Z</time>
</trkpt>
<trkpt lat="31.3421600" lon="34.8935600">
<ele>431.270020</ele>
<time>2022-03-02T09:13:56.254Z</time>
</trkpt>
<trkpt lat="31.3422500" lon="34.8936300">
<ele>432.390015</ele>
<time>2022-03-02T09:13:56.254Z</time>
</trkpt>
<trkpt lat="31.3424300" lon="34.8938200">
<ele>436.880005</ele>
<time>2022-03-02T09:13:56.254Z</time>
</trkpt>
<trkpt lat="31.3424800" lon="34.8938800">
<ele>438.599976</ele>
<time>2022-03-02T09:13:56.254Z</time>
</trkpt>
<trkpt lat="31.3426200" lon="34.8940800">
<ele>433.710022</ele>
<time>2022-03-02T09:13:56.254Z</time>
</trkpt>
<trkpt lat="31.3429200" lon="34.8947600">
<ele>427.059998</ele>
<time>2022-03-02T09:13:56.254Z</time>
</trkpt>
<trkpt lat="31.3431600" lon="34.8951700">
<ele>431.529999</ele>
<time>2022-03-02T09:13:56.254Z</time>
</trkpt>
<trkpt lat="31.3432300" lon="34.8952700">
<ele>433.410004</ele>
<time>2022-03-02T09:13:56.254Z</time>
</trkpt>
<trkpt lat="31.3438400" lon="34.8958900">
<ele>443.239990</ele>
<time>2022-03-02T09:13:56.254Z</time>
</trkpt>
<trkpt lat="31.3441300" lon="34.8962800">
<ele>443.160004</ele>
<time>2022-03-02T09:13:56.254Z</time>
</trkpt>
<trkpt lat="31.3446000" lon="34.8968300">
<ele>436.710022</ele>
<time>2022-03-02T09:13:56.254Z</time>
</trkpt>
<trkpt lat="31.3448400" lon="34.8970900">
<ele>439.859985</ele>
<time>2022-03-02T09:13:56.254Z</time>
</trkpt>
<trkpt lat="31.3450900" lon="34.8973500">
<ele>446.070007</ele>
<time>2022-03-02T09:13:56.254Z</time>
</trkpt>
<trkpt lat="31.3454300" lon="34.8978300">
<ele>446.940002</ele>
<time>2022-03-02T09:13:56.254Z</time>
</trkpt>
<trkpt lat="31.3457900" lon="34.8982400">
<ele>450.580017</ele>
<time>2022-03-02T09:13:56.254Z</time>
</trkpt>
<trkpt lat="31.3459300" lon="34.8984300">
<ele>450.089996</ele>
<time>2022-03-02T09:13:56.254Z</time>
</trkpt>
<trkpt lat="31.3460900" lon="34.8987000">
<ele>451.789978</ele>
<time>2022-03-02T09:13:56.254Z</time>
</trkpt>
<trkpt lat="31.3465000" lon="34.8993100">
<ele>457.410004</ele>
<time>2022-03-02T09:13:56.254Z</time>
</trkpt>
<trkpt lat="31.3465400" lon="34.8994200">
<ele>457.929993</ele>
<time>2022-03-02T09:13:56.254Z</time>
</trkpt>
<trkpt lat="31.3465400" lon="34.8994200">
<ele>457.929993</ele>
<time>2022-03-02T09:13:56.254Z</time>
</trkpt>
<trkpt lat="31.3466600" lon="34.8997500">
<ele>457.160004</ele>
<time>2022-03-02T09:13:56.254Z</time>
</trkpt>
<trkpt lat="31.3466000" lon="34.8997800">
<ele>456.060028</ele>
<time>2022-03-02T09:13:56.254Z</time>
</trkpt>
<trkpt lat="31.3464900" lon="34.8998900">
<ele>453.429993</ele>
<time>2022-03-02T09:13:56.254Z</time>
</trkpt>
<trkpt lat="31.3461800" lon="34.9003600">
<ele>443.359985</ele>
<time>2022-03-02T09:13:56.254Z</time>
</trkpt>
<trkpt lat="31.3460800" lon="34.9004800">
<ele>441.709991</ele>
<time>2022-03-02T09:13:56.254Z</time>
</trkpt>
<trkpt lat="31.3458000" lon="34.9008500">
<ele>434.709991</ele>
<time>2022-03-02T09:13:56.255Z</time>
</trkpt>
<trkpt lat="31.3456700" lon="34.9010600">
<ele>433.970001</ele>
<time>2022-03-02T09:13:56.255Z</time>
</trkpt>
<trkpt lat="31.3456100" lon="34.9011100">
<ele>434.000000</ele>
<time>2022-03-02T09:13:56.255Z</time>
</trkpt>
<trkpt lat="31.3454700" lon="34.9011800">
<ele>434.230011</ele>
<time>2022-03-02T09:13:56.255Z</time>
</trkpt>
<trkpt lat="31.3455400" lon="34.9014700">
<ele>433.139984</ele>
<time>2022-03-02T09:13:56.255Z</time>
</trkpt>
<trkpt lat="31.3455800" lon="34.9016800">
<ele>430.070007</ele>
<time>2022-03-02T09:13:56.255Z</time>
</trkpt>
<trkpt lat="31.3457100" lon="34.9017500">
<ele>425.549988</ele>
<time>2022-03-02T09:13:56.255Z</time>
</trkpt>
<trkpt lat="31.3458000" lon="34.9019000">
<ele>421.980011</ele>
<time>2022-03-02T09:13:56.255Z</time>
</trkpt>
<trkpt lat="31.3458200" lon="34.9019000">
<ele>421.579987</ele>
<time>2022-03-02T09:13:56.255Z</time>
</trkpt>
<trkpt lat="31.3458200" lon="34.9019000">
<ele>421.579987</ele>
<time>2022-03-02T09:13:56.255Z</time>
</trkpt>
<trkpt lat="31.3459400" lon="34.9019000">
<ele>419.660004</ele>
<time>2022-03-02T09:13:56.255Z</time>
</trkpt>
<trkpt lat="31.3460400" lon="34.9017800">
<ele>418.329987</ele>
<time>2022-03-02T09:13:56.255Z</time>
</trkpt>
<trkpt lat="31.3463200" lon="34.9013700">
<ele>420.500000</ele>
<time>2022-03-02T09:13:56.255Z</time>
</trkpt>
<trkpt lat="31.3464500" lon="34.9012000">
<ele>421.459991</ele>
<time>2022-03-02T09:13:56.255Z</time>
</trkpt>
<trkpt lat="31.3466300" lon="34.9009400">
<ele>423.970001</ele>
<time>2022-03-02T09:13:56.255Z</time>
</trkpt>
<trkpt lat="31.3467700" lon="34.9008900">
<ele>425.519989</ele>
<time>2022-03-02T09:13:56.255Z</time>
</trkpt>
<trkpt lat="31.3469400" lon="34.9007900">
<ele>430.500000</ele>
<time>2022-03-02T09:13:56.255Z</time>
</trkpt>
<trkpt lat="31.3471900" lon="34.9007200">
<ele>433.769989</ele>
<time>2022-03-02T09:13:56.255Z</time>
</trkpt>
<trkpt lat="31.3473800" lon="34.9007200">
<ele>434.860016</ele>
<time>2022-03-02T09:13:56.255Z</time>
</trkpt>
<trkpt lat="31.3476200" lon="34.9008000">
<ele>435.399994</ele>
<time>2022-03-02T09:13:56.255Z</time>
</trkpt>
<trkpt lat="31.3476900" lon="34.9008900">
<ele>435.300018</ele>
<time>2022-03-02T09:13:56.255Z</time>
</trkpt>
<trkpt lat="31.3477000" lon="34.9009800">
<ele>435.290009</ele>
<time>2022-03-02T09:13:56.255Z</time>
</trkpt>
<trkpt lat="31.3475600" lon="34.9010900">
<ele>433.710022</ele>
<time>2022-03-02T09:13:56.255Z</time>
</trkpt>
<trkpt lat="31.3473500" lon="34.9013000">
<ele>431.289978</ele>
<time>2022-03-02T09:13:56.255Z</time>
</trkpt>
<trkpt lat="31.3471900" lon="34.9015700">
<ele>428.950012</ele>
<time>2022-03-02T09:13:56.255Z</time>
</trkpt>
<trkpt lat="31.3471000" lon="34.9017500">
<ele>425.950012</ele>
<time>2022-03-02T09:13:56.255Z</time>
</trkpt>
<trkpt lat="31.3471000" lon="34.9018700">
<ele>426.279999</ele>
<time>2022-03-02T09:13:56.255Z</time>
</trkpt>
<trkpt lat="31.3471300" lon="34.9019600">
<ele>427.440002</ele>
<time>2022-03-02T09:13:56.256Z</time>
</trkpt>
<trkpt lat="31.3473000" lon="34.9021300">
<ele>432.820007</ele>
<time>2022-03-02T09:13:56.256Z</time>
</trkpt>
<trkpt lat="31.3475200" lon="34.9022600">
<ele>439.529999</ele>
<time>2022-03-02T09:13:56.256Z</time>
</trkpt>
<trkpt lat="31.3476500" lon="34.9023200">
<ele>439.130005</ele>
<time>2022-03-02T09:13:56.256Z</time>
</trkpt>
<trkpt lat="31.3476500" lon="34.9023200">
<ele>439.130005</ele>
<time>2022-03-02T09:13:56.256Z</time>
</trkpt>
<trkpt lat="31.3476900" lon="34.9023300">
<ele>439.130005</ele>
<time>2022-03-02T09:13:56.256Z</time>
</trkpt>
<trkpt lat="31.3479200" lon="34.9023500">
<ele>440.929993</ele>
<time>2022-03-02T09:13:56.256Z</time>
</trkpt>
<trkpt lat="31.3480800" lon="34.9024200">
<ele>442.480011</ele>
<time>2022-03-02T09:13:56.256Z</time>
</trkpt>
<trkpt lat="31.3482700" lon="34.9025000">
<ele>446.399994</ele>
<time>2022-03-02T09:13:56.256Z</time>
</trkpt>
<trkpt lat="31.3484400" lon="34.9025500">
<ele>446.459991</ele>
<time>2022-03-02T09:13:56.256Z</time>
</trkpt>
<trkpt lat="31.3486100" lon="34.9024900">
<ele>448.220001</ele>
<time>2022-03-02T09:13:56.256Z</time>
</trkpt>
<trkpt lat="31.3487300" lon="34.9023300">
<ele>449.100006</ele>
<time>2022-03-02T09:13:56.256Z</time>
</trkpt>
<trkpt lat="31.3489400" lon="34.9021600">
<ele>448.789978</ele>
<time>2022-03-02T09:13:56.256Z</time>
</trkpt>
<trkpt lat="31.3491400" lon="34.9020300">
<ele>449.440002</ele>
<time>2022-03-02T09:13:56.256Z</time>
</trkpt>
<trkpt lat="31.3493800" lon="34.9018100">
<ele>449.980011</ele>
<time>2022-03-02T09:13:56.256Z</time>
</trkpt>
<trkpt lat="31.3495200" lon="34.9016500">
<ele>450.299988</ele>
<time>2022-03-02T09:13:56.256Z</time>
</trkpt>
<trkpt lat="31.3496500" lon="34.9014400">
<ele>450.410004</ele>
<time>2022-03-02T09:13:56.256Z</time>
</trkpt>
<trkpt lat="31.3496900" lon="34.9013600">
<ele>450.679993</ele>
<time>2022-03-02T09:13:56.256Z</time>
</trkpt>
<trkpt lat="31.3496900" lon="34.9013600">
<ele>450.679993</ele>
<time>2022-03-02T09:13:56.256Z</time>
</trkpt>
<trkpt lat="31.3497600" lon="34.9011900">
<ele>451.570007</ele>
<time>2022-03-02T09:13:56.256Z</time>
</trkpt>
<trkpt lat="31.3498700" lon="34.9010300">
<ele>452.619995</ele>
<time>2022-03-02T09:13:56.256Z</time>
</trkpt>
<trkpt lat="31.3500200" lon="34.9008400">
<ele>454.290009</ele>
<time>2022-03-02T09:13:56.256Z</time>
</trkpt>
<trkpt lat="31.3501700" lon="34.9007200">
<ele>452.800018</ele>
<time>2022-03-02T09:13:56.256Z</time>
</trkpt>
<trkpt lat="31.3503700" lon="34.9006300">
<ele>453.960022</ele>
<time>2022-03-02T09:13:56.256Z</time>
</trkpt>
<trkpt lat="31.3505700" lon="34.9005700">
<ele>458.910004</ele>
<time>2022-03-02T09:13:56.256Z</time>
</trkpt>
<trkpt lat="31.3507800" lon="34.9007200">
<ele>460.380005</ele>
<time>2022-03-02T09:13:56.256Z</time>
</trkpt>
<trkpt lat="31.3509300" lon="34.9009900">
<ele>457.250000</ele>
<time>2022-03-02T09:13:56.256Z</time>
</trkpt>
<trkpt lat="31.3510300" lon="34.9011300">
<ele>454.119995</ele>
<time>2022-03-02T09:13:56.257Z</time>
</trkpt>
<trkpt lat="31.3511600" lon="34.9012100">
<ele>451.630005</ele>
<time>2022-03-02T09:13:56.257Z</time>
</trkpt>
<trkpt lat="31.3513300" lon="34.9011700">
<ele>452.019989</ele>
<time>2022-03-02T09:13:56.257Z</time>
</trkpt>
<trkpt lat="31.3515000" lon="34.9011000">
<ele>453.119995</ele>
<time>2022-03-02T09:13:56.257Z</time>
</trkpt>
<trkpt lat="31.3516200" lon="34.9007800">
<ele>455.970001</ele>
<time>2022-03-02T09:13:56.257Z</time>
</trkpt>
<trkpt lat="31.3517100" lon="34.9004800">
<ele>455.309998</ele>
<time>2022-03-02T09:13:56.257Z</time>
</trkpt>
<trkpt lat="31.3517800" lon="34.9001600">
<ele>457.809998</ele>
<time>2022-03-02T09:13:56.257Z</time>
</trkpt>
<trkpt lat="31.3518300" lon="34.8998700">
<ele>461.000000</ele>
<time>2022-03-02T09:13:56.257Z</time>
</trkpt>
<trkpt lat="31.3519100" lon="34.8996500">
<ele>463.779999</ele>
<time>2022-03-02T09:13:56.257Z</time>
</trkpt>
<trkpt lat="31.3520500" lon="34.8995300">
<ele>466.220001</ele>
<time>2022-03-02T09:13:56.257Z</time>
</trkpt>
<trkpt lat="31.3522000" lon="34.8994200">
<ele>469.100006</ele>
<time>2022-03-02T09:13:56.257Z</time>
</trkpt>
<trkpt lat="31.3522800" lon="34.8994700">
<ele>470.010010</ele>
<time>2022-03-02T09:13:56.257Z</time>
</trkpt>
<trkpt lat="31.3523100" lon="34.8996000">
<ele>469.570007</ele>
<time>2022-03-02T09:13:56.257Z</time>
</trkpt>
<trkpt lat="31.3523300" lon="34.8997500">
<ele>468.399994</ele>
<time>2022-03-02T09:13:56.257Z</time>
</trkpt>
<trkpt lat="31.3524200" lon="34.9000900">
<ele>462.339996</ele>
<time>2022-03-02T09:13:56.257Z</time>
</trkpt>
<trkpt lat="31.3526000" lon="34.9001600">
<ele>462.290009</ele>
<time>2022-03-02T09:13:56.257Z</time>
</trkpt>
<trkpt lat="31.3528200" lon="34.9002300">
<ele>461.960022</ele>
<time>2022-03-02T09:13:56.257Z</time>
</trkpt>
<trkpt lat="31.3530700" lon="34.9002100">
<ele>462.889984</ele>
<time>2022-03-02T09:13:56.257Z</time>
</trkpt>
<trkpt lat="31.3532500" lon="34.9001300">
<ele>465.699982</ele>
<time>2022-03-02T09:13:56.257Z</time>
</trkpt>
<trkpt lat="31.3533900" lon="34.9001400">
<ele>467.100006</ele>
<time>2022-03-02T09:13:56.257Z</time>
</trkpt>
<trkpt lat="31.3536900" lon="34.9002100">
<ele>465.350006</ele>
<time>2022-03-02T09:13:56.257Z</time>
</trkpt>
<trkpt lat="31.3539300" lon="34.9001600">
<ele>462.329987</ele>
<time>2022-03-02T09:13:56.257Z</time>
</trkpt>
<trkpt lat="31.3541300" lon="34.9000800">
<ele>463.110016</ele>
<time>2022-03-02T09:13:56.257Z</time>
</trkpt>
<trkpt lat="31.3543300" lon="34.8998900">
<ele>467.820007</ele>
<time>2022-03-02T09:13:56.257Z</time>
</trkpt>
<trkpt lat="31.3544900" lon="34.8996900">
<ele>469.580017</ele>
<time>2022-03-02T09:13:56.257Z</time>
</trkpt>
<trkpt lat="31.3545900" lon="34.8994600">
<ele>469.790009</ele>
<time>2022-03-02T09:13:56.257Z</time>
</trkpt>
<trkpt lat="31.3546100" lon="34.8993300">
<ele>469.859985</ele>
<time>2022-03-02T09:13:56.258Z</time>
</trkpt>
<trkpt lat="31.3546100" lon="34.8991000">
<ele>470.409973</ele>
<time>2022-03-02T09:13:56.258Z</time>
</trkpt>
<trkpt lat="31.3546200" lon="34.8989400">
<ele>470.700012</ele>
<time>2022-03-02T09:13:56.258Z</time>
</trkpt>
<trkpt lat="31.3547100" lon="34.8987700">
<ele>470.470001</ele>
<time>2022-03-02T09:13:56.258Z</time>
</trkpt>
<trkpt lat="31.3547400" lon="34.8986500">
<ele>471.320007</ele>
<time>2022-03-02T09:13:56.258Z</time>
</trkpt>
<trkpt lat="31.3547700" lon="34.8985900">
<ele>471.750000</ele>
<time>2022-03-02T09:13:56.258Z</time>
</trkpt>
<trkpt lat="31.3549900" lon="34.8985500">
<ele>469.250031</ele>
<time>2022-03-02T09:13:56.258Z</time>
</trkpt>
<trkpt lat="31.3550700" lon="34.8984500">
<ele>470.100006</ele>
<time>2022-03-02T09:13:56.258Z</time>
</trkpt>
<trkpt lat="31.3551700" lon="34.8983900">
<ele>469.779999</ele>
<time>2022-03-02T09:13:56.258Z</time>
</trkpt>
<trkpt lat="31.3555100" lon="34.8983000">
<ele>473.740021</ele>
<time>2022-03-02T09:13:56.258Z</time>
</trkpt>
<trkpt lat="31.3555200" lon="34.8982900">
<ele>474.059998</ele>
<time>2022-03-02T09:13:56.258Z</time>
</trkpt>
<trkpt lat="31.3555200" lon="34.8982900">
<ele>474.059998</ele>
<time>2022-03-02T09:13:56.258Z</time>
</trkpt>
<trkpt lat="31.3557600" lon="34.8981900">
<ele>474.239990</ele>
<time>2022-03-02T09:13:56.258Z</time>
</trkpt>
<trkpt lat="31.3559500" lon="34.8979700">
<ele>476.079987</ele>
<time>2022-03-02T09:13:56.258Z</time>
</trkpt>
<trkpt lat="31.3561300" lon="34.8978700">
<ele>475.889984</ele>
<time>2022-03-02T09:13:56.258Z</time>
</trkpt>
<trkpt lat="31.3564800" lon="34.8976800">
<ele>477.589996</ele>
<time>2022-03-02T09:13:56.258Z</time>
</trkpt>
<trkpt lat="31.3566200" lon="34.8975200">
<ele>480.880005</ele>
<time>2022-03-02T09:13:56.258Z</time>
</trkpt>
<trkpt lat="31.3568200" lon="34.8974700">
<ele>483.399994</ele>
<time>2022-03-02T09:13:56.258Z</time>
</trkpt>
<trkpt lat="31.3570600" lon="34.8973000">
<ele>495.500000</ele>
<time>2022-03-02T09:13:56.258Z</time>
</trkpt>
<trkpt lat="31.3572100" lon="34.8973000">
<ele>500.509979</ele>
<time>2022-03-02T09:13:56.258Z</time>
</trkpt>
<trkpt lat="31.3574000" lon="34.8973300">
<ele>503.289978</ele>
<time>2022-03-02T09:13:56.258Z</time>
</trkpt>
<trkpt lat="31.3575500" lon="34.8972800">
<ele>506.989990</ele>
<time>2022-03-02T09:13:56.258Z</time>
</trkpt>
<trkpt lat="31.3576500" lon="34.8972400">
<ele>508.330017</ele>
<time>2022-03-02T09:13:56.258Z</time>
</trkpt>
<trkpt lat="31.3576900" lon="34.8972400">
<ele>508.540009</ele>
<time>2022-03-02T09:13:56.258Z</time>
</trkpt>
<trkpt lat="31.3578800" lon="34.8973000">
<ele>507.309998</ele>
<time>2022-03-02T09:13:56.259Z</time>
</trkpt>
<trkpt lat="31.3580200" lon="34.8971200">
<ele>501.699982</ele>
<time>2022-03-02T09:13:56.259Z</time>
</trkpt>
<trkpt lat="31.3581200" lon="34.8967100">
<ele>491.769989</ele>
<time>2022-03-02T09:13:56.259Z</time>
</trkpt>
<trkpt lat="31.3580700" lon="34.8965000">
<ele>489.620026</ele>
<time>2022-03-02T09:13:56.259Z</time>
</trkpt>
<trkpt lat="31.3579900" lon="34.8963400">
<ele>491.019989</ele>
<time>2022-03-02T09:13:56.259Z</time>
</trkpt>
<trkpt lat="31.3577800" lon="34.8959500">
<ele>495.600006</ele>
<time>2022-03-02T09:13:56.259Z</time>
</trkpt>
<trkpt lat="31.3576500" lon="34.8957300">
<ele>492.750031</ele>
<time>2022-03-02T09:13:56.259Z</time>
</trkpt>
<trkpt lat="31.3574900" lon="34.8954500">
<ele>487.669983</ele>
<time>2022-03-02T09:13:56.259Z</time>
</trkpt>
<trkpt lat="31.3573600" lon="34.8951000">
<ele>480.700012</ele>
<time>2022-03-02T09:13:56.259Z</time>
</trkpt>
<trkpt lat="31.3572900" lon="34.8947300">
<ele>476.659973</ele>
<time>2022-03-02T09:13:56.259Z</time>
</trkpt>
<trkpt lat="31.3572900" lon="34.8945500">
<ele>476.380005</ele>
<time>2022-03-02T09:13:56.259Z</time>
</trkpt>
<trkpt lat="31.3572700" lon="34.8944000">
<ele>476.319977</ele>
<time>2022-03-02T09:13:56.259Z</time>
</trkpt>
<trkpt lat="31.3572500" lon="34.8941900">
<ele>474.550018</ele>
<time>2022-03-02T09:13:56.259Z</time>
</trkpt>
<trkpt lat="31.3572600" lon="34.8940400">
<ele>473.799988</ele>
<time>2022-03-02T09:13:56.259Z</time>
</trkpt>
<trkpt lat="31.3570800" lon="34.8936000">
<ele>480.019989</ele>
<time>2022-03-02T09:13:56.259Z</time>
</trkpt>
<trkpt lat="31.3570200" lon="34.8933500">
<ele>479.919983</ele>
<time>2022-03-02T09:13:56.259Z</time>
</trkpt>
<trkpt lat="31.3570200" lon="34.8933400">
<ele>479.809998</ele>
<time>2022-03-02T09:13:56.259Z</time>
</trkpt>
<trkpt lat="31.3570200" lon="34.8933400">
<ele>479.809998</ele>
<time>2022-03-02T09:13:56.259Z</time>
</trkpt>
<trkpt lat="31.3568700" lon="34.8930100">
<ele>479.190002</ele>
<time>2022-03-02T09:13:56.259Z</time>
</trkpt>
<trkpt lat="31.3567500" lon="34.8925300">
<ele>478.320007</ele>
<time>2022-03-02T09:13:56.259Z</time>
</trkpt>
<trkpt lat="31.3567600" lon="34.8921400">
<ele>475.660004</ele>
<time>2022-03-02T09:13:56.259Z</time>
</trkpt>
<trkpt lat="31.3568400" lon="34.8917000">
<ele>471.000000</ele>
<time>2022-03-02T09:13:56.259Z</time>
</trkpt>
<trkpt lat="31.3570100" lon="34.8910600">
<ele>467.350006</ele>
<time>2022-03-02T09:13:56.259Z</time>
</trkpt>
<trkpt lat="31.3572800" lon="34.8905500">
<ele>459.180023</ele>
<time>2022-03-02T09:13:56.259Z</time>
</trkpt>
<trkpt lat="31.3574100" lon="34.8900000">
<ele>457.179993</ele>
<time>2022-03-02T09:13:56.259Z</time>
</trkpt>
<trkpt lat="31.3575700" lon="34.8893600">
<ele>458.679993</ele>
<time>2022-03-02T09:13:56.259Z</time>
</trkpt>
<trkpt lat="31.3577400" lon="34.8887800">
<ele>462.459991</ele>
<time>2022-03-02T09:13:56.260Z</time>
</trkpt>
<trkpt lat="31.3578500" lon="34.8882400">
<ele>461.869995</ele>
<time>2022-03-02T09:13:56.260Z</time>
</trkpt>
<trkpt lat="31.3579400" lon="34.8879200">
<ele>460.970001</ele>
<time>2022-03-02T09:13:56.260Z</time>
</trkpt>
<trkpt lat="31.3580000" lon="34.8877200">
<ele>460.399994</ele>
<time>2022-03-02T09:13:56.260Z</time>
</trkpt>
<trkpt lat="31.3582300" lon="34.8871900">
<ele>459.199982</ele>
<time>2022-03-02T09:13:56.260Z</time>
</trkpt>
<trkpt lat="31.3583300" lon="34.8869300">
<ele>458.059998</ele>
<time>2022-03-02T09:13:56.260Z</time>
</trkpt>
<trkpt lat="31.3583300" lon="34.8867100">
<ele>458.049988</ele>
<time>2022-03-02T09:13:56.260Z</time>
</trkpt>
<trkpt lat="31.3583300" lon="34.8867100">
<ele>458.049988</ele>
<time>2022-03-02T09:13:56.260Z</time>
</trkpt>
<trkpt lat="31.3583200" lon="34.8864700">
<ele>457.420013</ele>
<time>2022-03-02T09:13:56.260Z</time>
</trkpt>
<trkpt lat="31.3582800" lon="34.8860900">
<ele>455.169983</ele>
<time>2022-03-02T09:13:56.260Z</time>
</trkpt>
<trkpt lat="31.3582600" lon="34.8855500">
<ele>450.849976</ele>
<time>2022-03-02T09:13:56.260Z</time>
</trkpt>
<trkpt lat="31.3582000" lon="34.8854100">
<ele>451.880005</ele>
<time>2022-03-02T09:13:56.260Z</time>
</trkpt>
<trkpt lat="31.3581000" lon="34.8852600">
<ele>452.580017</ele>
<time>2022-03-02T09:13:56.260Z</time>
</trkpt>
<trkpt lat="31.3580800" lon="34.8851800">
<ele>453.089996</ele>
<time>2022-03-02T09:13:56.260Z</time>
</trkpt>
<trkpt lat="31.3581000" lon="34.8848800">
<ele>453.230011</ele>
<time>2022-03-02T09:13:56.260Z</time>
</trkpt>
<trkpt lat="31.3580700" lon="34.8847100">
<ele>452.859985</ele>
<time>2022-03-02T09:13:56.260Z</time>
</trkpt>
<trkpt lat="31.3580000" lon="34.8846000">
<ele>452.210022</ele>
<time>2022-03-02T09:13:56.260Z</time>
</trkpt>
<trkpt lat="31.3579000" lon="34.8844300">
<ele>451.399994</ele>
<time>2022-03-02T09:13:56.260Z</time>
</trkpt>
<trkpt lat="31.3578300" lon="34.8843700">
<ele>450.840027</ele>
<time>2022-03-02T09:13:56.260Z</time>
</trkpt>
<trkpt lat="31.3577400" lon="34.8844000">
<ele>451.149994</ele>
<time>2022-03-02T09:13:56.260Z</time>
</trkpt>
<trkpt lat="31.3575600" lon="34.8846800">
<ele>450.620026</ele>
<time>2022-03-02T09:13:56.260Z</time>
</trkpt>
<trkpt lat="31.3575100" lon="34.8849000">
<ele>448.230011</ele>
<time>2022-03-02T09:13:56.260Z</time>
</trkpt>
<trkpt lat="31.3575100" lon="34.8854200">
<ele>445.289978</ele>
<time>2022-03-02T09:13:56.260Z</time>
</trkpt>
<trkpt lat="31.3574300" lon="34.8856200">
<ele>443.890015</ele>
<time>2022-03-02T09:13:56.260Z</time>
</trkpt>
<trkpt lat="31.3574300" lon="34.8859400">
<ele>447.059998</ele>
<time>2022-03-02T09:13:56.260Z</time>
</trkpt>
<trkpt lat="31.3572500" lon="34.8862400">
<ele>448.879974</ele>
<time>2022-03-02T09:13:56.261Z</time>
</trkpt>
<trkpt lat="31.3571300" lon="34.8865400">
<ele>454.090027</ele>
<time>2022-03-02T09:13:56.261Z</time>
</trkpt>
<trkpt lat="31.3569800" lon="34.8868500">
<ele>459.449982</ele>
<time>2022-03-02T09:13:56.261Z</time>
</trkpt>
<trkpt lat="31.3567700" lon="34.8868300">
<ele>461.589996</ele>
<time>2022-03-02T09:13:56.261Z</time>
</trkpt>
<trkpt lat="31.3566500" lon="34.8867500">
<ele>460.750000</ele>
<time>2022-03-02T09:13:56.261Z</time>
</trkpt>
<trkpt lat="31.3564900" lon="34.8865000">
<ele>456.220001</ele>
<time>2022-03-02T09:13:56.261Z</time>
</trkpt>
<trkpt lat="31.3564600" lon="34.8863500">
<ele>454.019989</ele>
<time>2022-03-02T09:13:56.261Z</time>
</trkpt>
<trkpt lat="31.3564600" lon="34.8863400">
<ele>453.839996</ele>
<time>2022-03-02T09:13:56.261Z</time>
</trkpt>
<trkpt lat="31.3564600" lon="34.8863400">
<ele>453.839996</ele>
<time>2022-03-02T09:13:56.261Z</time>
</trkpt>
<trkpt lat="31.3562700" lon="34.8860200">
<ele>452.220001</ele>
<time>2022-03-02T09:13:56.261Z</time>
</trkpt>
<trkpt lat="31.3559700" lon="34.8856000">
<ele>452.609985</ele>
<time>2022-03-02T09:13:56.261Z</time>
</trkpt>
<trkpt lat="31.3558400" lon="34.8855000">
<ele>453.679993</ele>
<time>2022-03-02T09:13:56.261Z</time>
</trkpt>
<trkpt lat="31.3557400" lon="34.8851900">
<ele>447.989990</ele>
<time>2022-03-02T09:13:56.261Z</time>
</trkpt>
<trkpt lat="31.3555700" lon="34.8850000">
<ele>444.949982</ele>
<time>2022-03-02T09:13:56.261Z</time>
</trkpt>
<trkpt lat="31.3553900" lon="34.8848600">
<ele>447.849976</ele>
<time>2022-03-02T09:13:56.261Z</time>
</trkpt>
<trkpt lat="31.3553400" lon="34.8847400">
<ele>447.979980</ele>
<time>2022-03-02T09:13:56.261Z</time>
</trkpt>
<trkpt lat="31.3553600" lon="34.8842700">
<ele>445.409973</ele>
<time>2022-03-02T09:13:56.262Z</time>
</trkpt>
<trkpt lat="31.3554000" lon="34.8840600">
<ele>444.379974</ele>
<time>2022-03-02T09:13:56.262Z</time>
</trkpt>
<trkpt lat="31.3554300" lon="34.8839100">
<ele>443.099976</ele>
<time>2022-03-02T09:13:56.262Z</time>
</trkpt>
<trkpt lat="31.3553900" lon="34.8836500">
<ele>442.830017</ele>
<time>2022-03-02T09:13:56.262Z</time>
</trkpt>
<trkpt lat="31.3552400" lon="34.8832200">
<ele>440.019989</ele>
<time>2022-03-02T09:13:56.262Z</time>
</trkpt>
<trkpt lat="31.3550400" lon="34.8829200">
<ele>434.970001</ele>
<time>2022-03-02T09:13:56.262Z</time>
</trkpt>
<trkpt lat="31.3547900" lon="34.8828400">
<ele>433.419983</ele>
<time>2022-03-02T09:13:56.262Z</time>
</trkpt>
<trkpt lat="31.3545300" lon="34.8828000">
<ele>433.230011</ele>
<time>2022-03-02T09:13:56.262Z</time>
</trkpt>
<trkpt lat="31.3543900" lon="34.8827300">
<ele>432.640015</ele>
<time>2022-03-02T09:13:56.262Z</time>
</trkpt>
<trkpt lat="31.3541500" lon="34.8828400">
<ele>434.910004</ele>
<time>2022-03-02T09:13:56.262Z</time>
</trkpt>
<trkpt lat="31.3540700" lon="34.8829100">
<ele>436.070007</ele>
<time>2022-03-02T09:13:56.262Z</time>
</trkpt>
<trkpt lat="31.3538600" lon="34.8828100">
<ele>434.709991</ele>
<time>2022-03-02T09:13:56.262Z</time>
</trkpt>
<trkpt lat="31.3536700" lon="34.8827500">
<ele>434.130005</ele>
<time>2022-03-02T09:13:56.262Z</time>
</trkpt>
<trkpt lat="31.3534400" lon="34.8825300">
<ele>425.739990</ele>
<time>2022-03-02T09:13:56.262Z</time>
</trkpt>
<trkpt lat="31.3532300" lon="34.8824200">
<ele>421.200012</ele>
<time>2022-03-02T09:13:56.262Z</time>
</trkpt>
<trkpt lat="31.3531200" lon="34.8823700">
<ele>420.440002</ele>
<time>2022-03-02T09:13:56.262Z</time>
</trkpt>
<trkpt lat="31.3529000" lon="34.8824300">
<ele>421.040009</ele>
<time>2022-03-02T09:13:56.262Z</time>
</trkpt>
<trkpt lat="31.3525400" lon="34.8825900">
<ele>422.089996</ele>
<time>2022-03-02T09:13:56.262Z</time>
</trkpt>
<trkpt lat="31.3523300" lon="34.8824800">
<ele>420.329987</ele>
<time>2022-03-02T09:13:56.262Z</time>
</trkpt>
<trkpt lat="31.3521400" lon="34.8824700">
<ele>416.080017</ele>
<time>2022-03-02T09:13:56.262Z</time>
</trkpt>
<trkpt lat="31.3521000" lon="34.8824900">
<ele>414.960022</ele>
<time>2022-03-02T09:13:56.262Z</time>
</trkpt>
<trkpt lat="31.3521000" lon="34.8824900">
<ele>414.960022</ele>
<time>2022-03-02T09:13:56.262Z</time>
</trkpt>
<trkpt lat="31.3518400" lon="34.8826400">
<ele>411.710022</ele>
<time>2022-03-02T09:13:56.262Z</time>
</trkpt>
<trkpt lat="31.3516000" lon="34.8829200">
<ele>411.260010</ele>
<time>2022-03-02T09:13:56.263Z</time>
</trkpt>
<trkpt lat="31.3514200" lon="34.8831400">
<ele>410.559967</ele>
<time>2022-03-02T09:13:56.263Z</time>
</trkpt>
<trkpt lat="31.3513000" lon="34.8832900">
<ele>408.500000</ele>
<time>2022-03-02T09:13:56.263Z</time>
</trkpt>
<trkpt lat="31.3511700" lon="34.8835100">
<ele>407.660004</ele>
<time>2022-03-02T09:13:56.263Z</time>
</trkpt>
<trkpt lat="31.3511200" lon="34.8836700">
<ele>407.880005</ele>
<time>2022-03-02T09:13:56.263Z</time>
</trkpt>
<trkpt lat="31.3511600" lon="34.8839100">
<ele>410.589996</ele>
<time>2022-03-02T09:13:56.263Z</time>
</trkpt>
<trkpt lat="31.3511200" lon="34.8840100">
<ele>411.739990</ele>
<time>2022-03-02T09:13:56.263Z</time>
</trkpt>
<trkpt lat="31.3511900" lon="34.8841900">
<ele>412.779999</ele>
<time>2022-03-02T09:13:56.263Z</time>
</trkpt>
<trkpt lat="31.3513100" lon="34.8843600">
<ele>409.369995</ele>
<time>2022-03-02T09:13:56.263Z</time>
</trkpt>
<trkpt lat="31.3516000" lon="34.8845900">
<ele>410.229980</ele>
<time>2022-03-02T09:13:56.263Z</time>
</trkpt>
<trkpt lat="31.3518000" lon="34.8846600">
<ele>412.809998</ele>
<time>2022-03-02T09:13:56.263Z</time>
</trkpt>
<trkpt lat="31.3519500" lon="34.8847200">
<ele>414.220001</ele>
<time>2022-03-02T09:13:56.263Z</time>
</trkpt>
<trkpt lat="31.3521500" lon="34.8847000">
<ele>420.940002</ele>
<time>2022-03-02T09:13:56.263Z</time>
</trkpt>
<trkpt lat="31.3522700" lon="34.8847400">
<ele>424.269989</ele>
<time>2022-03-02T09:13:56.263Z</time>
</trkpt>
<trkpt lat="31.3523900" lon="34.8847900">
<ele>427.169983</ele>
<time>2022-03-02T09:13:56.263Z</time>
</trkpt>
<trkpt lat="31.3523500" lon="34.8849800">
<ele>422.570007</ele>
<time>2022-03-02T09:13:56.263Z</time>
</trkpt>
<trkpt lat="31.3523300" lon="34.8850900">
<ele>421.070007</ele>
<time>2022-03-02T09:13:56.263Z</time>
</trkpt>
<trkpt lat="31.3521100" lon="34.8851300">
<ele>415.019989</ele>
<time>2022-03-02T09:13:56.263Z</time>
</trkpt>
<trkpt lat="31.3521100" lon="34.8851300">
<ele>415.019989</ele>
<time>2022-03-02T09:13:56.263Z</time>
</trkpt>
<trkpt lat="31.3520600" lon="34.8851400">
<ele>413.609985</ele>
<time>2022-03-02T09:13:56.263Z</time>
</trkpt>
<trkpt lat="31.3517500" lon="34.8851700">
<ele>410.000031</ele>
<time>2022-03-02T09:13:56.263Z</time>
</trkpt>
<trkpt lat="31.3517100" lon="34.8851500">
<ele>409.749969</ele>
<time>2022-03-02T09:13:56.263Z</time>
</trkpt>
<trkpt lat="31.3516000" lon="34.8852500">
<ele>410.649994</ele>
<time>2022-03-02T09:13:56.263Z</time>
</trkpt>
<trkpt lat="31.3514500" lon="34.8851900">
<ele>409.559998</ele>
<time>2022-03-02T09:13:56.263Z</time>
</trkpt>
<trkpt lat="31.3513000" lon="34.8851700">
<ele>408.149994</ele>
<time>2022-03-02T09:13:56.263Z</time>
</trkpt>
<trkpt lat="31.3511000" lon="34.8851700">
<ele>406.100006</ele>
<time>2022-03-02T09:13:56.263Z</time>
</trkpt>
<trkpt lat="31.3510000" lon="34.8850300">
<ele>404.329987</ele>
<time>2022-03-02T09:13:56.264Z</time>
</trkpt>
<trkpt lat="31.3506900" lon="34.8846500">
<ele>410.269989</ele>
<time>2022-03-02T09:13:56.264Z</time>
</trkpt>
<trkpt lat="31.3504700" lon="34.8843200">
<ele>405.559998</ele>
<time>2022-03-02T09:13:56.264Z</time>
</trkpt>
<trkpt lat="31.3503800" lon="34.8841600">
<ele>400.750000</ele>
<time>2022-03-02T09:13:56.264Z</time>
</trkpt>
<trkpt lat="31.3502800" lon="34.8840400">
<ele>397.660004</ele>
<time>2022-03-02T09:13:56.264Z</time>
</trkpt>
<trkpt lat="31.3501300" lon="34.8841700">
<ele>397.480011</ele>
<time>2022-03-02T09:13:56.264Z</time>
</trkpt>
<trkpt lat="31.3499400" lon="34.8840600">
<ele>396.210022</ele>
<time>2022-03-02T09:13:56.264Z</time>
</trkpt>
<trkpt lat="31.3499400" lon="34.8840700">
<ele>396.229980</ele>
<time>2022-03-02T09:13:56.264Z</time>
</trkpt>
<trkpt lat="31.3495800" lon="34.8838700">
<ele>400.540009</ele>
<time>2022-03-02T09:13:56.264Z</time>
</trkpt>
<trkpt lat="31.3494200" lon="34.8837800">
<ele>401.789978</ele>
<time>2022-03-02T09:13:56.264Z</time>
</trkpt>
<trkpt lat="31.3490800" lon="34.8828100">
<ele>395.170013</ele>
<time>2022-03-02T09:13:56.264Z</time>
</trkpt>
<trkpt lat="31.3487200" lon="34.8826000">
<ele>387.750000</ele>
<time>2022-03-02T09:13:56.264Z</time>
</trkpt>
<trkpt lat="31.3492800" lon="34.8824000">
<ele>385.660004</ele>
<time>2022-03-02T09:13:56.264Z</time>
</trkpt>
<trkpt lat="31.3495100" lon="34.8822700">
<ele>384.899994</ele>
<time>2022-03-02T09:13:56.264Z</time>
</trkpt>
<trkpt lat="31.3496200" lon="34.8821700">
<ele>385.589996</ele>
<time>2022-03-02T09:13:56.264Z</time>
</trkpt>
<trkpt lat="31.3497400" lon="34.8819700">
<ele>387.000000</ele>
<time>2022-03-02T09:13:56.264Z</time>
</trkpt>
<trkpt lat="31.3498300" lon="34.8817100">
<ele>388.940002</ele>
<time>2022-03-02T09:13:56.264Z</time>
</trkpt>
<trkpt lat="31.3499600" lon="34.8808600">
<ele>390.550018</ele>
<time>2022-03-02T09:13:56.264Z</time>
</trkpt>
<trkpt lat="31.3500500" lon="34.8803000">
<ele>391.809967</ele>
<time>2022-03-02T09:13:56.264Z</time>
</trkpt>
<trkpt lat="31.3500700" lon="34.8800800">
<ele>392.280029</ele>
<time>2022-03-02T09:13:56.264Z</time>
</trkpt>
<trkpt lat="31.3501700" lon="34.8792100">
<ele>392.779999</ele>
<time>2022-03-02T09:13:56.264Z</time>
</trkpt>
<trkpt lat="31.3502400" lon="34.8782800">
<ele>394.529999</ele>
<time>2022-03-02T09:13:56.264Z</time>
</trkpt>
<trkpt lat="31.3502400" lon="34.8778700">
<ele>392.559998</ele>
<time>2022-03-02T09:13:56.264Z</time>
</trkpt>
<trkpt lat="31.3502100" lon="34.8774900">
<ele>394.519989</ele>
<time>2022-03-02T09:13:56.264Z</time>
</trkpt>
<trkpt lat="31.3501800" lon="34.8773100">
<ele>395.390015</ele>
<time>2022-03-02T09:13:56.264Z</time>
</trkpt>
<trkpt lat="31.3500700" lon="34.8768900">
<ele>395.799988</ele>
<time>2022-03-02T09:13:56.264Z</time>
</trkpt>
<trkpt lat="31.3500600" lon="34.8767500">
<ele>395.299988</ele>
<time>2022-03-02T09:13:56.264Z</time>
</trkpt>
<trkpt lat="31.3500700" lon="34.8765900">
<ele>395.209991</ele>
<time>2022-03-02T09:13:56.264Z</time>
</trkpt>
<trkpt lat="31.3501000" lon="34.8765000">
<ele>395.380005</ele>
<time>2022-03-02T09:13:56.264Z</time>
</trkpt>
<trkpt lat="31.3501800" lon="34.8763800">
<ele>395.400024</ele>
<time>2022-03-02T09:13:56.264Z</time>
</trkpt>
<trkpt lat="31.3503100" lon="34.8763400">
<ele>395.079987</ele>
<time>2022-03-02T09:13:56.265Z</time>
</trkpt>
<trkpt lat="31.3504600" lon="34.8761200">
<ele>395.950012</ele>
<time>2022-03-02T09:13:56.265Z</time>
</trkpt>
<trkpt lat="31.3507900" lon="34.8754100">
<ele>398.610016</ele>
<time>2022-03-02T09:13:56.265Z</time>
</trkpt>
<trkpt lat="31.3507300" lon="34.8747200">
<ele>402.120026</ele>
<time>2022-03-02T09:13:56.265Z</time>
</trkpt>
<trkpt lat="31.3505700" lon="34.8741600">
<ele>400.950012</ele>
<time>2022-03-02T09:13:56.265Z</time>
</trkpt>
<trkpt lat="31.3507500" lon="34.8738500">
<ele>400.360016</ele>
<time>2022-03-02T09:13:56.265Z</time>
</trkpt>
<trkpt lat="31.3508700" lon="34.8737100">
<ele>400.950012</ele>
<time>2022-03-02T09:13:56.265Z</time>
</trkpt>
<trkpt lat="31.3508700" lon="34.8735700">
<ele>400.889984</ele>
<time>2022-03-02T09:13:56.265Z</time>
</trkpt>
<trkpt lat="31.3509200" lon="34.8733600">
<ele>400.660004</ele>
<time>2022-03-02T09:13:56.265Z</time>
</trkpt>
<trkpt lat="31.3507500" lon="34.8731600">
<ele>400.020020</ele>
<time>2022-03-02T09:13:56.265Z</time>
</trkpt>
<trkpt lat="31.3506000" lon="34.8729500">
<ele>399.640015</ele>
<time>2022-03-02T09:13:56.265Z</time>
</trkpt>
<trkpt lat="31.3505700" lon="34.8725400">
<ele>400.049988</ele>
<time>2022-03-02T09:13:56.265Z</time>
</trkpt>
<trkpt lat="31.3505900" lon="34.8719000">
<ele>399.070007</ele>
<time>2022-03-02T09:13:56.265Z</time>
</trkpt>
<trkpt lat="31.3505900" lon="34.8712000">
<ele>396.440002</ele>
<time>2022-03-02T09:13:56.265Z</time>
</trkpt>
<trkpt lat="31.3505800" lon="34.8705400">
<ele>398.709991</ele>
<time>2022-03-02T09:13:56.265Z</time>
</trkpt>
<trkpt lat="31.3505300" lon="34.8693800">
<ele>403.010010</ele>
<time>2022-03-02T09:13:56.265Z</time>
</trkpt>
<trkpt lat="31.3505000" lon="34.8692100">
<ele>400.119995</ele>
<time>2022-03-02T09:13:56.265Z</time>
</trkpt>
<trkpt lat="31.3504100" lon="34.8689500">
<ele>394.120026</ele>
<time>2022-03-02T09:13:56.265Z</time>
</trkpt>
<trkpt lat="31.3503000" lon="34.8687000">
<ele>392.459991</ele>
<time>2022-03-02T09:13:56.265Z</time>
</trkpt>
<trkpt lat="31.3502400" lon="34.8685400">
<ele>393.909973</ele>
<time>2022-03-02T09:13:56.265Z</time>
</trkpt>
<trkpt lat="31.3500600" lon="34.8682500">
<ele>398.400024</ele>
<time>2022-03-02T09:13:56.265Z</time>
</trkpt>
<trkpt lat="31.3501100" lon="34.8678400">
<ele>407.510010</ele>
<time>2022-03-02T09:13:56.265Z</time>
</trkpt>
<trkpt lat="31.3499600" lon="34.8673100">
<ele>411.820007</ele>
<time>2022-03-02T09:13:56.265Z</time>
</trkpt>
<trkpt lat="31.3499000" lon="34.8669600">
<ele>411.610016</ele>
<time>2022-03-02T09:13:56.265Z</time>
</trkpt>
<trkpt lat="31.3500000" lon="34.8666300">
<ele>407.000000</ele>
<time>2022-03-02T09:13:56.265Z</time>
</trkpt>
<trkpt lat="31.3502500" lon="34.8660300">
<ele>405.010010</ele>
<time>2022-03-02T09:13:56.265Z</time>
</trkpt>
<trkpt lat="31.3503800" lon="34.8656900">
<ele>406.989990</ele>
<time>2022-03-02T09:13:56.265Z</time>
</trkpt>
<trkpt lat="31.3503600" lon="34.8654100">
<ele>409.459991</ele>
<time>2022-03-02T09:13:56.265Z</time>
</trkpt>
<trkpt lat="31.3503100" lon="34.8651300">
<ele>411.240021</ele>
<time>2022-03-02T09:13:56.265Z</time>
</trkpt>
<trkpt lat="31.3502700" lon="34.8648300">
<ele>412.709991</ele>
<time>2022-03-02T09:13:56.266Z</time>
</trkpt>
<trkpt lat="31.3502800" lon="34.8645900">
<ele>412.500000</ele>
<time>2022-03-02T09:13:56.266Z</time>
</trkpt>
<trkpt lat="31.3503200" lon="34.8643300">
<ele>410.779999</ele>
<time>2022-03-02T09:13:56.266Z</time>
</trkpt>
<trkpt lat="31.3503200" lon="34.8643000">
<ele>410.579987</ele>
<time>2022-03-02T09:13:56.266Z</time>
</trkpt>
<trkpt lat="31.3503200" lon="34.8643000">
<ele>410.579987</ele>
<time>2022-03-02T09:13:56.266Z</time>
</trkpt>
<trkpt lat="31.3503400" lon="34.8640700">
<ele>408.930023</ele>
<time>2022-03-02T09:13:56.266Z</time>
</trkpt>
<trkpt lat="31.3506400" lon="34.8636200">
<ele>407.449982</ele>
<time>2022-03-02T09:13:56.266Z</time>
</trkpt>
<trkpt lat="31.3510900" lon="34.8630700">
<ele>401.970001</ele>
<time>2022-03-02T09:13:56.266Z</time>
</trkpt>
<trkpt lat="31.3514600" lon="34.8629400">
<ele>410.940002</ele>
<time>2022-03-02T09:13:56.266Z</time>
</trkpt>
<trkpt lat="31.3516600" lon="34.8624900">
<ele>410.859985</ele>
<time>2022-03-02T09:13:56.266Z</time>
</trkpt>
<trkpt lat="31.3518800" lon="34.8622900">
<ele>405.690002</ele>
<time>2022-03-02T09:13:56.266Z</time>
</trkpt>
<trkpt lat="31.3520400" lon="34.8621300">
<ele>406.440002</ele>
<time>2022-03-02T09:13:56.266Z</time>
</trkpt>
<trkpt lat="31.3523400" lon="34.8616600">
<ele>412.809998</ele>
<time>2022-03-02T09:13:56.266Z</time>
</trkpt>
<trkpt lat="31.3523400" lon="34.8616600">
<ele>412.809998</ele>
<time>2022-03-02T09:13:56.266Z</time>
</trkpt>
<trkpt lat="31.3525800" lon="34.8612700">
<ele>412.209991</ele>
<time>2022-03-02T09:13:56.266Z</time>
</trkpt>
<trkpt lat="31.3529700" lon="34.8608800">
<ele>410.119995</ele>
<time>2022-03-02T09:13:56.266Z</time>
</trkpt>
<trkpt lat="31.3530600" lon="34.8608100">
<ele>410.179993</ele>
<time>2022-03-02T09:13:56.266Z</time>
</trkpt>
<trkpt lat="31.3531800" lon="34.8607500">
<ele>411.049988</ele>
<time>2022-03-02T09:13:56.266Z</time>
</trkpt>
<trkpt lat="31.3532400" lon="34.8607400">
<ele>411.339996</ele>
<time>2022-03-02T09:13:56.266Z</time>
</trkpt>
<trkpt lat="31.3534900" lon="34.8607500">
<ele>411.830017</ele>
<time>2022-03-02T09:13:56.266Z</time>
</trkpt>
<trkpt lat="31.3535500" lon="34.8607400">
<ele>411.929993</ele>
<time>2022-03-02T09:13:56.266Z</time>
</trkpt>
<trkpt lat="31.3535800" lon="34.8606400">
<ele>412.040009</ele>
<time>2022-03-02T09:13:56.266Z</time>
</trkpt>
<trkpt lat="31.3536300" lon="34.8605400">
<ele>411.660004</ele>
<time>2022-03-02T09:13:56.266Z</time>
</trkpt>
<trkpt lat="31.3538800" lon="34.8603000">
<ele>407.320007</ele>
<time>2022-03-02T09:13:56.266Z</time>
</trkpt>
<trkpt lat="31.3542600" lon="34.8596600">
<ele>409.769989</ele>
<time>2022-03-02T09:13:56.266Z</time>
</trkpt>
<trkpt lat="31.3543500" lon="34.8595700">
<ele>413.410004</ele>
<time>2022-03-02T09:13:56.266Z</time>
</trkpt>
<trkpt lat="31.3544800" lon="34.8595200">
<ele>416.930023</ele>
<time>2022-03-02T09:13:56.266Z</time>
</trkpt>
<trkpt lat="31.3547000" lon="34.8594900">
<ele>420.199982</ele>
<time>2022-03-02T09:13:56.266Z</time>
</trkpt>
<trkpt lat="31.3548400" lon="34.8594300">
<ele>424.829987</ele>
<time>2022-03-02T09:13:56.266Z</time>
</trkpt>
<trkpt lat="31.3549400" lon="34.8593600">
<ele>427.709991</ele>
<time>2022-03-02T09:13:56.267Z</time>
</trkpt>
<trkpt lat="31.3551000" lon="34.8592300">
<ele>430.209991</ele>
<time>2022-03-02T09:13:56.267Z</time>
</trkpt>
<trkpt lat="31.3551700" lon="34.8592000">
<ele>431.539978</ele>
<time>2022-03-02T09:13:56.267Z</time>
</trkpt>
<trkpt lat="31.3552800" lon="34.8591900">
<ele>433.710022</ele>
<time>2022-03-02T09:13:56.267Z</time>
</trkpt>
<trkpt lat="31.3554200" lon="34.8592500">
<ele>431.260010</ele>
<time>2022-03-02T09:13:56.267Z</time>
</trkpt>
<trkpt lat="31.3555900" lon="34.8592800">
<ele>429.239990</ele>
<time>2022-03-02T09:13:56.267Z</time>
</trkpt>
<trkpt lat="31.3557700" lon="34.8593700">
<ele>425.179993</ele>
<time>2022-03-02T09:13:56.267Z</time>
</trkpt>
<trkpt lat="31.3558700" lon="34.8595100">
<ele>422.059998</ele>
<time>2022-03-02T09:13:56.267Z</time>
</trkpt>
<trkpt lat="31.3560100" lon="34.8595600">
<ele>420.740021</ele>
<time>2022-03-02T09:13:56.267Z</time>
</trkpt>
<trkpt lat="31.3562200" lon="34.8594800">
<ele>421.579987</ele>
<time>2022-03-02T09:13:56.267Z</time>
</trkpt>
<trkpt lat="31.3564400" lon="34.8594900">
<ele>423.630005</ele>
<time>2022-03-02T09:13:56.267Z</time>
</trkpt>
<trkpt lat="31.3566100" lon="34.8594800">
<ele>426.260010</ele>
<time>2022-03-02T09:13:56.267Z</time>
</trkpt>
<trkpt lat="31.3567000" lon="34.8594800">
<ele>427.259979</ele>
<time>2022-03-02T09:13:56.267Z</time>
</trkpt>
<trkpt lat="31.3567900" lon="34.8594500">
<ele>427.469971</ele>
<time>2022-03-02T09:13:56.267Z</time>
</trkpt>
<trkpt lat="31.3568400" lon="34.8594000">
<ele>427.819977</ele>
<time>2022-03-02T09:13:56.267Z</time>
</trkpt>
<trkpt lat="31.3569200" lon="34.8592600">
<ele>429.119995</ele>
<time>2022-03-02T09:13:56.267Z</time>
</trkpt>
<trkpt lat="31.3570600" lon="34.8588700">
<ele>429.990021</ele>
<time>2022-03-02T09:13:56.267Z</time>
</trkpt>
<trkpt lat="31.3570800" lon="34.8587400">
<ele>428.329987</ele>
<time>2022-03-02T09:13:56.267Z</time>
</trkpt>
<trkpt lat="31.3571700" lon="34.8586800">
<ele>427.959991</ele>
<time>2022-03-02T09:13:56.267Z</time>
</trkpt>
<trkpt lat="31.3572000" lon="34.8587500">
<ele>429.339996</ele>
<time>2022-03-02T09:13:56.267Z</time>
</trkpt>
<trkpt lat="31.3572000" lon="34.8590100">
<ele>433.000000</ele>
<time>2022-03-02T09:13:56.267Z</time>
</trkpt>
<trkpt lat="31.3572600" lon="34.8593300">
<ele>436.649994</ele>
<time>2022-03-02T09:13:56.267Z</time>
</trkpt>
<trkpt lat="31.3573100" lon="34.8594900">
<ele>438.170013</ele>
<time>2022-03-02T09:13:56.267Z</time>
</trkpt>
<trkpt lat="31.3573500" lon="34.8595500">
<ele>438.899994</ele>
<time>2022-03-02T09:13:56.267Z</time>
</trkpt>
<trkpt lat="31.3574100" lon="34.8596000">
<ele>439.779999</ele>
<time>2022-03-02T09:13:56.267Z</time>
</trkpt>
<trkpt lat="31.3577000" lon="34.8597700">
<ele>443.250000</ele>
<time>2022-03-02T09:13:56.267Z</time>
</trkpt>
<trkpt lat="31.3577400" lon="34.8598400">
<ele>444.559998</ele>
<time>2022-03-02T09:13:56.267Z</time>
</trkpt>
<trkpt lat="31.3577900" lon="34.8599700">
<ele>446.699982</ele>
<time>2022-03-02T09:13:56.267Z</time>
</trkpt>
<trkpt lat="31.3578800" lon="34.8601100">
<ele>448.000000</ele>
<time>2022-03-02T09:13:56.267Z</time>
</trkpt>
<trkpt lat="31.3579900" lon="34.8602300">
<ele>447.779999</ele>
<time>2022-03-02T09:13:56.267Z</time>
</trkpt>
<trkpt lat="31.3581100" lon="34.8603400">
<ele>446.630005</ele>
<time>2022-03-02T09:13:56.268Z</time>
</trkpt>
<trkpt lat="31.3584000" lon="34.8604800">
<ele>441.469971</ele>
<time>2022-03-02T09:13:56.268Z</time>
</trkpt>
<trkpt lat="31.3585400" lon="34.8605400">
<ele>437.059998</ele>
<time>2022-03-02T09:13:56.268Z</time>
</trkpt>
<trkpt lat="31.3587200" lon="34.8605600">
<ele>436.140015</ele>
<time>2022-03-02T09:13:56.268Z</time>
</trkpt>
<trkpt lat="31.3588700" lon="34.8605300">
<ele>438.259979</ele>
<time>2022-03-02T09:13:56.268Z</time>
</trkpt>
<trkpt lat="31.3591500" lon="34.8603400">
<ele>445.220001</ele>
<time>2022-03-02T09:13:56.268Z</time>
</trkpt>
<trkpt lat="31.3592800" lon="34.8602900">
<ele>449.959991</ele>
<time>2022-03-02T09:13:56.268Z</time>
</trkpt>
<trkpt lat="31.3593800" lon="34.8602900">
<ele>452.839996</ele>
<time>2022-03-02T09:13:56.268Z</time>
</trkpt>
<trkpt lat="31.3594400" lon="34.8603100">
<ele>454.059998</ele>
<time>2022-03-02T09:13:56.268Z</time>
</trkpt>
<trkpt lat="31.3595400" lon="34.8604100">
<ele>454.780029</ele>
<time>2022-03-02T09:13:56.268Z</time>
</trkpt>
<trkpt lat="31.3597700" lon="34.8607100">
<ele>455.609985</ele>
<time>2022-03-02T09:13:56.268Z</time>
</trkpt>
<trkpt lat="31.3598500" lon="34.8607600">
<ele>457.130005</ele>
<time>2022-03-02T09:13:56.268Z</time>
</trkpt>
<trkpt lat="31.3601100" lon="34.8608900">
<ele>462.720001</ele>
<time>2022-03-02T09:13:56.268Z</time>
</trkpt>
<trkpt lat="31.3604400" lon="34.8611900">
<ele>460.450012</ele>
<time>2022-03-02T09:13:56.268Z</time>
</trkpt>
<trkpt lat="31.3605200" lon="34.8612300">
<ele>460.630005</ele>
<time>2022-03-02T09:13:56.268Z</time>
</trkpt>
<trkpt lat="31.3606000" lon="34.8612400">
<ele>460.250000</ele>
<time>2022-03-02T09:13:56.268Z</time>
</trkpt>
<trkpt lat="31.3606100" lon="34.8612400">
<ele>460.089996</ele>
<time>2022-03-02T09:13:56.268Z</time>
</trkpt>
<trkpt lat="31.3606100" lon="34.8612400">
<ele>460.089996</ele>
<time>2022-03-02T09:13:56.268Z</time>
</trkpt>
<trkpt lat="31.3607600" lon="34.8612500">
<ele>457.190002</ele>
<time>2022-03-02T09:13:56.268Z</time>
</trkpt>
<trkpt lat="31.3608800" lon="34.8612000">
<ele>457.279999</ele>
<time>2022-03-02T09:13:56.268Z</time>
</trkpt>
<trkpt lat="31.3608500" lon="34.8611200">
<ele>462.019989</ele>
<time>2022-03-02T09:13:56.268Z</time>
</trkpt>
<trkpt lat="31.3605600" lon="34.8609200">
<ele>472.410004</ele>
<time>2022-03-02T09:13:56.268Z</time>
</trkpt>
<trkpt lat="31.3605400" lon="34.8608600">
<ele>474.040009</ele>
<time>2022-03-02T09:13:56.268Z</time>
</trkpt>
<trkpt lat="31.3605700" lon="34.8608100">
<ele>474.880005</ele>
<time>2022-03-02T09:13:56.268Z</time>
</trkpt>
<trkpt lat="31.3606500" lon="34.8607900">
<ele>472.979980</ele>
<time>2022-03-02T09:13:56.268Z</time>
</trkpt>
<trkpt lat="31.3608500" lon="34.8608300">
<ele>467.529999</ele>
<time>2022-03-02T09:13:56.268Z</time>
</trkpt>
<trkpt lat="31.3609600" lon="34.8608300">
<ele>464.360016</ele>
<time>2022-03-02T09:13:56.268Z</time>
</trkpt>
<trkpt lat="31.3610100" lon="34.8608000">
<ele>463.029999</ele>
<time>2022-03-02T09:13:56.268Z</time>
</trkpt>
<trkpt lat="31.3610600" lon="34.8607500">
<ele>461.769989</ele>
<time>2022-03-02T09:13:56.268Z</time>
</trkpt>
<trkpt lat="31.3611200" lon="34.8606100">
<ele>460.770020</ele>
<time>2022-03-02T09:13:56.268Z</time>
</trkpt>
<trkpt lat="31.3614200" lon="34.8605000">
<ele>459.199982</ele>
<time>2022-03-02T09:13:56.269Z</time>
</trkpt>
<trkpt lat="31.3616900" lon="34.8603800">
<ele>461.320007</ele>
<time>2022-03-02T09:13:56.269Z</time>
</trkpt>
<trkpt lat="31.3617800" lon="34.8603200">
<ele>461.840027</ele>
<time>2022-03-02T09:13:56.269Z</time>
</trkpt>
<trkpt lat="31.3619200" lon="34.8601600">
<ele>462.730011</ele>
<time>2022-03-02T09:13:56.269Z</time>
</trkpt>
<trkpt lat="31.3620700" lon="34.8598900">
<ele>462.990021</ele>
<time>2022-03-02T09:13:56.269Z</time>
</trkpt>
<trkpt lat="31.3621600" lon="34.8597700">
<ele>462.239990</ele>
<time>2022-03-02T09:13:56.269Z</time>
</trkpt>
<trkpt lat="31.3623100" lon="34.8596300">
<ele>462.789978</ele>
<time>2022-03-02T09:13:56.269Z</time>
</trkpt>
<trkpt lat="31.3623800" lon="34.8595300">
<ele>463.550018</ele>
<time>2022-03-02T09:13:56.269Z</time>
</trkpt>
<trkpt lat="31.3624100" lon="34.8594500">
<ele>463.760010</ele>
<time>2022-03-02T09:13:56.269Z</time>
</trkpt>
<trkpt lat="31.3624500" lon="34.8590200">
<ele>467.429993</ele>
<time>2022-03-02T09:13:56.269Z</time>
</trkpt>
<trkpt lat="31.3624800" lon="34.8588400">
<ele>469.139984</ele>
<time>2022-03-02T09:13:56.269Z</time>
</trkpt>
<trkpt lat="31.3624800" lon="34.8587600">
<ele>469.710022</ele>
<time>2022-03-02T09:13:56.269Z</time>
</trkpt>
<trkpt lat="31.3624100" lon="34.8585100">
<ele>469.790009</ele>
<time>2022-03-02T09:13:56.269Z</time>
</trkpt>
<trkpt lat="31.3622900" lon="34.8582500">
<ele>466.550018</ele>
<time>2022-03-02T09:13:56.269Z</time>
</trkpt>
<trkpt lat="31.3622200" lon="34.8581400">
<ele>464.600006</ele>
<time>2022-03-02T09:13:56.269Z</time>
</trkpt>
<trkpt lat="31.3621600" lon="34.8580900">
<ele>464.190002</ele>
<time>2022-03-02T09:13:56.269Z</time>
</trkpt>
<trkpt lat="31.3618700" lon="34.8578700">
<ele>464.179993</ele>
<time>2022-03-02T09:13:56.269Z</time>
</trkpt>
<trkpt lat="31.3618100" lon="34.8578400">
<ele>464.380005</ele>
<time>2022-03-02T09:13:56.269Z</time>
</trkpt>
<trkpt lat="31.3616400" lon="34.8578700">
<ele>464.440002</ele>
<time>2022-03-02T09:13:56.269Z</time>
</trkpt>
<trkpt lat="31.3615700" lon="34.8578300">
<ele>464.049988</ele>
<time>2022-03-02T09:13:56.269Z</time>
</trkpt>
<trkpt lat="31.3615500" lon="34.8577700">
<ele>464.089996</ele>
<time>2022-03-02T09:13:56.269Z</time>
</trkpt>
<trkpt lat="31.3615400" lon="34.8576900">
<ele>463.279999</ele>
<time>2022-03-02T09:13:56.269Z</time>
</trkpt>
<trkpt lat="31.3615600" lon="34.8575600">
<ele>462.180023</ele>
<time>2022-03-02T09:13:56.269Z</time>
</trkpt>
<trkpt lat="31.3615400" lon="34.8574800">
<ele>461.119995</ele>
<time>2022-03-02T09:13:56.269Z</time>
</trkpt>
<trkpt lat="31.3615000" lon="34.8573900">
<ele>458.869995</ele>
<time>2022-03-02T09:13:56.269Z</time>
</trkpt>
<trkpt lat="31.3615000" lon="34.8573200">
<ele>457.250000</ele>
<time>2022-03-02T09:13:56.269Z</time>
</trkpt>
<trkpt lat="31.3615200" lon="34.8572900">
<ele>456.850006</ele>
<time>2022-03-02T09:13:56.269Z</time>
</trkpt>
<trkpt lat="31.3615200" lon="34.8572900">
<ele>456.850006</ele>
<time>2022-03-02T09:13:56.269Z</time>
</trkpt>
<trkpt lat="31.3615400" lon="34.8572500">
<ele>456.299988</ele>
<time>2022-03-02T09:13:56.269Z</time>
</trkpt>
<trkpt lat="31.3616100" lon="34.8571900">
<ele>456.419983</ele>
<time>2022-03-02T09:13:56.269Z</time>
</trkpt>
<trkpt lat="31.3617400" lon="34.8571100">
<ele>456.150024</ele>
<time>2022-03-02T09:13:56.270Z</time>
</trkpt>
<trkpt lat="31.3618200" lon="34.8570900">
<ele>455.209991</ele>
<time>2022-03-02T09:13:56.270Z</time>
</trkpt>
<trkpt lat="31.3621100" lon="34.8571500">
<ele>454.959991</ele>
<time>2022-03-02T09:13:56.270Z</time>
</trkpt>
<trkpt lat="31.3622700" lon="34.8572000">
<ele>455.489990</ele>
<time>2022-03-02T09:13:56.270Z</time>
</trkpt>
<trkpt lat="31.3624800" lon="34.8571100">
<ele>453.079987</ele>
<time>2022-03-02T09:13:56.270Z</time>
</trkpt>
<trkpt lat="31.3623200" lon="34.8570400">
<ele>452.790009</ele>
<time>2022-03-02T09:13:56.270Z</time>
</trkpt>
<trkpt lat="31.3621700" lon="34.8570000">
<ele>452.800018</ele>
<time>2022-03-02T09:13:56.270Z</time>
</trkpt>
<trkpt lat="31.3621400" lon="34.8569300">
<ele>451.619995</ele>
<time>2022-03-02T09:13:56.270Z</time>
</trkpt>
<trkpt lat="31.3621900" lon="34.8567000">
<ele>445.740021</ele>
<time>2022-03-02T09:13:56.270Z</time>
</trkpt>
<trkpt lat="31.3621900" lon="34.8566000">
<ele>443.439972</ele>
<time>2022-03-02T09:13:56.270Z</time>
</trkpt>
<trkpt lat="31.3621400" lon="34.8563900">
<ele>438.729980</ele>
<time>2022-03-02T09:13:56.270Z</time>
</trkpt>
<trkpt lat="31.3621200" lon="34.8562100">
<ele>433.890015</ele>
<time>2022-03-02T09:13:56.270Z</time>
</trkpt>
<trkpt lat="31.3621400" lon="34.8561400">
<ele>432.170013</ele>
<time>2022-03-02T09:13:56.270Z</time>
</trkpt>
<trkpt lat="31.3621900" lon="34.8560800">
<ele>431.520020</ele>
<time>2022-03-02T09:13:56.270Z</time>
</trkpt>
<trkpt lat="31.3622700" lon="34.8560300">
<ele>431.979980</ele>
<time>2022-03-02T09:13:56.270Z</time>
</trkpt>
<trkpt lat="31.3625600" lon="34.8559100">
<ele>434.830017</ele>
<time>2022-03-02T09:13:56.270Z</time>
</trkpt>
<trkpt lat="31.3626200" lon="34.8558700">
<ele>435.109985</ele>
<time>2022-03-02T09:13:56.270Z</time>
</trkpt>
<trkpt lat="31.3626500" lon="34.8558100">
<ele>435.109985</ele>
<time>2022-03-02T09:13:56.270Z</time>
</trkpt>
<trkpt lat="31.3626700" lon="34.8556000">
<ele>435.359985</ele>
<time>2022-03-02T09:13:56.270Z</time>
</trkpt>
<trkpt lat="31.3627200" lon="34.8555500">
<ele>435.179993</ele>
<time>2022-03-02T09:13:56.270Z</time>
</trkpt>
<trkpt lat="31.3628700" lon="34.8554700">
<ele>434.919983</ele>
<time>2022-03-02T09:13:56.270Z</time>
</trkpt>
<trkpt lat="31.3629300" lon="34.8555400">
<ele>435.459991</ele>
<time>2022-03-02T09:13:56.270Z</time>
</trkpt>
<trkpt lat="31.3631000" lon="34.8555800">
<ele>436.979980</ele>
<time>2022-03-02T09:13:56.270Z</time>
</trkpt>
<trkpt lat="31.3631500" lon="34.8556300">
<ele>438.340027</ele>
<time>2022-03-02T09:13:56.270Z</time>
</trkpt>
<trkpt lat="31.3632700" lon="34.8558000">
<ele>441.930023</ele>
<time>2022-03-02T09:13:56.270Z</time>
</trkpt>
<trkpt lat="31.3633800" lon="34.8558500">
<ele>443.019989</ele>
<time>2022-03-02T09:13:56.270Z</time>
</trkpt>
<trkpt lat="31.3634500" lon="34.8558500">
<ele>443.050018</ele>
<time>2022-03-02T09:13:56.270Z</time>
</trkpt>
<trkpt lat="31.3635200" lon="34.8558000">
<ele>442.559998</ele>
<time>2022-03-02T09:13:56.270Z</time>
</trkpt>
<trkpt lat="31.3635300" lon="34.8557100">
<ele>441.349976</ele>
<time>2022-03-02T09:13:56.270Z</time>
</trkpt>
<trkpt lat="31.3635300" lon="34.8555700">
<ele>439.480011</ele>
<time>2022-03-02T09:13:56.270Z</time>
</trkpt>
<trkpt lat="31.3635400" lon="34.8555000">
<ele>437.860016</ele>
<time>2022-03-02T09:13:56.271Z</time>
</trkpt>
<trkpt lat="31.3636700" lon="34.8553800">
<ele>435.099976</ele>
<time>2022-03-02T09:13:56.271Z</time>
</trkpt>
<trkpt lat="31.3638500" lon="34.8552000">
<ele>430.899994</ele>
<time>2022-03-02T09:13:56.271Z</time>
</trkpt>
<trkpt lat="31.3639200" lon="34.8551600">
<ele>430.660004</ele>
<time>2022-03-02T09:13:56.271Z</time>
</trkpt>
<trkpt lat="31.3640600" lon="34.8550900">
<ele>431.549988</ele>
<time>2022-03-02T09:13:56.271Z</time>
</trkpt>
<trkpt lat="31.3647000" lon="34.8549600">
<ele>444.500000</ele>
<time>2022-03-02T09:13:56.271Z</time>
</trkpt>
<trkpt lat="31.3648500" lon="34.8549500">
<ele>446.839996</ele>
<time>2022-03-02T09:13:56.271Z</time>
</trkpt>
<trkpt lat="31.3649300" lon="34.8549600">
<ele>448.239990</ele>
<time>2022-03-02T09:13:56.271Z</time>
</trkpt>
<trkpt lat="31.3650400" lon="34.8550000">
<ele>450.000000</ele>
<time>2022-03-02T09:13:56.271Z</time>
</trkpt>
<trkpt lat="31.3650400" lon="34.8550000">
<ele>450.000000</ele>
<time>2022-03-02T09:13:56.271Z</time>
</trkpt>
<trkpt lat="31.3652100" lon="34.8550600">
<ele>449.829987</ele>
<time>2022-03-02T09:13:56.271Z</time>
</trkpt>
<trkpt lat="31.3653100" lon="34.8551300">
<ele>448.709991</ele>
<time>2022-03-02T09:13:56.271Z</time>
</trkpt>
<trkpt lat="31.3654000" lon="34.8552100">
<ele>447.389984</ele>
<time>2022-03-02T09:13:56.271Z</time>
</trkpt>
<trkpt lat="31.3654500" lon="34.8552900">
<ele>446.829987</ele>
<time>2022-03-02T09:13:56.271Z</time>
</trkpt>
<trkpt lat="31.3657500" lon="34.8561000">
<ele>462.480011</ele>
<time>2022-03-02T09:13:56.271Z</time>
</trkpt>
<trkpt lat="31.3658400" lon="34.8562400">
<ele>468.449982</ele>
<time>2022-03-02T09:13:56.271Z</time>
</trkpt>
<trkpt lat="31.3659200" lon="34.8562700">
<ele>469.250031</ele>
<time>2022-03-02T09:13:56.271Z</time>
</trkpt>
<trkpt lat="31.3660900" lon="34.8562700">
<ele>467.759979</ele>
<time>2022-03-02T09:13:56.271Z</time>
</trkpt>
<trkpt lat="31.3661600" lon="34.8562500">
<ele>467.880005</ele>
<time>2022-03-02T09:13:56.271Z</time>
</trkpt>
<trkpt lat="31.3662300" lon="34.8561700">
<ele>467.079987</ele>
<time>2022-03-02T09:13:56.271Z</time>
</trkpt>
<trkpt lat="31.3662900" lon="34.8559900">
<ele>462.410004</ele>
<time>2022-03-02T09:13:56.271Z</time>
</trkpt>
<trkpt lat="31.3664100" lon="34.8558200">
<ele>457.090027</ele>
<time>2022-03-02T09:13:56.271Z</time>
</trkpt>
<trkpt lat="31.3664600" lon="34.8557700">
<ele>456.910004</ele>
<time>2022-03-02T09:13:56.271Z</time>
</trkpt>
<trkpt lat="31.3665700" lon="34.8557100">
<ele>457.600006</ele>
<time>2022-03-02T09:13:56.271Z</time>
</trkpt>
<trkpt lat="31.3666500" lon="34.8556900">
<ele>458.599976</ele>
<time>2022-03-02T09:13:56.271Z</time>
</trkpt>
<trkpt lat="31.3667400" lon="34.8556900">
<ele>458.920013</ele>
<time>2022-03-02T09:13:56.271Z</time>
</trkpt>
<trkpt lat="31.3669500" lon="34.8557100">
<ele>459.069977</ele>
<time>2022-03-02T09:13:56.271Z</time>
</trkpt>
<trkpt lat="31.3670900" lon="34.8557900">
<ele>459.000000</ele>
<time>2022-03-02T09:13:56.271Z</time>
</trkpt>
<trkpt lat="31.3673100" lon="34.8559600">
<ele>460.819977</ele>
<time>2022-03-02T09:13:56.271Z</time>
</trkpt>
<trkpt lat="31.3674100" lon="34.8560800">
<ele>461.779999</ele>
<time>2022-03-02T09:13:56.271Z</time>
</trkpt>
<trkpt lat="31.3674700" lon="34.8562800">
<ele>464.209991</ele>
<time>2022-03-02T09:13:56.271Z</time>
</trkpt>
<trkpt lat="31.3675600" lon="34.8564600">
<ele>464.889984</ele>
<time>2022-03-02T09:13:56.272Z</time>
</trkpt>
<trkpt lat="31.3677300" lon="34.8572000">
<ele>467.709991</ele>
<time>2022-03-02T09:13:56.272Z</time>
</trkpt>
<trkpt lat="31.3677400" lon="34.8572400">
<ele>467.940002</ele>
<time>2022-03-02T09:13:56.272Z</time>
</trkpt>
<trkpt lat="31.3677400" lon="34.8572400">
<ele>467.940002</ele>
<time>2022-03-02T09:13:56.272Z</time>
</trkpt>
<trkpt lat="31.3678000" lon="34.8574100">
<ele>467.869995</ele>
<time>2022-03-02T09:13:56.272Z</time>
</trkpt>
<trkpt lat="31.3680500" lon="34.8582800">
<ele>469.750000</ele>
<time>2022-03-02T09:13:56.272Z</time>
</trkpt>
<trkpt lat="31.3681400" lon="34.8586400">
<ele>472.710022</ele>
<time>2022-03-02T09:13:56.272Z</time>
</trkpt>
<trkpt lat="31.3681900" lon="34.8589300">
<ele>475.470001</ele>
<time>2022-03-02T09:13:56.272Z</time>
</trkpt>
<trkpt lat="31.3682100" lon="34.8590200">
<ele>476.999969</ele>
<time>2022-03-02T09:13:56.272Z</time>
</trkpt>
<trkpt lat="31.3682600" lon="34.8591200">
<ele>477.920013</ele>
<time>2022-03-02T09:13:56.272Z</time>
</trkpt>
<trkpt lat="31.3683700" lon="34.8591900">
<ele>477.279999</ele>
<time>2022-03-02T09:13:56.272Z</time>
</trkpt>
<trkpt lat="31.3686700" lon="34.8589400">
<ele>474.479980</ele>
<time>2022-03-02T09:13:56.272Z</time>
</trkpt>
<trkpt lat="31.3687300" lon="34.8587200">
<ele>475.480011</ele>
<time>2022-03-02T09:13:56.272Z</time>
</trkpt>
<trkpt lat="31.3687900" lon="34.8581800">
<ele>474.959991</ele>
<time>2022-03-02T09:13:56.272Z</time>
</trkpt>
<trkpt lat="31.3688100" lon="34.8580900">
<ele>474.450012</ele>
<time>2022-03-02T09:13:56.272Z</time>
</trkpt>
<trkpt lat="31.3688900" lon="34.8578800">
<ele>473.089996</ele>
<time>2022-03-02T09:13:56.272Z</time>
</trkpt>
<trkpt lat="31.3689000" lon="34.8578000">
<ele>472.049988</ele>
<time>2022-03-02T09:13:56.272Z</time>
</trkpt>
<trkpt lat="31.3688800" lon="34.8574000">
<ele>468.540009</ele>
<time>2022-03-02T09:13:56.272Z</time>
</trkpt>
<trkpt lat="31.3688800" lon="34.8574000">
<ele>468.540009</ele>
<time>2022-03-02T09:13:56.272Z</time>
</trkpt>
<trkpt lat="31.3688700" lon="34.8571600">
<ele>465.369995</ele>
<time>2022-03-02T09:13:56.272Z</time>
</trkpt>
<trkpt lat="31.3688800" lon="34.8570800">
<ele>464.509979</ele>
<time>2022-03-02T09:13:56.272Z</time>
</trkpt>
<trkpt lat="31.3689400" lon="34.8570100">
<ele>463.810028</ele>
<time>2022-03-02T09:13:56.272Z</time>
</trkpt>
<trkpt lat="31.3689800" lon="34.8568900">
<ele>462.740021</ele>
<time>2022-03-02T09:13:56.272Z</time>
</trkpt>
<trkpt lat="31.3689700" lon="34.8568000">
<ele>461.729980</ele>
<time>2022-03-02T09:13:56.272Z</time>
</trkpt>
<trkpt lat="31.3688600" lon="34.8566800">
<ele>460.359985</ele>
<time>2022-03-02T09:13:56.272Z</time>
</trkpt>
<trkpt lat="31.3689200" lon="34.8566000">
<ele>459.820007</ele>
<time>2022-03-02T09:13:56.272Z</time>
</trkpt>
<trkpt lat="31.3689900" lon="34.8564900">
<ele>459.260010</ele>
<time>2022-03-02T09:13:56.272Z</time>
</trkpt>
<trkpt lat="31.3690100" lon="34.8564100">
<ele>458.710022</ele>
<time>2022-03-02T09:13:56.272Z</time>
</trkpt>
<trkpt lat="31.3689700" lon="34.8563200">
<ele>458.110016</ele>
<time>2022-03-02T09:13:56.272Z</time>
</trkpt>
<trkpt lat="31.3688900" lon="34.8562100">
<ele>457.070007</ele>
<time>2022-03-02T09:13:56.272Z</time>
</trkpt>
<trkpt lat="31.3688600" lon="34.8561300">
<ele>456.299988</ele>
<time>2022-03-02T09:13:56.273Z</time>
</trkpt>
<trkpt lat="31.3688700" lon="34.8560500">
<ele>456.050018</ele>
<time>2022-03-02T09:13:56.273Z</time>
</trkpt>
<trkpt lat="31.3689700" lon="34.8559400">
<ele>456.289978</ele>
<time>2022-03-02T09:13:56.273Z</time>
</trkpt>
<trkpt lat="31.3689800" lon="34.8559000">
<ele>456.329987</ele>
<time>2022-03-02T09:13:56.273Z</time>
</trkpt>
<trkpt lat="31.3689300" lon="34.8558400">
<ele>456.150024</ele>
<time>2022-03-02T09:13:56.273Z</time>
</trkpt>
<trkpt lat="31.3688200" lon="34.8558600">
<ele>456.020020</ele>
<time>2022-03-02T09:13:56.273Z</time>
</trkpt>
<trkpt lat="31.3687600" lon="34.8557900">
<ele>455.779999</ele>
<time>2022-03-02T09:13:56.273Z</time>
</trkpt>
<trkpt lat="31.3689200" lon="34.8557100">
<ele>456.160004</ele>
<time>2022-03-02T09:13:56.273Z</time>
</trkpt>
<trkpt lat="31.3690800" lon="34.8557600">
<ele>456.870026</ele>
<time>2022-03-02T09:13:56.273Z</time>
</trkpt>
<trkpt lat="31.3691700" lon="34.8557100">
<ele>457.430023</ele>
<time>2022-03-02T09:13:56.273Z</time>
</trkpt>
<trkpt lat="31.3690000" lon="34.8555900">
<ele>456.750031</ele>
<time>2022-03-02T09:13:56.273Z</time>
</trkpt>
<trkpt lat="31.3688600" lon="34.8555300">
<ele>455.660004</ele>
<time>2022-03-02T09:13:56.273Z</time>
</trkpt>
<trkpt lat="31.3686400" lon="34.8554700">
<ele>452.479980</ele>
<time>2022-03-02T09:13:56.273Z</time>
</trkpt>
<trkpt lat="31.3685800" lon="34.8554300">
<ele>451.589996</ele>
<time>2022-03-02T09:13:56.273Z</time>
</trkpt>
<trkpt lat="31.3684900" lon="34.8553100">
<ele>449.959991</ele>
<time>2022-03-02T09:13:56.273Z</time>
</trkpt>
<trkpt lat="31.3684500" lon="34.8552200">
<ele>448.589996</ele>
<time>2022-03-02T09:13:56.273Z</time>
</trkpt>
<trkpt lat="31.3689300" lon="34.8549600">
<ele>453.089996</ele>
<time>2022-03-02T09:13:56.273Z</time>
</trkpt>
<trkpt lat="31.3691500" lon="34.8551000">
<ele>456.600006</ele>
<time>2022-03-02T09:13:56.273Z</time>
</trkpt>
<trkpt lat="31.3691900" lon="34.8551200">
<ele>456.700012</ele>
<time>2022-03-02T09:13:56.273Z</time>
</trkpt>
<trkpt lat="31.3693600" lon="34.8550100">
<ele>454.679993</ele>
<time>2022-03-02T09:13:56.273Z</time>
</trkpt>
<trkpt lat="31.3695500" lon="34.8542700">
<ele>445.390015</ele>
<time>2022-03-02T09:13:56.273Z</time>
</trkpt>
<trkpt lat="31.3696300" lon="34.8542600">
<ele>445.899994</ele>
<time>2022-03-02T09:13:56.273Z</time>
</trkpt>
<trkpt lat="31.3696900" lon="34.8542300">
<ele>445.879974</ele>
<time>2022-03-02T09:13:56.273Z</time>
</trkpt>
<trkpt lat="31.3698800" lon="34.8541000">
<ele>447.589996</ele>
<time>2022-03-02T09:13:56.273Z</time>
</trkpt>
<trkpt lat="31.3700500" lon="34.8539900">
<ele>451.160004</ele>
<time>2022-03-02T09:13:56.273Z</time>
</trkpt>
<trkpt lat="31.3700900" lon="34.8539600">
<ele>451.410004</ele>
<time>2022-03-02T09:13:56.273Z</time>
</trkpt>
<trkpt lat="31.3702500" lon="34.8538700">
<ele>450.500031</ele>
<time>2022-03-02T09:13:56.273Z</time>
</trkpt>
<trkpt lat="31.3705200" lon="34.8537600">
<ele>455.750000</ele>
<time>2022-03-02T09:13:56.273Z</time>
</trkpt>
<trkpt lat="31.3706900" lon="34.8536700">
<ele>456.950012</ele>
<time>2022-03-02T09:13:56.273Z</time>
</trkpt>
<trkpt lat="31.3708800" lon="34.8535700">
<ele>457.970001</ele>
<time>2022-03-02T09:13:56.273Z</time>
</trkpt>
<trkpt lat="31.3709300" lon="34.8535400">
<ele>457.809998</ele>
<time>2022-03-02T09:13:56.274Z</time>
</trkpt>
<trkpt lat="31.3711100" lon="34.8534200">
<ele>458.139984</ele>
<time>2022-03-02T09:13:56.274Z</time>
</trkpt>
<trkpt lat="31.3713200" lon="34.8532500">
<ele>460.970001</ele>
<time>2022-03-02T09:13:56.274Z</time>
</trkpt>
<trkpt lat="31.3715400" lon="34.8525600">
<ele>466.309998</ele>
<time>2022-03-02T09:13:56.274Z</time>
</trkpt>
<trkpt lat="31.3716700" lon="34.8522800">
<ele>466.580017</ele>
<time>2022-03-02T09:13:56.274Z</time>
</trkpt>
<trkpt lat="31.3717100" lon="34.8522200">
<ele>466.880005</ele>
<time>2022-03-02T09:13:56.274Z</time>
</trkpt>
<trkpt lat="31.3717900" lon="34.8521300">
<ele>467.880005</ele>
<time>2022-03-02T09:13:56.274Z</time>
</trkpt>
<trkpt lat="31.3718900" lon="34.8520700">
<ele>468.390015</ele>
<time>2022-03-02T09:13:56.274Z</time>
</trkpt>
<trkpt lat="31.3720000" lon="34.8520300">
<ele>470.570007</ele>
<time>2022-03-02T09:13:56.274Z</time>
</trkpt>
<trkpt lat="31.3721600" lon="34.8520000">
<ele>476.180023</ele>
<time>2022-03-02T09:13:56.274Z</time>
</trkpt>
<trkpt lat="31.3723400" lon="34.8518800">
<ele>482.640015</ele>
<time>2022-03-02T09:13:56.274Z</time>
</trkpt>
<trkpt lat="31.3723700" lon="34.8519000">
<ele>483.100006</ele>
<time>2022-03-02T09:13:56.274Z</time>
</trkpt>
<trkpt lat="31.3725100" lon="34.8521800">
<ele>484.960022</ele>
<time>2022-03-02T09:13:56.274Z</time>
</trkpt>
<trkpt lat="31.3725900" lon="34.8523700">
<ele>478.429993</ele>
<time>2022-03-02T09:13:56.274Z</time>
</trkpt>
<trkpt lat="31.3726900" lon="34.8525300">
<ele>472.259979</ele>
<time>2022-03-02T09:13:56.274Z</time>
</trkpt>
<trkpt lat="31.3727500" lon="34.8526000">
<ele>468.560028</ele>
<time>2022-03-02T09:13:56.274Z</time>
</trkpt>
<trkpt lat="31.3728700" lon="34.8526500">
<ele>463.120026</ele>
<time>2022-03-02T09:13:56.274Z</time>
</trkpt>
<trkpt lat="31.3732000" lon="34.8526500">
<ele>453.169983</ele>
<time>2022-03-02T09:13:56.274Z</time>
</trkpt>
<trkpt lat="31.3737000" lon="34.8525100">
<ele>461.950012</ele>
<time>2022-03-02T09:13:56.274Z</time>
</trkpt>
<trkpt lat="31.3741300" lon="34.8524700">
<ele>470.820007</ele>
<time>2022-03-02T09:13:56.274Z</time>
</trkpt>
<trkpt lat="31.3744300" lon="34.8523800">
<ele>472.379974</ele>
<time>2022-03-02T09:13:56.274Z</time>
</trkpt>
<trkpt lat="31.3745600" lon="34.8523000">
<ele>472.840027</ele>
<time>2022-03-02T09:13:56.274Z</time>
</trkpt>
<trkpt lat="31.3747600" lon="34.8522200">
<ele>472.719971</ele>
<time>2022-03-02T09:13:56.274Z</time>
</trkpt>
<trkpt lat="31.3750300" lon="34.8520600">
<ele>475.419983</ele>
<time>2022-03-02T09:13:56.274Z</time>
</trkpt>
<trkpt lat="31.3751600" lon="34.8519300">
<ele>480.500000</ele>
<time>2022-03-02T09:13:56.274Z</time>
</trkpt>
<trkpt lat="31.3752400" lon="34.8518300">
<ele>482.300018</ele>
<time>2022-03-02T09:13:56.275Z</time>
</trkpt>
<trkpt lat="31.3753100" lon="34.8517700">
<ele>483.429993</ele>
<time>2022-03-02T09:13:56.275Z</time>
</trkpt>
<trkpt lat="31.3754200" lon="34.8516600">
<ele>484.520020</ele>
<time>2022-03-02T09:13:56.275Z</time>
</trkpt>
<trkpt lat="31.3755300" lon="34.8516500">
<ele>485.619995</ele>
<time>2022-03-02T09:13:56.275Z</time>
</trkpt>
<trkpt lat="31.3756000" lon="34.8516700">
<ele>485.699982</ele>
<time>2022-03-02T09:13:56.275Z</time>
</trkpt>
<trkpt lat="31.3757600" lon="34.8517800">
<ele>484.740021</ele>
<time>2022-03-02T09:13:56.275Z</time>
</trkpt>
<trkpt lat="31.3757700" lon="34.8517900">
<ele>484.660004</ele>
<time>2022-03-02T09:13:56.275Z</time>
</trkpt>
<trkpt lat="31.3761700" lon="34.8519300">
<ele>477.190002</ele>
<time>2022-03-02T09:13:56.275Z</time>
</trkpt>
<trkpt lat="31.3762800" lon="34.8519500">
<ele>476.310028</ele>
<time>2022-03-02T09:13:56.275Z</time>
</trkpt>
<trkpt lat="31.3764200" lon="34.8519300">
<ele>474.739990</ele>
<time>2022-03-02T09:13:56.275Z</time>
</trkpt>
<trkpt lat="31.3767300" lon="34.8518300">
<ele>473.660004</ele>
<time>2022-03-02T09:13:56.275Z</time>
</trkpt>
<trkpt lat="31.3771800" lon="34.8518100">
<ele>475.150024</ele>
<time>2022-03-02T09:13:56.275Z</time>
</trkpt>
<trkpt lat="31.3774100" lon="34.8517500">
<ele>479.809998</ele>
<time>2022-03-02T09:13:56.275Z</time>
</trkpt>
<trkpt lat="31.3776800" lon="34.8515900">
<ele>488.980011</ele>
<time>2022-03-02T09:13:56.275Z</time>
</trkpt>
<trkpt lat="31.3777800" lon="34.8515000">
<ele>492.250000</ele>
<time>2022-03-02T09:13:56.275Z</time>
</trkpt>
<trkpt lat="31.3778800" lon="34.8513800">
<ele>493.119995</ele>
<time>2022-03-02T09:13:56.275Z</time>
</trkpt>
<trkpt lat="31.3779800" lon="34.8512300">
<ele>493.390015</ele>
<time>2022-03-02T09:13:56.275Z</time>
</trkpt>
<trkpt lat="31.3780300" lon="34.8511200">
<ele>492.750031</ele>
<time>2022-03-02T09:13:56.275Z</time>
</trkpt>
<trkpt lat="31.3781000" lon="34.8507900">
<ele>488.859985</ele>
<time>2022-03-02T09:13:56.275Z</time>
</trkpt>
<trkpt lat="31.3782000" lon="34.8506700">
<ele>485.919983</ele>
<time>2022-03-02T09:13:56.275Z</time>
</trkpt>
<trkpt lat="31.3782300" lon="34.8506500">
<ele>485.130005</ele>
<time>2022-03-02T09:13:56.275Z</time>
</trkpt>
<trkpt lat="31.3783600" lon="34.8506300">
<ele>482.059998</ele>
<time>2022-03-02T09:13:56.275Z</time>
</trkpt>
<trkpt lat="31.3784400" lon="34.8505900">
<ele>479.350006</ele>
<time>2022-03-02T09:13:56.275Z</time>
</trkpt>
<trkpt lat="31.3785100" lon="34.8505100">
<ele>476.809998</ele>
<time>2022-03-02T09:13:56.275Z</time>
</trkpt>
<trkpt lat="31.3785100" lon="34.8507400">
<ele>479.329987</ele>
<time>2022-03-02T09:13:56.275Z</time>
</trkpt>
<trkpt lat="31.3785100" lon="34.8511300">
<ele>486.859985</ele>
<time>2022-03-02T09:13:56.275Z</time>
</trkpt>
<trkpt lat="31.3785400" lon="34.8513100">
<ele>490.319977</ele>
<time>2022-03-02T09:13:56.275Z</time>
</trkpt>
<trkpt lat="31.3787100" lon="34.8519800">
<ele>488.489990</ele>
<time>2022-03-02T09:13:56.275Z</time>
</trkpt>
<trkpt lat="31.3787100" lon="34.8521600">
<ele>486.970001</ele>
<time>2022-03-02T09:13:56.275Z</time>
</trkpt>
<trkpt lat="31.3787000" lon="34.8524300">
<ele>486.800018</ele>
<time>2022-03-02T09:13:56.275Z</time>
</trkpt>
<trkpt lat="31.3787000" lon="34.8524300">
<ele>486.800018</ele>
<time>2022-03-02T09:13:56.276Z</time>
</trkpt>
<trkpt lat="31.3786900" lon="34.8524900">
<ele>487.160004</ele>
<time>2022-03-02T09:13:56.276Z</time>
</trkpt>
<trkpt lat="31.3787000" lon="34.8528500">
<ele>484.749969</ele>
<time>2022-03-02T09:13:56.276Z</time>
</trkpt>
<trkpt lat="31.3787700" lon="34.8531600">
<ele>486.840027</ele>
<time>2022-03-02T09:13:56.276Z</time>
</trkpt>
<trkpt lat="31.3787900" lon="34.8532400">
<ele>487.919983</ele>
<time>2022-03-02T09:13:56.276Z</time>
</trkpt>
<trkpt lat="31.3788400" lon="34.8534000">
<ele>490.470001</ele>
<time>2022-03-02T09:13:56.276Z</time>
</trkpt>
<trkpt lat="31.3789900" lon="34.8539600">
<ele>491.110016</ele>
<time>2022-03-02T09:13:56.276Z</time>
</trkpt>
<trkpt lat="31.3791600" lon="34.8543200">
<ele>489.580017</ele>
<time>2022-03-02T09:13:56.276Z</time>
</trkpt>
<trkpt lat="31.3791900" lon="34.8544500">
<ele>489.660004</ele>
<time>2022-03-02T09:13:56.276Z</time>
</trkpt>
<trkpt lat="31.3791800" lon="34.8546500">
<ele>489.350006</ele>
<time>2022-03-02T09:13:56.276Z</time>
</trkpt>
<trkpt lat="31.3792000" lon="34.8547300">
<ele>489.540009</ele>
<time>2022-03-02T09:13:56.276Z</time>
</trkpt>
<trkpt lat="31.3792100" lon="34.8547900">
<ele>490.189972</ele>
<time>2022-03-02T09:13:56.276Z</time>
</trkpt>
<trkpt lat="31.3792600" lon="34.8549000">
<ele>492.049988</ele>
<time>2022-03-02T09:13:56.276Z</time>
</trkpt>
<trkpt lat="31.3793700" lon="34.8550100">
<ele>495.459991</ele>
<time>2022-03-02T09:13:56.276Z</time>
</trkpt>
<trkpt lat="31.3798500" lon="34.8553900">
<ele>496.880005</ele>
<time>2022-03-02T09:13:56.276Z</time>
</trkpt>
<trkpt lat="31.3802300" lon="34.8557600">
<ele>487.769989</ele>
<time>2022-03-02T09:13:56.276Z</time>
</trkpt>
<trkpt lat="31.3802900" lon="34.8558600">
<ele>485.600006</ele>
<time>2022-03-02T09:13:56.276Z</time>
</trkpt>
<trkpt lat="31.3803200" lon="34.8559800">
<ele>484.570007</ele>
<time>2022-03-02T09:13:56.276Z</time>
</trkpt>
<trkpt lat="31.3803300" lon="34.8560500">
<ele>484.199982</ele>
<time>2022-03-02T09:13:56.276Z</time>
</trkpt>
<trkpt lat="31.3803300" lon="34.8560500">
<ele>484.199982</ele>
<time>2022-03-02T09:13:56.276Z</time>
</trkpt>
<trkpt lat="31.3803300" lon="34.8561400">
<ele>484.019989</ele>
<time>2022-03-02T09:13:56.276Z</time>
</trkpt>
<trkpt lat="31.3803200" lon="34.8562100">
<ele>484.130005</ele>
<time>2022-03-02T09:13:56.276Z</time>
</trkpt>
<trkpt lat="31.3801800" lon="34.8565700">
<ele>484.799988</ele>
<time>2022-03-02T09:13:56.276Z</time>
</trkpt>
<trkpt lat="31.3801100" lon="34.8566600">
<ele>485.090027</ele>
<time>2022-03-02T09:13:56.276Z</time>
</trkpt>
<trkpt lat="31.3800000" lon="34.8567200">
<ele>487.000000</ele>
<time>2022-03-02T09:13:56.276Z</time>
</trkpt>
<trkpt lat="31.3798800" lon="34.8567300">
<ele>490.459991</ele>
<time>2022-03-02T09:13:56.276Z</time>
</trkpt>
<trkpt lat="31.3797400" lon="34.8566600">
<ele>494.469971</ele>
<time>2022-03-02T09:13:56.276Z</time>
</trkpt>
<trkpt lat="31.3795100" lon="34.8565100">
<ele>499.550018</ele>
<time>2022-03-02T09:13:56.276Z</time>
</trkpt>
<trkpt lat="31.3793900" lon="34.8564700">
<ele>500.910004</ele>
<time>2022-03-02T09:13:56.277Z</time>
</trkpt>
<trkpt lat="31.3790800" lon="34.8564700">
<ele>498.029999</ele>
<time>2022-03-02T09:13:56.277Z</time>
</trkpt>
<trkpt lat="31.3789600" lon="34.8564700">
<ele>496.909973</ele>
<time>2022-03-02T09:13:56.277Z</time>
</trkpt>
<trkpt lat="31.3787500" lon="34.8565600">
<ele>494.540009</ele>
<time>2022-03-02T09:13:56.277Z</time>
</trkpt>
<trkpt lat="31.3786800" lon="34.8566100">
<ele>494.110016</ele>
<time>2022-03-02T09:13:56.277Z</time>
</trkpt>
<trkpt lat="31.3785900" lon="34.8566900">
<ele>493.799988</ele>
<time>2022-03-02T09:13:56.277Z</time>
</trkpt>
<trkpt lat="31.3783200" lon="34.8569400">
<ele>492.140015</ele>
<time>2022-03-02T09:13:56.277Z</time>
</trkpt>
<trkpt lat="31.3782700" lon="34.8570500">
<ele>489.950012</ele>
<time>2022-03-02T09:13:56.277Z</time>
</trkpt>
<trkpt lat="31.3782000" lon="34.8572600">
<ele>485.730011</ele>
<time>2022-03-02T09:13:56.277Z</time>
</trkpt>
<trkpt lat="31.3781200" lon="34.8574300">
<ele>482.850006</ele>
<time>2022-03-02T09:13:56.277Z</time>
</trkpt>
<trkpt lat="31.3779000" lon="34.8577400">
<ele>478.740021</ele>
<time>2022-03-02T09:13:56.277Z</time>
</trkpt>
<trkpt lat="31.3778500" lon="34.8578500">
<ele>477.769989</ele>
<time>2022-03-02T09:13:56.277Z</time>
</trkpt>
<trkpt lat="31.3777200" lon="34.8582400">
<ele>477.420013</ele>
<time>2022-03-02T09:13:56.277Z</time>
</trkpt>
<trkpt lat="31.3776500" lon="34.8586200">
<ele>478.459991</ele>
<time>2022-03-02T09:13:56.277Z</time>
</trkpt>
<trkpt lat="31.3776500" lon="34.8586300">
<ele>478.459991</ele>
<time>2022-03-02T09:13:56.277Z</time>
</trkpt>
<trkpt lat="31.3776500" lon="34.8586300">
<ele>478.459991</ele>
<time>2022-03-02T09:13:56.277Z</time>
</trkpt>
<trkpt lat="31.3776400" lon="34.8587700">
<ele>478.499969</ele>
<time>2022-03-02T09:13:56.277Z</time>
</trkpt>
<trkpt lat="31.3776700" lon="34.8589300">
<ele>478.679993</ele>
<time>2022-03-02T09:13:56.277Z</time>
</trkpt>
<trkpt lat="31.3777400" lon="34.8590400">
<ele>479.220001</ele>
<time>2022-03-02T09:13:56.277Z</time>
</trkpt>
<trkpt lat="31.3779000" lon="34.8592100">
<ele>477.869995</ele>
<time>2022-03-02T09:13:56.278Z</time>
</trkpt>
<trkpt lat="31.3782700" lon="34.8595300">
<ele>473.839996</ele>
<time>2022-03-02T09:13:56.278Z</time>
</trkpt>
<trkpt lat="31.3785600" lon="34.8599100">
<ele>473.889984</ele>
<time>2022-03-02T09:13:56.278Z</time>
</trkpt>
<trkpt lat="31.3788200" lon="34.8603900">
<ele>475.250000</ele>
<time>2022-03-02T09:13:56.278Z</time>
</trkpt>
<trkpt lat="31.3791000" lon="34.8609900">
<ele>478.790009</ele>
<time>2022-03-02T09:13:56.278Z</time>
</trkpt>
<trkpt lat="31.3791000" lon="34.8609900">
<ele>478.790009</ele>
<time>2022-03-02T09:13:56.278Z</time>
</trkpt>
<trkpt lat="31.3791000" lon="34.8609900">
<ele>478.790009</ele>
<time>2022-03-02T09:13:56.278Z</time>
</trkpt>
<trkpt lat="31.3791000" lon="34.8610000">
<ele>478.899994</ele>
<time>2022-03-02T09:13:56.278Z</time>
</trkpt>
<trkpt lat="31.3794500" lon="34.8614600">
<ele>480.720001</ele>
<time>2022-03-02T09:13:56.278Z</time>
</trkpt>
<trkpt lat="31.3796800" lon="34.8618100">
<ele>483.169983</ele>
<time>2022-03-02T09:13:56.278Z</time>
</trkpt>
<trkpt lat="31.3797300" lon="34.8619000">
<ele>484.570007</ele>
<time>2022-03-02T09:13:56.278Z</time>
</trkpt>
<trkpt lat="31.3797600" lon="34.8620200">
<ele>485.819977</ele>
<time>2022-03-02T09:13:56.278Z</time>
</trkpt>
<trkpt lat="31.3797900" lon="34.8620600">
<ele>486.320007</ele>
<time>2022-03-02T09:13:56.278Z</time>
</trkpt>
<trkpt lat="31.3799000" lon="34.8620900">
<ele>487.329987</ele>
<time>2022-03-02T09:13:56.278Z</time>
</trkpt>
<trkpt lat="31.3799100" lon="34.8621400">
<ele>487.760010</ele>
<time>2022-03-02T09:13:56.278Z</time>
</trkpt>
<trkpt lat="31.3799500" lon="34.8623000">
<ele>488.589996</ele>
<time>2022-03-02T09:13:56.278Z</time>
</trkpt>
<trkpt lat="31.3800700" lon="34.8624400">
<ele>487.829987</ele>
<time>2022-03-02T09:13:56.278Z</time>
</trkpt>
<trkpt lat="31.3801200" lon="34.8625000">
<ele>487.270020</ele>
<time>2022-03-02T09:13:56.279Z</time>
</trkpt>
<trkpt lat="31.3801500" lon="34.8625700">
<ele>486.739990</ele>
<time>2022-03-02T09:13:56.279Z</time>
</trkpt>
<trkpt lat="31.3801700" lon="34.8627600">
<ele>486.399994</ele>
<time>2022-03-02T09:13:56.279Z</time>
</trkpt>
<trkpt lat="31.3802900" lon="34.8630400">
<ele>484.870026</ele>
<time>2022-03-02T09:13:56.279Z</time>
</trkpt>
<trkpt lat="31.3803700" lon="34.8632000">
<ele>481.419983</ele>
<time>2022-03-02T09:13:56.279Z</time>
</trkpt>
<trkpt lat="31.3804400" lon="34.8632900">
<ele>480.059998</ele>
<time>2022-03-02T09:13:56.279Z</time>
</trkpt>
<trkpt lat="31.3806100" lon="34.8634400">
<ele>479.369995</ele>
<time>2022-03-02T09:13:56.279Z</time>
</trkpt>
<trkpt lat="31.3807600" lon="34.8635000">
<ele>480.420013</ele>
<time>2022-03-02T09:13:56.279Z</time>
</trkpt>
<trkpt lat="31.3809000" lon="34.8635900">
<ele>480.049988</ele>
<time>2022-03-02T09:13:56.279Z</time>
</trkpt>
<trkpt lat="31.3809500" lon="34.8636500">
<ele>477.859985</ele>
<time>2022-03-02T09:13:56.279Z</time>
</trkpt>
<trkpt lat="31.3809600" lon="34.8637200">
<ele>476.559998</ele>
<time>2022-03-02T09:13:56.279Z</time>
</trkpt>
<trkpt lat="31.3809300" lon="34.8637900">
<ele>476.619995</ele>
<time>2022-03-02T09:13:56.279Z</time>
</trkpt>
<trkpt lat="31.3808900" lon="34.8638400">
<ele>477.139984</ele>
<time>2022-03-02T09:13:56.279Z</time>
</trkpt>
<trkpt lat="31.3807300" lon="34.8638800">
<ele>478.459991</ele>
<time>2022-03-02T09:13:56.279Z</time>
</trkpt>
<trkpt lat="31.3806500" lon="34.8639300">
<ele>478.309998</ele>
<time>2022-03-02T09:13:56.279Z</time>
</trkpt>
<trkpt lat="31.3805400" lon="34.8640500">
<ele>477.709991</ele>
<time>2022-03-02T09:13:56.279Z</time>
</trkpt>
<trkpt lat="31.3805300" lon="34.8641300">
<ele>476.940002</ele>
<time>2022-03-02T09:13:56.279Z</time>
</trkpt>
<trkpt lat="31.3805700" lon="34.8641600">
<ele>476.950012</ele>
<time>2022-03-02T09:13:56.279Z</time>
</trkpt>
<trkpt lat="31.3807900" lon="34.8641400">
<ele>475.589996</ele>
<time>2022-03-02T09:13:56.279Z</time>
</trkpt>
<trkpt lat="31.3809000" lon="34.8641100">
<ele>473.500000</ele>
<time>2022-03-02T09:13:56.279Z</time>
</trkpt>
<trkpt lat="31.3809900" lon="34.8640500">
<ele>471.420013</ele>
<time>2022-03-02T09:13:56.279Z</time>
</trkpt>
<trkpt lat="31.3811000" lon="34.8639600">
<ele>469.309998</ele>
<time>2022-03-02T09:13:56.279Z</time>
</trkpt>
<trkpt lat="31.3811500" lon="34.8639500">
<ele>467.440002</ele>
<time>2022-03-02T09:13:56.279Z</time>
</trkpt>
<trkpt lat="31.3811800" lon="34.8640200">
<ele>465.140015</ele>
<time>2022-03-02T09:13:56.279Z</time>
</trkpt>
<trkpt lat="31.3811300" lon="34.8641300">
<ele>465.709991</ele>
<time>2022-03-02T09:13:56.279Z</time>
</trkpt>
<trkpt lat="31.3810600" lon="34.8642500">
<ele>465.690002</ele>
<time>2022-03-02T09:13:56.279Z</time>
</trkpt>
<trkpt lat="31.3810600" lon="34.8642800">
<ele>464.979980</ele>
<time>2022-03-02T09:13:56.279Z</time>
</trkpt>
<trkpt lat="31.3811100" lon="34.8643000">
<ele>463.149994</ele>
<time>2022-03-02T09:13:56.280Z</time>
</trkpt>
<trkpt lat="31.3811900" lon="34.8642700">
<ele>460.680023</ele>
<time>2022-03-02T09:13:56.280Z</time>
</trkpt>
<trkpt lat="31.3812300" lon="34.8642200">
<ele>459.960022</ele>
<time>2022-03-02T09:13:56.280Z</time>
</trkpt>
<trkpt lat="31.3813000" lon="34.8641100">
<ele>458.660004</ele>
<time>2022-03-02T09:13:56.280Z</time>
</trkpt>
<trkpt lat="31.3814700" lon="34.8637500">
<ele>456.100006</ele>
<time>2022-03-02T09:13:56.280Z</time>
</trkpt>
<trkpt lat="31.3815200" lon="34.8635900">
<ele>454.659973</ele>
<time>2022-03-02T09:13:56.280Z</time>
</trkpt>
<trkpt lat="31.3815300" lon="34.8635100">
<ele>454.250000</ele>
<time>2022-03-02T09:13:56.280Z</time>
</trkpt>
<trkpt lat="31.3815300" lon="34.8635100">
<ele>454.250000</ele>
<time>2022-03-02T09:13:56.280Z</time>
</trkpt>
<trkpt lat="31.3815400" lon="34.8634200">
<ele>453.759979</ele>
<time>2022-03-02T09:13:56.280Z</time>
</trkpt>
<trkpt lat="31.3815100" lon="34.8632800">
<ele>454.919983</ele>
<time>2022-03-02T09:13:56.280Z</time>
</trkpt>
<trkpt lat="31.3813900" lon="34.8631100">
<ele>459.769989</ele>
<time>2022-03-02T09:13:56.280Z</time>
</trkpt>
<trkpt lat="31.3808500" lon="34.8627000">
<ele>467.140015</ele>
<time>2022-03-02T09:13:56.280Z</time>
</trkpt>
<trkpt lat="31.3806900" lon="34.8625100">
<ele>468.290009</ele>
<time>2022-03-02T09:13:56.280Z</time>
</trkpt>
<trkpt lat="31.3805400" lon="34.8620700">
<ele>469.550018</ele>
<time>2022-03-02T09:13:56.280Z</time>
</trkpt>
<trkpt lat="31.3804300" lon="34.8618300">
<ele>471.279999</ele>
<time>2022-03-02T09:13:56.280Z</time>
</trkpt>
<trkpt lat="31.3798400" lon="34.8609100">
<ele>464.389984</ele>
<time>2022-03-02T09:13:56.280Z</time>
</trkpt>
<trkpt lat="31.3795800" lon="34.8605500">
<ele>466.489990</ele>
<time>2022-03-02T09:13:56.280Z</time>
</trkpt>
<trkpt lat="31.3795600" lon="34.8604300">
<ele>465.380005</ele>
<time>2022-03-02T09:13:56.280Z</time>
</trkpt>
<trkpt lat="31.3795600" lon="34.8603000">
<ele>463.779999</ele>
<time>2022-03-02T09:13:56.280Z</time>
</trkpt>
<trkpt lat="31.3795500" lon="34.8602200">
<ele>462.889984</ele>
<time>2022-03-02T09:13:56.280Z</time>
</trkpt>
<trkpt lat="31.3793700" lon="34.8598100">
<ele>461.289978</ele>
<time>2022-03-02T09:13:56.280Z</time>
</trkpt>
<trkpt lat="31.3793600" lon="34.8597600">
<ele>460.929993</ele>
<time>2022-03-02T09:13:56.280Z</time>
</trkpt>
<trkpt lat="31.3793900" lon="34.8597300">
<ele>460.059998</ele>
<time>2022-03-02T09:13:56.280Z</time>
</trkpt>
<trkpt lat="31.3795000" lon="34.8598300">
<ele>459.089996</ele>
<time>2022-03-02T09:13:56.280Z</time>
</trkpt>
<trkpt lat="31.3797200" lon="34.8601300">
<ele>457.919983</ele>
<time>2022-03-02T09:13:56.280Z</time>
</trkpt>
<trkpt lat="31.3797500" lon="34.8602100">
<ele>458.149994</ele>
<time>2022-03-02T09:13:56.280Z</time>
</trkpt>
<trkpt lat="31.3798100" lon="34.8604600">
<ele>459.669983</ele>
<time>2022-03-02T09:13:56.280Z</time>
</trkpt>
<trkpt lat="31.3798700" lon="34.8606000">
<ele>459.520020</ele>
<time>2022-03-02T09:13:56.281Z</time>
</trkpt>
<trkpt lat="31.3799000" lon="34.8605600">
<ele>458.269989</ele>
<time>2022-03-02T09:13:56.281Z</time>
</trkpt>
<trkpt lat="31.3798900" lon="34.8603900">
<ele>455.819977</ele>
<time>2022-03-02T09:13:56.281Z</time>
</trkpt>
<trkpt lat="31.3798900" lon="34.8602400">
<ele>453.830017</ele>
<time>2022-03-02T09:13:56.281Z</time>
</trkpt>
<trkpt lat="31.3798700" lon="34.8601500">
<ele>454.059998</ele>
<time>2022-03-02T09:13:56.281Z</time>
</trkpt>
<trkpt lat="31.3798200" lon="34.8600200">
<ele>454.399994</ele>
<time>2022-03-02T09:13:56.281Z</time>
</trkpt>
<trkpt lat="31.3795200" lon="34.8597200">
<ele>457.640015</ele>
<time>2022-03-02T09:13:56.281Z</time>
</trkpt>
<trkpt lat="31.3793400" lon="34.8594500">
<ele>458.549988</ele>
<time>2022-03-02T09:13:56.281Z</time>
</trkpt>
<trkpt lat="31.3790500" lon="34.8588600">
<ele>463.420013</ele>
<time>2022-03-02T09:13:56.281Z</time>
</trkpt>
<trkpt lat="31.3788800" lon="34.8586500">
<ele>458.700012</ele>
<time>2022-03-02T09:13:56.281Z</time>
</trkpt>
<trkpt lat="31.3788600" lon="34.8585800">
<ele>457.579987</ele>
<time>2022-03-02T09:13:56.281Z</time>
</trkpt>
<trkpt lat="31.3788700" lon="34.8585300">
<ele>456.870026</ele>
<time>2022-03-02T09:13:56.281Z</time>
</trkpt>
<trkpt lat="31.3789200" lon="34.8584800">
<ele>456.950012</ele>
<time>2022-03-02T09:13:56.281Z</time>
</trkpt>
<trkpt lat="31.3789900" lon="34.8584500">
<ele>458.440002</ele>
<time>2022-03-02T09:13:56.281Z</time>
</trkpt>
<trkpt lat="31.3790500" lon="34.8584700">
<ele>460.320007</ele>
<time>2022-03-02T09:13:56.281Z</time>
</trkpt>
<trkpt lat="31.3791100" lon="34.8585200">
<ele>462.520020</ele>
<time>2022-03-02T09:13:56.281Z</time>
</trkpt>
<trkpt lat="31.3793800" lon="34.8589000">
<ele>468.369995</ele>
<time>2022-03-02T09:13:56.281Z</time>
</trkpt>
<trkpt lat="31.3796500" lon="34.8591800">
<ele>467.010010</ele>
<time>2022-03-02T09:13:56.281Z</time>
</trkpt>
<trkpt lat="31.3799400" lon="34.8594400">
<ele>463.019989</ele>
<time>2022-03-02T09:13:56.281Z</time>
</trkpt>
<trkpt lat="31.3803100" lon="34.8598400">
<ele>463.250000</ele>
<time>2022-03-02T09:13:56.281Z</time>
</trkpt>
<trkpt lat="31.3804200" lon="34.8599800">
<ele>457.699982</ele>
<time>2022-03-02T09:13:56.281Z</time>
</trkpt>
<trkpt lat="31.3806800" lon="34.8602000">
<ele>449.720001</ele>
<time>2022-03-02T09:13:56.281Z</time>
</trkpt>
<trkpt lat="31.3810100" lon="34.8605700">
<ele>438.510010</ele>
<time>2022-03-02T09:13:56.281Z</time>
</trkpt>
<trkpt lat="31.3811400" lon="34.8606600">
<ele>436.079987</ele>
<time>2022-03-02T09:13:56.281Z</time>
</trkpt>
<trkpt lat="31.3813100" lon="34.8607400">
<ele>435.300018</ele>
<time>2022-03-02T09:13:56.281Z</time>
</trkpt>
<trkpt lat="31.3814800" lon="34.8607900">
<ele>434.040009</ele>
<time>2022-03-02T09:13:56.281Z</time>
</trkpt>
<trkpt lat="31.3815900" lon="34.8608400">
<ele>432.799988</ele>
<time>2022-03-02T09:13:56.281Z</time>
</trkpt>
<trkpt lat="31.3817700" lon="34.8609800">
<ele>427.829987</ele>
<time>2022-03-02T09:13:56.281Z</time>
</trkpt>
<trkpt lat="31.3818700" lon="34.8610300">
<ele>425.289978</ele>
<time>2022-03-02T09:13:56.281Z</time>
</trkpt>
<trkpt lat="31.3819800" lon="34.8610700">
<ele>422.710022</ele>
<time>2022-03-02T09:13:56.281Z</time>
</trkpt>
<trkpt lat="31.3825300" lon="34.8611100">
<ele>412.870026</ele>
<time>2022-03-02T09:13:56.282Z</time>
</trkpt>
<trkpt lat="31.3829500" lon="34.8610700">
<ele>402.800018</ele>
<time>2022-03-02T09:13:56.282Z</time>
</trkpt>
<trkpt lat="31.3830400" lon="34.8610300">
<ele>402.410004</ele>
<time>2022-03-02T09:13:56.282Z</time>
</trkpt>
<trkpt lat="31.3831300" lon="34.8609500">
<ele>402.699982</ele>
<time>2022-03-02T09:13:56.282Z</time>
</trkpt>
<trkpt lat="31.3833000" lon="34.8607600">
<ele>403.779999</ele>
<time>2022-03-02T09:13:56.282Z</time>
</trkpt>
<trkpt lat="31.3834000" lon="34.8606000">
<ele>406.150024</ele>
<time>2022-03-02T09:13:56.282Z</time>
</trkpt>
<trkpt lat="31.3835400" lon="34.8603000">
<ele>406.769989</ele>
<time>2022-03-02T09:13:56.282Z</time>
</trkpt>
<trkpt lat="31.3836100" lon="34.8600100">
<ele>411.739990</ele>
<time>2022-03-02T09:13:56.282Z</time>
</trkpt>
<trkpt lat="31.3836700" lon="34.8597400">
<ele>412.999969</ele>
<time>2022-03-02T09:13:56.282Z</time>
</trkpt>
<trkpt lat="31.3836500" lon="34.8595500">
<ele>415.149994</ele>
<time>2022-03-02T09:13:56.282Z</time>
</trkpt>
<trkpt lat="31.3836400" lon="34.8593600">
<ele>416.769989</ele>
<time>2022-03-02T09:13:56.282Z</time>
</trkpt>
<trkpt lat="31.3837200" lon="34.8593200">
<ele>414.889984</ele>
<time>2022-03-02T09:13:56.282Z</time>
</trkpt>
<trkpt lat="31.3837600" lon="34.8594500">
<ele>412.109985</ele>
<time>2022-03-02T09:13:56.282Z</time>
</trkpt>
<trkpt lat="31.3838500" lon="34.8595300">
<ele>407.890015</ele>
<time>2022-03-02T09:13:56.282Z</time>
</trkpt>
<trkpt lat="31.3838900" lon="34.8594400">
<ele>408.059998</ele>
<time>2022-03-02T09:13:56.282Z</time>
</trkpt>
<trkpt lat="31.3838700" lon="34.8592600">
<ele>411.800018</ele>
<time>2022-03-02T09:13:56.282Z</time>
</trkpt>
<trkpt lat="31.3837800" lon="34.8592200">
<ele>414.620026</ele>
<time>2022-03-02T09:13:56.282Z</time>
</trkpt>
<trkpt lat="31.3837200" lon="34.8590800">
<ele>418.009979</ele>
<time>2022-03-02T09:13:56.282Z</time>
</trkpt>
<trkpt lat="31.3837300" lon="34.8589400">
<ele>420.160004</ele>
<time>2022-03-02T09:13:56.282Z</time>
</trkpt>
<trkpt lat="31.3837500" lon="34.8588400">
<ele>421.179993</ele>
<time>2022-03-02T09:13:56.282Z</time>
</trkpt>
<trkpt lat="31.3838000" lon="34.8588300">
<ele>421.290009</ele>
<time>2022-03-02T09:13:56.282Z</time>
</trkpt>
<trkpt lat="31.3838000" lon="34.8588300">
<ele>421.290009</ele>
<time>2022-03-02T09:13:56.282Z</time>
</trkpt>
<trkpt lat="31.3838000" lon="34.8588300">
<ele>421.290009</ele>
<time>2022-03-02T09:13:56.282Z</time>
</trkpt>
<trkpt lat="31.3838000" lon="34.8588300">
<ele>421.290009</ele>
<time>2022-03-02T09:13:56.282Z</time>
</trkpt>
<trkpt lat="31.3839100" lon="34.8587900">
<ele>421.449982</ele>
<time>2022-03-02T09:13:56.282Z</time>
</trkpt>
<trkpt lat="31.3840100" lon="34.8587800">
<ele>420.360016</ele>
<time>2022-03-02T09:13:56.282Z</time>
</trkpt>
<trkpt lat="31.3841600" lon="34.8587300">
<ele>420.199982</ele>
<time>2022-03-02T09:13:56.282Z</time>
</trkpt>
<trkpt lat="31.3844100" lon="34.8590800">
<ele>410.630005</ele>
<time>2022-03-02T09:13:56.282Z</time>
</trkpt>
<trkpt lat="31.3845100" lon="34.8591800">
<ele>408.410004</ele>
<time>2022-03-02T09:13:56.282Z</time>
</trkpt>
<trkpt lat="31.3849000" lon="34.8594600">
<ele>402.949982</ele>
<time>2022-03-02T09:13:56.283Z</time>
</trkpt>
<trkpt lat="31.3847900" lon="34.8595900">
<ele>400.360016</ele>
<time>2022-03-02T09:13:56.283Z</time>
</trkpt>
<trkpt lat="31.3846400" lon="34.8596700">
<ele>398.779999</ele>
<time>2022-03-02T09:13:56.283Z</time>
</trkpt>
<trkpt lat="31.3846400" lon="34.8596800">
<ele>398.570007</ele>
<time>2022-03-02T09:13:56.283Z</time>
</trkpt>
<trkpt lat="31.3846400" lon="34.8596800">
<ele>398.570007</ele>
<time>2022-03-02T09:13:56.283Z</time>
</trkpt>
</trkseg>
</trk>
</gpx>
